[[{"header":{"parameterUnit":"m.s-1","parameterCategory":1,"la1":30.6,"la2":28.766,"lo1":-90.7593,"lo2":-88.6598,"dy":0.0162,"dx":0.0183,"nx":116,"ny":114,"refTime":"2023-05-15T06:00:00:Z","depth":0,"parameterNumber":2,"parameterNumberName":"U-component_of_WINDS"},"data":[0.0,0.0,0.0,0.0,0.0,0.0,0.0,0.0,0.0,0.0,0.0,0.0,0.0,0.0,0.0,0.0,0.0,0.0,0.0,0.0,0.0,0.0,0.0,0.0,0.0,0.0,0.0,0.0,0.0,0.0,0.0,0.0,0.0,0.0,0.0,0.0,0.0,0.0,0.0,0.0,0.0,0.0,0.0,0.0,0.0,0.0,0.0,0.0,0.0,0.0,0.0,0.0,0.0,0.0,0.0,0.0,0.0,0.0,0.0,0.0,0.0,0.0,0.0,0.0,0.0,0.0,0.0,0.0,0.0,0.0,0.0,0.0,0.0,0.0,0.0,0.0,0.0,0.0,0.0,0.0,0.0,0.0,0.0,0.0,0.0,0.0,0.0,0.0,0.0,0.0,0.0,0.0,0.0,0.0,0.0,0.0,0.0,0.0,0.0,0.0,0.0,0.0,0.0,0.0,0.0,0.0,0.0,0.0,0.0,0.0,0.0,0.0,0.0,0.0,0.0,0.0,0.0,0.0,0.0,0.0,0.0,0.0,0.0,0.0,0.0,0.0,0.0,0.0,0.0,0.0,0.0,0.0,0.0,0.0,0.0,0.0,0.0,0.0,0.0,0.0,0.0,0.0,0.0,0.0,0.0,0.0,0.0,0.0,0.0,0.0,0.0,0.0,0.0,0.0,0.0,0.0,0.0,0.0,0.0,0.0,0.0,0.0,0.0,0.0,0.0,0.0,0.0,0.0,0.0,0.0,0.0,0.0,0.0,0.0,0.0,0.0,0.0,0.0,0.0,0.0,0.0,0.0,0.0,0.0,0.0,0.0,0.0,0.0,0.0,0.0,0.0,0.0,0.0,0.0,0.0,0.0,0.0,0.0,0.0,0.0,0.0,0.0,0.0,0.0,0.0,0.0,0.0,0.0,0.0,0.0,0.0,0.0,0.0,0.0,0.0,0.0,0.0,0.0,0.0,0.0,0.0,0.0,0.0,0.0,0.0,0.0,0.0,0.0,0.0,0.0,0.0,0.0,0.0,0.0,0.0,0.0,0.0,0.0,0.0,0.0,0.0,0.0,0.0,0.0,0.0,0.0,0.0,0.0,0.0,0.0,0.0,0.0,0.0,0.0,0.0,0.0,0.0,0.0,0.0,0.0,0.0,0.0,0.0,0.0,0.0,0.0,0.0,0.0,0.0,0.0,0.0,0.0,0.0,0.0,0.0,0.0,0.0,0.0,0.0,0.0,0.0,0.0,0.0,0.0,0.0,0.0,0.0,0.0,0.0,0.0,0.0,0.0,0.0,0.0,0.0,0.0,0.0,0.0,0.0,0.0,0.0,0.0,0.0,0.0,0.0,0.0,0.0,0.0,0.0,0.0,0.0,0.0,0.0,0.0,0.0,0.0,0.0,0.0,0.0,0.0,0.0,0.0,0.0,0.0,0.0,0.0,0.0,0.0,0.0,0.0,0.0,0.0,0.0,0.0,0.0,0.0,0.0,0.0,0.0,0.0,0.0,0.0,0.0,0.0,0.0,0.0,0.0,0.0,0.0,0.0,0.0,0.0,0.0,0.0,0.0,0.0,0.0,0.0,0.0,0.0,0.0,0.0,0.0,0.0,0.0,0.0,0.0,0.0,0.0,0.0,0.0,0.0,0.0,0.0,0.0,0.0,0.0,0.0,0.0,0.0,0.0,0.0,0.0,0.0,0.0,0.0,0.0,0.0,0.0,0.0,0.0,0.0,0.0,0.0,0.0,0.0,0.0,0.0,0.0,0.0,0.0,0.0,0.0,0.0,0.0,0.0,0.0,0.0,0.0,0.0,0.0,0.0,0.0,0.0,0.0,0.0,0.0,0.0,0.0,0.0,0.0,0.0,0.0,0.0,0.0,0.0,0.0,0.0,0.0,0.0,0.0,0.0,0.0,0.0,0.0,0.0,0.0,0.0,0.0,0.0,0.0,0.0,0.0,0.0,0.0,0.0,0.0,0.0,0.0,0.0,0.0,0.0,0.0,0.0,0.0,0.0,0.0,0.0,0.0,0.0,0.0,0.0,0.0,0.0,0.0,0.0,0.0,0.0,0.0,0.0,0.0,0.0,0.0,0.0,0.0,0.0,0.0,0.0,0.0,0.0,0.0,0.0,0.0,0.0,0.0,0.0,0.0,0.0,0.0,0.0,0.0,0.0,0.0,0.0,0.0,0.0,0.0,0.0,0.0,0.0,0.0,0.0,0.0,0.0,0.0,0.0,0.0,0.0,0.0,0.0,0.0,0.0,0.0,0.0,0.0,0.0,0.0,0.0,0.0,0.0,0.0,0.0,0.0,0.0,0.0,0.0,0.0,0.0,0.0,0.0,0.0,0.0,0.0,0.0,0.0,0.0,0.0,0.0,0.0,0.0,0.0,0.0,0.0,0.0,0.0,0.0,0.0,0.0,0.0,0.0,0.0,0.0,0.0,0.0,0.0,0.0,0.0,0.0,0.0,0.0,0.0,0.0,0.0,0.0,0.0,0.0,0.0,0.0,0.0,0.0,0.0,0.0,0.0,0.0,0.0,0.0,0.0,0.0,0.0,0.0,0.0,0.0,0.0,0.0,0.0,0.0,0.0,0.0,0.0,0.0,0.0,0.0,0.0,0.0,0.0,0.0,0.0,0.0,0.0,0.0,0.0,0.0,0.0,0.0,0.0,0.0,0.0,0.0,0.0,0.0,0.0,0.0,0.0,0.0,0.0,0.0,0.0,0.0,0.0,0.0,0.0,0.0,0.0,0.0,0.0,0.0,0.0,0.0,0.0,0.0,0.0,0.0,0.0,0.0,0.0,0.0,0.0,0.0,0.0,0.0,0.0,0.0,0.0,0.0,0.0,0.0,0.0,0.0,0.0,0.0,0.0,0.0,0.0,0.0,0.0,0.0,0.0,0.0,0.0,0.0,0.0,0.0,0.0,0.0,0.0,0.0,0.0,0.0,0.0,0.0,0.0,0.0,0.0,0.0,0.0,0.0,0.0,0.0,0.0,0.0,0.0,0.0,0.0,0.0,0.0,0.0,0.0,0.0,0.0,0.0,0.0,0.0,0.0,0.0,0.0,0.0,0.0,0.0,0.0,0.0,0.0,0.0,0.0,0.0,0.0,0.0,0.0,0.0,0.0,0.0,0.0,0.0,0.0,0.0,0.0,0.0,0.0,0.0,0.0,0.0,0.0,0.0,0.0,0.0,0.0,0.0,0.0,0.0,0.0,0.0,0.0,0.0,0.0,0.0,0.0,0.0,0.0,0.0,0.0,0.0,0.0,0.0,0.0,0.0,0.0,0.0,0.0,0.0,0.0,0.0,0.0,0.0,0.0,0.0,0.0,0.0,0.0,0.0,0.0,0.0,0.0,0.0,0.0,0.0,0.0,0.0,0.0,0.0,0.0,0.0,0.0,0.0,0.0,0.0,0.0,0.0,0.0,0.0,0.0,0.0,0.0,0.0,0.0,0.0,0.0,0.0,0.0,0.0,0.0,0.0,0.0,0.0,0.0,0.0,0.0,0.0,0.0,0.0,0.0,0.0,0.0,0.0,0.0,0.0,0.0,0.0,0.0,0.0,0.0,0.0,0.0,0.0,0.0,0.0,0.0,0.0,0.0,0.0,0.0,0.0,0.0,0.0,0.0,0.0,0.0,0.0,0.0,0.0,0.0,0.0,0.0,0.0,0.0,0.0,0.0,0.0,0.0,0.0,0.0,0.0,0.0,0.0,0.0,0.0,0.0,0.0,0.0,0.0,0.0,0.0,0.0,0.0,0.0,0.0,0.0,0.0,0.0,0.0,0.0,0.0,0.0,0.0,0.0,0.0,0.0,0.0,0.0,0.0,0.0,0.0,0.0,0.0,0.0,0.0,0.0,0.0,0.0,0.0,0.0,0.0,0.0,0.0,0.0,0.0,0.0,0.0,0.0,0.0,0.0,0.0,0.0,0.0,0.0,0.0,0.0,0.0,0.0,0.0,0.0,0.0,0.0,0.0,0.0,0.0,0.0,0.0,0.0,0.0,0.0,0.0,0.0,0.0,0.0,0.0,0.0,0.0,0.0,0.0,0.0,0.0,0.0,0.0,0.0,0.0,0.0,0.0,0.0,0.0,0.0,0.0,0.0,0.0,0.0,0.0,0.0,0.0,0.0,0.0,0.0,0.0,0.0,0.0,0.0,0.0,0.0,0.0,0.0,0.0,0.0,0.0,0.0,0.0,0.0,0.0,0.0,0.0,0.0,0.0,0.0,0.0,0.0,0.0,0.0,0.0,0.0,0.0,0.0,0.0,0.0,0.0,0.0,0.0,0.0,0.0,0.0,0.0,0.0,0.0,0.0,0.0,0.0,0.0,0.0,0.0,0.0,0.0,0.0,0.0,0.0,0.0,0.0,0.0,0.0,0.0,0.0,0.0,0.0,0.0,0.0,0.0,0.0,0.0,0.0,0.0,0.0,0.0,0.0,0.0,0.0,0.0,0.0,0.0,0.0,0.0,0.0,0.0,0.0,0.0,0.0,0.0,0.0,0.0,0.0,0.0,0.0,0.0,0.0,0.0,0.0,0.0,0.0,0.0,0.0,0.0,0.0,0.0,0.0,0.0,0.0,0.0,0.0,0.0,0.0,0.0,0.0,0.0,0.0,0.0,0.0,0.0,0.0,0.0,0.0,0.0,0.0,0.0,0.0,0.0,0.0,0.0,0.0,0.0,0.0,0.0,0.0,0.0,0.0,0.0,0.0,0.0,0.0,0.0,0.0,0.0,0.0,0.0,0.0,0.0,0.0,0.0,0.0,0.0,0.0,0.0,0.0,0.0,0.0,0.0,0.0,0.0,0.0,0.0,0.0,0.0,0.0,0.0,0.0,0.0,0.0,0.0,0.0,0.0,0.0,0.0,0.0,0.0,0.0,0.0,0.0,0.0,0.0,0.0,0.0,0.0,0.0,0.0,0.0,0.0,0.0,0.0,0.0,0.0,0.0,0.0,0.0,0.0,0.0,0.0,0.0,0.0,0.0,0.0,0.0,0.0,0.0,0.0,0.0,0.0,0.0,0.0,0.0,0.0,0.0,0.0,0.0,0.0,0.0,0.0,0.0,0.0,0.0,0.0,0.0,0.0,0.0,0.0,0.0,0.0,0.0,0.0,0.0,0.0,0.0,0.0,0.0,0.0,0.0,0.0,0.0,0.0,0.0,0.0,0.0,0.0,0.0,0.0,0.0,0.0,0.0,0.0,0.0,0.0,0.0,0.0,0.0,0.0,0.0,0.0,0.0,0.0,0.0,0.0,0.0,0.0,0.0,0.0,0.0,0.0,0.0,0.0,0.0,0.0,0.0,0.0,0.0,0.0,0.0,0.0,0.0,0.0,0.0,0.0,0.0,0.0,0.0,0.0,0.0,0.0,0.0,0.0,0.0,0.0,0.0,0.0,0.0,0.0,0.0,0.0,0.0,0.0,0.0,0.0,0.0,0.0,0.0,0.0,0.0,0.0,0.0,0.0,0.0,0.0,0.0,0.0,0.0,0.0,0.0,0.0,0.0,0.0,0.0,0.0,0.0,0.0,0.0,0.0,0.0,0.0,0.0,0.0,0.0,0.0,0.0,0.0,0.0,0.0,0.0,0.0,0.0,0.0,0.0,0.0,0.0,0.0,0.0,0.0,0.0,0.0,0.0,0.0,0.0,0.0,0.0,0.0,0.0,0.0,0.0,0.0,0.0,0.0,0.0,0.0,0.0,0.0,0.0,0.0,0.0,0.0,0.0,0.0,0.0,0.0,0.0,0.0,0.0,0.0,0.0,0.0,0.0,0.0,0.0,0.0,0.0,0.0,0.0,0.0,0.0,0.0,0.0,0.0,0.0,0.0,0.0,0.0,0.0,0.0,0.0,0.0,0.0,0.0,0.0,0.0,0.0,0.0,0.0,0.0,0.0,0.0,0.0,0.0,0.0,0.0,0.0,0.0,0.0,0.0,0.0,0.0,0.0,0.0,0.0,0.0,0.0,0.0,0.0,0.0,0.0,0.0,0.0,0.0,0.0,0.0,0.0,0.0,0.0,0.0,0.0,0.0,0.0,0.0,0.0,0.0,0.0,0.0,0.0,0.0,0.0,0.0,0.0,0.0,-2.9276,0.0,0.0,0.0,0.0,0.0,0.0,0.0,0.0,0.0,0.0,0.0,0.0,0.0,0.0,0.0,0.0,0.0,0.0,0.0,0.0,0.0,0.0,0.0,0.0,0.0,0.0,0.0,0.0,0.0,0.0,0.0,0.0,0.0,0.0,0.0,0.0,0.0,0.0,0.0,0.0,0.0,0.0,-1.2595,-1.4111,-1.5241,0.0,0.0,0.0,0.0,0.0,0.0,0.0,0.0,0.0,0.0,0.0,0.0,0.0,0.0,0.0,0.0,0.0,0.0,0.0,0.0,0.0,0.0,0.0,0.0,0.0,0.0,0.0,0.0,0.0,0.0,0.0,0.0,0.0,0.0,0.0,0.0,0.0,0.0,0.0,0.0,0.0,0.0,0.0,0.0,0.0,0.0,0.0,0.0,0.0,0.0,0.0,0.0,0.0,0.0,0.0,0.0,0.0,0.0,0.0,0.0,0.0,0.0,0.0,0.0,0.0,0.0,0.0,0.0,0.0,0.0,0.0,-3.0319,0.0,0.0,0.0,0.0,0.0,0.0,0.0,0.0,0.0,0.0,0.0,0.0,0.0,0.0,0.0,0.0,0.0,0.0,0.0,0.0,0.0,0.0,0.0,0.0,0.0,0.0,0.0,0.0,0.0,0.0,0.0,0.0,0.0,0.0,0.0,0.0,0.0,0.0,0.0,0.0,0.0,-1.5297,-1.6124,-1.5534,-1.6696,0.0,0.0,0.0,0.0,0.0,0.0,0.0,0.0,0.0,0.0,0.0,0.0,0.0,0.0,0.0,0.0,0.0,0.0,0.0,0.0,0.0,0.0,0.0,0.0,0.0,0.0,0.0,0.0,0.0,0.0,0.0,0.0,0.0,0.0,0.0,0.0,0.0,0.0,0.0,0.0,0.0,0.0,0.0,0.0,0.0,0.0,0.0,0.0,0.0,0.0,0.0,0.0,0.0,0.0,0.0,0.0,0.0,0.0,0.0,0.0,0.0,0.0,0.0,-3.6847,-3.7892,-3.993,-3.8328,-3.7546,-3.7354,-3.5571,-3.4409,-3.3574,0.0,0.0,0.0,0.0,0.0,0.0,0.0,0.0,0.0,0.0,0.0,0.0,0.0,0.0,0.0,0.0,0.0,0.0,0.0,0.0,0.0,0.0,0.0,0.0,0.0,0.0,0.0,0.0,0.0,0.0,0.0,0.0,0.0,0.0,0.0,0.0,0.0,0.0,-1.3233,-1.4159,-1.5912,-1.6734,-1.6739,-1.7886,0.0,0.0,0.0,0.0,0.0,0.0,0.0,0.0,0.0,0.0,0.0,0.0,0.0,0.0,0.0,0.0,0.0,0.0,0.0,0.0,0.0,0.0,0.0,0.0,0.0,0.0,0.0,0.0,0.0,0.0,0.0,0.0,0.0,0.0,0.0,0.0,0.0,0.0,0.0,0.0,0.0,0.0,0.0,-1.6587,-1.816,0.0,0.0,0.0,0.0,0.0,0.0,0.0,0.0,0.0,0.0,0.0,0.0,0.0,0.0,-3.4796,-3.7042,-3.7887,-3.7125,-3.9883,-4.104,-4.0674,-4.0982,-4.1025,-4.0713,-4.0474,0.0,-3.4613,-3.4136,0.0,0.0,0.0,0.0,0.0,0.0,0.0,0.0,0.0,0.0,0.0,0.0,0.0,0.0,0.0,0.0,0.0,0.0,0.0,0.0,0.0,0.0,0.0,0.0,0.0,0.0,0.0,0.0,0.0,0.0,0.0,0.0,0.0,0.0,0.0,0.0,-1.3458,-1.4348,-1.5221,-1.7424,-1.8291,-1.8183,-1.9697,-1.9977,-1.9287,-1.8823,0.0,0.0,0.0,0.0,0.0,0.0,0.0,0.0,0.0,0.0,0.0,0.0,0.0,0.0,0.0,0.0,0.0,0.0,0.0,0.0,0.0,0.0,0.0,0.0,0.0,0.0,0.0,0.0,0.0,0.0,0.0,0.0,0.0,0.0,0.0,0.0,0.0,0.0,0.0,-1.536,-1.7496,-1.8008,-1.9873,-2.1287,0.0,0.0,0.0,0.0,0.0,0.0,0.0,0.0,0.0,-3.6749,-3.569,-3.6264,-3.8783,-3.9793,-4.0625,-4.1165,-4.2192,-4.2595,-4.2334,-4.245,-4.2479,-4.2465,-4.2276,-4.1082,-3.8944,-3.7398,-3.5773,-3.4126,0.0,0.0,0.0,0.0,-2.9715,-2.9575,0.0,0.0,0.0,0.0,0.0,0.0,0.0,0.0,0.0,0.0,0.0,0.0,0.0,0.0,0.0,-0.8434,0.0,0.0,0.0,0.0,0.0,0.0,0.0,0.0,0.0,0.0,0.0,-1.4285,-1.4935,-1.569,-1.6581,-1.8825,-1.9624,-1.921,-2.0899,-2.1043,-2.0063,-1.9141,-1.8902,0.0,0.0,0.0,0.0,0.0,0.0,0.0,0.0,0.0,0.0,0.0,0.0,0.0,0.0,0.0,0.0,0.0,0.0,0.0,0.0,0.0,0.0,0.0,0.0,0.0,0.0,0.0,0.0,0.0,0.0,0.0,0.0,0.0,0.0,0.0,0.0,0.0,0.0,-1.7189,-1.9175,-1.848,-2.1974,-2.4166,0.0,0.0,0.0,0.0,0.0,0.0,-3.9349,-3.6965,-3.6768,-3.973,-3.8162,-3.8724,-4.184,-4.1788,-4.2712,-4.4357,-4.3492,-4.3328,-4.3739,-4.3135,-4.2984,-4.3177,-4.2984,-4.2644,-4.2098,-3.9958,-3.8322,-3.703,-3.5133,-3.4012,-3.3381,-3.2222,-3.1833,-3.1972,0.0,0.0,0.0,0.0,0.0,0.0,0.0,0.0,0.0,0.0,0.0,0.0,0.0,0.0,-0.8167,-0.8544,-0.9757,-1.0207,0.0,0.0,0.0,0.0,0.0,0.0,0.0,0.0,0.0,-1.5984,-1.7052,-1.7971,-1.8604,-1.9791,-2.0042,-1.9417,-2.0717,-2.158,-2.1966,-2.0783,-1.9969,-1.9396,0.0,0.0,0.0,0.0,0.0,0.0,0.0,0.0,0.0,0.0,0.0,0.0,0.0,0.0,0.0,0.0,0.0,0.0,0.0,0.0,0.0,0.0,0.0,0.0,0.0,0.0,0.0,0.0,0.0,0.0,0.0,0.0,0.0,0.0,0.0,0.0,0.0,0.0,0.0,-2.1322,-2.6404,0.0,0.0,0.0,0.0,-3.3182,-3.5853,-3.7784,-3.877,-3.8912,-3.977,-4.1404,-4.1046,-4.1272,-4.2465,-4.2659,-4.3416,-4.4656,-4.3514,-4.338,-4.4094,-4.3339,-4.2887,-4.2887,-4.2887,-4.2548,-4.1951,-4.1232,-3.9728,-3.7868,-3.7425,-3.6018,-3.4211,-3.3902,-3.3499,-3.3057,0.0,0.0,0.0,0.0,0.0,0.0,0.0,0.0,0.0,0.0,0.0,0.0,0.0,-0.948,-1.0057,-1.101,-1.1864,-1.2435,-1.2537,0.0,0.0,0.0,0.0,0.0,0.0,0.0,-1.6219,-1.7814,-1.7847,-1.8069,-1.8556,-1.9309,-1.9645,-1.9486,-2.0063,-2.0857,-2.1503,-2.0263,-1.9053,-1.7961,-1.6572,-1.5624,0.0,0.0,0.0,0.0,0.0,0.0,0.0,0.0,0.0,0.0,0.0,0.0,0.0,0.0,0.0,0.0,0.0,0.0,0.0,0.0,0.0,0.0,0.0,0.0,0.0,0.0,0.0,0.0,0.0,0.0,0.0,0.0,0.0,0.0,0.0,0.0,0.0,-2.6276,-3.0973,0.0,-2.9857,-3.3251,-3.5723,-3.5951,-3.9117,-4.1539,-4.2623,-4.1605,-4.1901,-4.4001,-4.2219,-4.1935,-4.3375,-4.3459,-4.3686,-4.4081,-4.4067,-4.3854,-4.338,-4.3079,-4.2887,-4.2873,-4.248,-4.2277,-4.2113,-4.1513,-4.0636,-3.9623,-3.9448,-3.8671,-3.739,-3.567,-3.509,-3.5036,0.0,0.0,0.0,0.0,0.0,0.0,0.0,0.0,0.0,0.0,0.0,-0.7591,-0.9098,-0.9745,-1.0508,-1.1646,-1.2665,-1.3234,-1.3367,0.0,0.0,0.0,-1.3056,0.0,0.0,-1.5826,-1.6793,-1.8656,-1.8031,-1.8231,-1.9,-1.9206,-1.9401,-1.9649,-1.9623,-1.9968,-2.0448,-1.9692,-1.8794,-1.7599,-1.4874,-1.414,-1.4555,0.0,0.0,0.0,0.0,0.0,0.0,0.0,0.0,0.0,0.0,0.0,0.0,0.0,0.0,0.0,0.0,0.0,0.0,0.0,0.0,0.0,0.0,0.0,0.0,0.0,0.0,0.0,0.0,0.0,0.0,0.0,0.0,0.0,0.0,0.0,-3.0904,-3.0407,-3.5606,-3.7752,-3.3791,-3.7939,-4.0554,-3.9717,-4.1712,-4.3379,-4.4207,-4.2404,-4.2126,-4.3688,-4.1828,-4.1737,-4.3708,-4.3592,-4.3921,-4.4679,-4.4289,-4.3881,-4.3366,-4.3079,-4.2875,-4.2644,-4.2249,-4.2029,-4.1805,-4.1705,-4.1259,-4.0542,-4.0674,-4.0301,-3.9435,-3.7097,-3.6485,-3.6528,0.0,0.0,0.0,0.0,0.0,0.0,0.0,0.0,0.0,0.0,-0.5387,-0.6102,-0.7375,-0.8488,-0.9401,-1.0276,-1.1739,-1.2336,-1.174,-1.1986,0.0,0.0,0.0,0.0,-1.4657,-1.5734,-1.6924,-1.8238,-1.7917,-1.8547,-2.0045,-1.9475,-1.9397,-1.9843,-1.9324,-1.9037,-1.899,-1.9195,-1.9083,-1.8385,-1.3404,-1.2888,-1.4924,0.0,0.0,0.0,0.0,0.0,0.0,0.0,0.0,0.0,0.0,0.0,0.0,0.0,0.0,0.0,0.0,0.0,0.0,0.0,0.0,0.0,0.0,0.0,0.0,0.0,0.0,0.0,0.0,0.0,0.0,0.0,0.0,0.0,-2.6557,-3.2045,-3.5448,-3.37,-4.0398,-4.3764,-4.0138,-4.3217,-4.5046,-4.4146,-4.3419,-4.3062,-4.3201,-4.1335,-4.0404,-4.073,-4.0295,-4.1098,-4.3396,-4.3076,-4.4105,-4.6293,-4.4037,-4.3394,-4.4108,-4.3242,-4.2644,-4.2328,-4.2301,-4.1722,-4.0949,-4.1813,-4.1458,-4.0455,-4.1068,-4.0914,-4.0131,-3.8218,-3.7514,-3.7142,0.0,0.0,0.0,0.0,0.0,0.0,0.0,0.0,0.0,0.0,-0.5377,-0.6503,-0.8047,-0.8603,-0.9409,-1.0768,-1.108,-1.1394,-1.1939,0.0,0.0,0.0,0.0,0.0,-1.6556,-1.6763,-1.7091,-1.7499,-1.7673,-1.7715,-1.7607,-1.7994,-1.8567,-1.9085,-1.754,-1.731,-1.8105,-1.7158,-1.655,-1.609,-1.4269,-1.3361,-1.3043,0.0,0.0,0.0,0.0,0.0,0.0,0.0,0.0,0.0,0.0,0.0,0.0,0.0,0.0,0.0,0.0,0.0,0.0,0.0,0.0,0.0,0.0,0.0,0.0,0.0,0.0,0.0,0.0,0.0,0.0,0.0,0.0,-3.0929,-3.07,-3.5509,-3.936,-3.9906,-4.3712,-4.5622,-4.4249,-4.5623,-4.5628,-4.344,-4.4336,-4.434,-4.2598,-4.2364,-4.24,-4.2865,-4.291,-4.3145,-4.3386,-4.3935,-4.4112,-4.383,-4.3664,-4.3487,-4.3215,-4.3052,-4.2561,-4.2059,-4.1783,-4.1338,-4.088,-4.091,-4.0401,-3.9557,-4.0275,-4.0068,-3.9137,-3.6883,-3.5257,-3.4369,0.0,0.0,0.0,0.0,0.0,0.0,0.0,0.0,0.0,0.0,-0.4757,-0.5744,-0.7061,-0.7588,-0.8197,-0.9221,-0.9398,-0.9642,-1.0198,0.0,0.0,0.0,0.0,-1.3999,-1.6047,-1.5841,-1.6008,-1.6561,-1.6649,-1.6587,-1.6507,-1.6988,-1.746,-1.7811,-1.6507,-1.629,-1.6973,-1.5945,-1.5317,-1.4797,-1.4102,-1.3275,-1.2406,-1.1385,-1.0909,-1.0831,-1.009,-0.9335,-0.8456,-0.7952,0.0,0.0,0.0,0.0,0.0,0.0,0.0,0.0,0.0,0.0,0.0,0.0,0.0,0.0,0.0,0.0,0.0,0.0,0.0,0.0,0.0,0.0,0.0,0.0,-3.2327,-3.523,-3.5892,-3.9017,-4.1941,-4.3578,-4.478,-4.5438,-4.5496,-4.5978,-4.5196,-4.2557,-4.2899,-4.2839,-4.1901,-4.1478,-4.1879,-4.315,-4.295,-4.3075,-4.3584,-4.3692,-4.3616,-4.3267,-4.3362,-4.3226,-4.2873,-4.2629,-4.2277,0.0,-4.1251,-4.0831,-4.0507,-4.0336,-3.9844,0.0,0.0,0.0,0.0,0.0,-3.493,-3.4237,0.0,0.0,0.0,0.0,0.0,0.0,0.0,0.0,0.0,0.0,0.0,-0.4346,-0.5291,-0.6015,-0.6458,-0.6742,-0.7285,-0.763,0.0,0.0,0.0,-1.1112,-1.1458,-1.2376,-1.4007,-1.394,-1.4325,-1.5245,-1.5108,-1.5327,-1.5905,-1.5984,-1.6106,-1.6254,-1.5604,-1.5441,-1.5552,-1.5015,-1.4472,-1.3806,-1.3064,-1.2775,-1.2534,-1.0543,-1.0264,-1.073,-0.8839,-0.8296,-0.8307,-0.7447,0.0,0.0,0.0,0.0,0.0,0.0,0.0,0.0,0.0,0.0,0.0,0.0,0.0,0.0,0.0,0.0,0.0,0.0,0.0,0.0,0.0,0.0,0.0,0.0,-3.6259,-3.9279,-4.1127,-4.2036,-4.3293,-4.5048,-4.4705,-4.4463,-4.498,-4.5092,-4.4136,-4.1853,-4.0703,-4.0313,-4.1188,0.0,0.0,0.0,0.0,-4.2262,-4.3877,-4.3084,-4.3057,-4.3755,-4.3172,-4.2846,-4.2765,-4.2236,-4.1705,-4.121,-4.0809,-4.0323,-4.0009,-3.9996,-3.9591,-3.8865,-3.8891,-3.8175,-3.7087,-3.5917,-3.5453,-3.5353,0.0,0.0,0.0,0.0,0.0,0.0,0.0,0.0,0.0,-0.3121,-0.3305,-0.3754,-0.472,-0.4963,-0.5321,-0.6057,-0.6131,-0.6683,0.0,0.0,-0.9695,-1.0851,-1.1834,-1.2632,-1.3192,-1.3702,-1.3662,-1.2935,-1.3817,-1.3924,-1.3355,-1.3947,-1.4599,-1.5161,-1.3633,-1.3181,-1.3598,-1.2356,-1.1596,-1.1453,-1.1204,-1.1362,-1.1755,-1.0918,-1.0747,-1.097,-1.0364,-0.9437,-0.8357,-0.782,-0.6596,-0.5328,-0.5367,0.0,0.0,0.0,0.0,0.0,0.0,0.0,0.0,0.0,0.0,0.0,0.0,0.0,0.0,0.0,0.0,0.0,0.0,0.0,0.0,-3.5366,-3.8015,-4.0248,-4.1904,-4.2524,-4.3338,-4.4523,-4.5573,-4.6062,-4.5488,-4.4167,-4.3008,-4.2053,-4.22,-4.2005,-4.1287,-4.2098,0.0,-4.3218,-4.3512,-4.3752,-4.4185,-4.3805,-4.366,-4.3755,0.0,0.0,-4.2168,-4.1883,-4.1233,-4.0441,-4.054,-4.0247,-3.9774,-3.9922,-3.9006,-3.7378,-3.6851,-3.5579,-3.4009,-3.4037,-3.4037,-3.4021,0.0,0.0,0.0,0.0,0.0,0.0,0.0,0.0,0.0,0.0,-0.3153,-0.346,-0.401,-0.4267,-0.4401,-0.4543,-0.5039,0.0,0.0,-0.8331,-0.9421,-1.0663,-1.1239,-1.1888,-1.2594,-1.2788,-1.279,-1.2619,-1.2872,-1.2882,-1.257,-1.2562,-1.2619,-1.282,-1.1565,-1.0965,-1.091,-1.0171,-0.978,-0.974,-0.9272,-0.9514,-0.9955,-1.0065,-1.0147,-0.9973,-0.9172,-0.8438,-0.7711,-0.7368,-0.6597,-0.5843,-0.6511,-0.6317,-0.5631,0.0,0.0,0.0,0.0,0.0,0.0,0.0,0.0,0.0,0.0,0.0,0.0,0.0,0.0,-2.487,0.0,0.0,-3.4854,-3.7618,-3.9984,-4.1533,-4.2127,-4.2922,-4.3805,-4.4646,-4.462,-4.4655,-4.5037,-4.3216,-4.1706,-4.0817,-4.1225,-4.1576,-4.1508,-4.2029,-4.2932,-4.4353,-4.4189,-4.4036,-4.4238,-4.3822,-4.3598,-4.3321,-4.2639,-4.2193,-4.1978,-4.1233,-4.0716,-4.0173,-4.0068,-3.9782,-3.9482,-3.9243,-3.8451,-3.7297,-3.6558,-3.5416,-3.4151,-3.4035,-3.4033,-3.4174,0.0,0.0,0.0,0.0,0.0,0.0,0.0,0.0,0.0,0.0,-0.3004,-0.3175,-0.3299,-0.3618,-0.3581,0.0,0.0,0.0,0.0,-0.7864,-0.9076,-1.0723,-1.0704,-1.1129,-1.2092,-1.1948,-1.2092,-1.2542,-1.2012,-1.1847,-1.1836,-1.1036,-1.0432,-1.0133,-0.9415,-0.8922,-0.8503,-0.8438,-0.8332,-0.8293,-0.7764,-0.7813,-0.8125,-0.8745,-0.9026,-0.8899,-0.7704,-0.7226,-0.7082,-0.6926,-0.6556,-0.6592,-0.7799,-0.7372,-0.6409,-0.6279,-0.6606,0.0,0.0,0.0,0.0,0.0,0.0,0.0,0.0,0.0,-2.0247,-2.6291,-2.7527,-2.9519,-3.5994,-3.6407,-3.6674,-3.9272,-4.1128,-4.2153,-4.1918,-4.2983,-4.4036,-4.4606,-4.3532,-4.3036,-4.4041,-4.2562,-4.1062,-3.9931,-4.0383,-4.0955,-4.1606,-4.155,-4.2643,-4.4998,-4.4086,-4.3854,-4.4575,-4.3883,-4.3493,-4.3392,-4.2407,-4.1935,-4.1802,-4.1012,-4.0495,-4.016,-3.985,-3.9578,-3.9353,-3.9125,-3.845,-3.7651,-3.7224,-3.647,-3.5523,-3.4628,-3.4376,-3.4451,0.0,0.0,0.0,0.0,0.0,0.0,0.0,0.0,0.0,0.0,0.0,0.0,0.0,0.0,0.0,0.0,0.0,0.0,-0.7297,-0.7929,-0.9219,-1.1414,-1.1008,-1.0947,-1.1343,-1.1843,-1.1843,-1.1109,-1.1117,-1.0445,-0.9133,-0.8521,-0.8167,-0.8002,-0.7284,-0.7232,-0.7604,-0.728,-0.7162,-0.7063,-0.7119,-0.7227,-0.7285,-0.7426,-0.7987,-0.8564,-0.7985,-0.7544,-0.7184,-0.6897,-0.6799,-0.7041,-0.7547,-0.755,-0.7176,-0.6293,0.0,-0.5767,-0.4856,-0.6966,-1.0495,-1.5063,-1.6888,-1.9393,0.0,0.0,-2.7464,-3.1524,-3.3807,-3.5348,-3.6473,-3.7358,-3.8406,-3.9942,-4.0165,-4.0505,-4.1365,-4.2107,-4.291,-4.3696,-4.4447,-4.4258,-4.262,-4.2364,-4.1975,-4.0937,-4.1914,-4.2252,-4.1336,-4.1986,-4.3036,-4.4266,-4.3019,-4.3668,-4.6206,-4.4394,-4.3949,-4.5048,-4.3443,-4.2263,-4.1232,-4.2052,-4.164,-4.0278,-4.0797,-4.0479,-3.9686,-4.0575,-3.9657,-3.7704,-3.8591,-3.8201,-3.6765,-3.5182,-3.4248,-3.3746,0.0,0.0,0.0,0.0,0.0,0.0,0.0,0.0,0.0,0.0,0.0,0.0,0.0,0.0,0.0,0.0,0.0,0.0,-0.7491,-0.9108,-1.0785,-1.2594,-1.2474,-1.2266,-1.2048,-1.2424,-1.2209,-1.1282,-1.0712,-0.9948,-0.9044,-0.7899,-0.6975,-0.6298,-0.6245,-0.592,-0.5322,-0.5605,-0.5686,-0.5438,-0.4488,-0.4062,-0.4012,-0.39,-0.4323,-0.5077,-0.6155,-0.6076,0.0,0.0,-0.594,-0.6391,-0.6988,-0.7298,-0.7315,-0.6506,-0.6898,0.0,-0.9712,-1.1186,-1.3004,0.0,-1.846,-2.1239,-2.6037,-2.7212,-2.8507,-3.287,-3.405,-3.458,-3.5735,-3.6386,-3.7531,0.0,-3.9709,-4.0011,-4.0868,-4.1381,-4.1674,-4.1739,-4.2859,-4.3551,-4.3435,-4.28,-4.24,-4.2162,-4.2401,-4.2486,-4.2448,-4.2935,-4.3127,-4.3034,-4.2929,-4.3264,-4.3921,-4.4367,-4.4298,-4.3854,-4.2245,-4.1734,-4.2052,-4.1796,-4.1674,-4.1585,-4.1463,-4.1257,-4.1075,-4.1352,-4.0589,-3.9268,-4.0176,-3.977,-3.8452,-3.5843,-3.4632,-3.4196,0.0,0.0,0.0,0.0,0.0,0.0,0.0,0.0,0.0,0.0,0.0,0.0,0.0,0.0,0.0,0.0,0.0,0.0,0.0,-0.9577,-1.1565,-1.3571,-1.3667,-1.3393,-1.2746,-1.2723,-1.2177,-1.1061,-1.0053,-0.9216,-0.8567,-0.7075,-0.588,-0.5152,-0.5179,-0.4502,-0.3369,-0.3842,-0.3871,-0.3358,-0.2149,-0.1677,-0.1607,-0.1363,-0.1324,-0.1757,-0.3865,-0.4392,0.0,0.0,-0.4959,-0.566,-0.6059,-0.6523,-0.6668,-0.6009,-0.6617,-0.8353,-1.1986,-1.3487,-1.4583,-1.7201,-2.023,-2.3153,-2.5803,-2.7548,-2.9551,-3.3121,-3.3256,-3.3317,-3.4923,-3.5243,-3.609,-3.8309,-3.9015,-3.9592,-4.0607,-4.0925,-4.0821,-4.0343,-4.1426,-4.241,-4.2941,-4.267,-4.2386,-4.2263,-4.2248,-4.2511,-4.2986,-4.3135,-4.2904,-4.2307,-4.28,-4.2693,-4.215,-4.3748,-4.4027,-4.3133,-4.195,-4.1882,-4.2861,-4.2091,-4.2111,-4.2856,-4.2375,-4.1992,-4.1809,-4.2038,-4.1454,-4.0539,-4.1284,-4.0912,-3.9673,-3.6939,-3.5489,-3.4792,0.0,0.0,0.0,0.0,0.0,0.0,0.0,0.0,0.0,0.0,0.0,0.0,0.0,0.0,0.0,0.0,0.0,0.0,0.0,-0.87,-1.0691,-1.4196,-1.4122,-1.376,-1.3164,-1.2432,-1.1323,-0.9916,-0.8902,-0.7736,-0.6464,-0.5328,-0.4724,-0.4569,-0.3755,-0.293,-0.225,-0.2307,-0.1655,-0.0601,-0.087,-0.1071,-0.12,-0.0848,-0.0,0.0646,-0.1697,0.0,0.0,0.0,-0.405,-0.5073,-0.4926,-0.4983,0.0,-0.4428,-0.4094,-0.4731,-0.8607,-1.1372,-1.4321,-1.9216,-2.3159,-2.6543,-2.8721,-3.07,-3.2303,-3.2735,-3.2623,-3.2865,-3.4403,-3.4245,-3.4662,-3.7019,-3.7881,-3.8908,-4.0491,-4.0715,-4.0621,-4.0074,-4.0898,-4.094,0.0,-4.1149,-4.1651,-4.056,-4.1531,-4.217,-4.2157,-4.2182,-4.2275,-4.2514,-4.2022,-4.1828,-4.2087,-4.2419,-4.3034,-4.3848,-4.3575,-4.3537,-4.3441,-4.3413,-4.3513,-4.3574,-4.3458,-4.2682,-4.1551,-4.3011,-4.2432,-4.0607,-4.1913,-4.1517,-4.0177,-3.8432,-3.6756,-3.5391,0.0,0.0,0.0,0.0,0.0,0.0,0.0,0.0,0.0,0.0,0.0,0.0,0.0,0.0,0.0,0.0,0.0,0.0,0.0,-0.9116,-1.1202,-1.2633,-1.3625,-1.3673,-1.2418,-1.2101,-1.1045,-0.9131,-0.8218,-0.7035,-0.5657,-0.4846,-0.3919,-0.2842,-0.1743,-0.0848,0.0095,0.1383,0.2026,0.2251,0.2396,0.2985,0.3696,0.2635,0.3047,0.3972,0.0,0.0,0.0,0.0,-0.1812,-0.2435,-0.2608,-0.3181,-0.3896,-0.4167,-0.6044,-0.8786,-1.2157,-1.5944,-1.9739,-2.3502,-2.6114,-2.8115,-2.9682,-3.0716,-3.1063,-3.0263,-2.9921,-2.9748,-2.955,-2.9889,-3.1369,-3.491,-3.496,-3.5853,-3.9534,-3.9844,-3.9734,-3.9888,-4.1266,0.0,0.0,0.0,0.0,-4.1814,-4.2149,-4.2515,-4.296,-4.2995,-4.2942,-4.2844,-4.2834,-4.3061,-4.326,-4.3566,-4.384,-4.423,-4.4397,-4.421,-4.3664,-4.4657,-4.4827,-4.4457,-4.4124,-4.3718,-4.3155,-4.3361,-4.268,-4.1666,-4.2596,-4.249,-4.1666,-4.1222,-4.0732,-3.9907,0.0,0.0,0.0,0.0,0.0,0.0,0.0,0.0,0.0,0.0,0.0,0.0,0.0,0.0,0.0,0.0,0.0,0.0,0.0,0.0,-0.9773,-1.0646,-1.1606,-1.155,-1.0377,-0.9801,-0.856,-0.67,-0.6291,-0.5427,-0.4263,-0.3568,-0.2728,-0.1724,-0.0642,0.066,0.2275,0.4219,0.4696,0.4312,0.4884,0.5603,0.6236,0.5177,0.5238,0.0,0.0,0.0,0.0,0.0,0.0367,-0.0074,-0.0926,-0.1711,-0.2812,-0.5758,-0.791,-1.0414,-1.5532,-1.9548,-2.3085,-2.63,-2.8147,-2.9247,-2.9798,-3.0046,-2.9792,-2.8581,-2.7594,-2.6943,-2.6287,-2.6885,-2.8646,-3.24,-3.2823,-3.4031,-3.828,-3.8395,-3.8512,-3.9532,-4.1065,-4.1487,0.0,0.0,0.0,-4.2036,-4.2276,-4.2739,-4.3399,-4.352,-4.3546,-4.3584,-4.4037,-4.433,-4.4249,-4.4713,-4.5052,-4.5016,-4.5195,-4.5006,-4.4561,-4.5454,-4.5607,-4.4952,-4.4414,-4.402,-4.3687,-4.3434,-4.2894,-4.2315,-4.3098,-4.2992,-4.2438,-4.2119,-4.2119,-4.1989,0.0,0.0,0.0,0.0,0.0,0.0,0.0,0.0,0.0,0.0,0.0,0.0,0.0,0.0,0.0,0.0,0.0,0.0,0.0,0.0,0.0,-0.8434,-0.8207,-0.7701,-0.7108,-0.5678,-0.433,-0.3109,-0.3309,-0.2993,-0.2252,-0.1565,-0.1302,-0.1153,-0.0182,0.1689,0.4182,0.6087,0.6328,0.5652,0.6499,0.6646,0.6346,0.6576,0.0,0.0,0.0,0.0,0.0,0.0,0.1994,0.1348,-0.0472,-0.1149,-0.2453,-0.9168,-0.9796,-1.01,-1.8531,-2.218,-2.4414,-2.7794,-2.9442,-3.0076,-2.9288,-2.9146,-2.8705,-2.7323,-2.5535,-2.4287,0.0,0.0,-2.6441,-2.9712,-3.1427,-3.3482,-3.6758,-3.695,-3.7475,0.0,0.0,0.0,0.0,0.0,0.0,-4.1591,0.0,-4.2838,-4.3404,-4.3629,-4.3986,-4.4542,-4.5382,-4.5484,-4.4843,-4.5747,-4.6271,-4.6189,-4.6003,-4.588,-4.588,-4.588,-4.5681,-4.5084,-4.4457,-4.3816,-4.3343,-4.3343,-4.2992,-4.2591,-4.3343,-4.3219,-4.2357,-4.1244,-4.1185,-4.1642,0.0,0.0,0.0,0.0,0.0,0.0,0.0,0.0,0.0,0.0,0.0,0.0,0.0,0.0,0.0,0.0,0.0,0.0,0.0,0.0,0.0,0.0,0.0,0.0,0.0,0.0,0.0,-0.1994,-0.1874,-0.1262,-0.0275,-0.0072,0.0523,0.1536,0.2721,0.3727,0.4681,0.6583,0.72,0.6954,0.0,0.7342,0.8073,0.0,0.0,0.0,0.0,0.0,0.0,0.0,0.0,-0.4626,-0.8036,-0.963,-1.0797,-1.3493,-1.5952,-1.8638,-2.2102,-2.5972,-2.9349,-3.0603,-3.0799,-3.0491,-2.9574,-2.8553,-2.6812,-2.2931,-2.1853,-2.1259,0.0,0.0,0.0,-2.803,-3.0397,0.0,-3.6909,-3.8404,0.0,-4.0997,0.0,-4.4259,-4.3688,-4.5184,0.0,0.0,-4.4111,-4.3751,-4.3547,-4.3791,-4.411,-4.4399,-4.5247,-4.5482,-4.4996,-4.5631,-4.6059,-4.6095,-4.6018,-4.5985,-4.6179,-4.6179,-4.5625,-4.4799,-4.5253,-4.4752,-4.3622,-4.3773,-4.367,-4.3343,-4.3145,-4.3012,-4.2752,-4.1981,-4.1799,-4.1927,0.0,0.0,0.0,0.0,0.0,0.0,0.0,0.0,0.0,0.0,0.0,0.0,0.0,0.0,0.0,0.0,0.0,0.0,0.0,0.0,0.0,0.0,0.0,0.0,0.0,0.0,0.0,0.0,0.0,0.0,0.1414,0.1425,0.1904,0.2827,0.3845,0.4611,0.5234,0.663,0.0,0.0,0.0,0.0,0.0,0.0,0.0,0.0,0.0,0.0,0.0,0.0,0.0,-0.904,-1.7342,-1.6953,-1.459,-2.0216,0.0,-2.2585,-2.5777,-2.8616,-3.0721,-3.1005,-3.0691,-2.961,-2.6688,-2.5494,-2.3636,-1.9073,-1.7806,0.0,-1.7401,-2.0131,0.0,0.0,0.0,0.0,-3.702,-3.8512,-3.996,0.0,-4.3991,0.0,-4.5415,-4.7051,-4.7882,0.0,-4.6182,-4.5393,-4.4826,-4.501,-4.5253,-4.5293,-4.5865,-4.6177,-4.6325,-4.6065,-4.6152,-4.6741,-4.6305,-4.6164,-4.6476,-4.6447,-4.6109,-4.5489,0.0,-4.5132,-4.4089,-4.4042,-4.376,-4.3382,-4.3123,-4.2942,-4.2619,-4.1993,-4.1915,-4.203,0.0,0.0,0.0,0.0,0.0,0.0,0.0,0.0,0.0,0.0,-0.0399,0.0,0.0,0.0,0.0,0.0,0.0,0.0,0.0,0.0,0.0,0.0,0.0,0.0,0.0,0.0,0.0,0.0,0.0,0.0,0.0,0.0,0.0,0.0,0.0,0.0,0.0,0.0,0.0,0.0,0.0,0.0,0.0,0.0,0.0,0.0,0.0,0.0,0.0,0.0,-1.1877,-1.2953,-2.5552,-2.2855,-1.6992,-2.6886,-2.654,-2.3988,-2.8553,-2.9982,-3.0064,-2.9981,-2.9851,-2.8326,-2.2943,-2.1784,-2.0522,-1.5771,0.0,-1.3983,-1.5827,-1.9188,-2.2415,-2.4427,0.0,-3.4924,-3.6866,-3.8167,-3.9891,-4.2539,-4.4024,-4.5372,-4.6717,-4.8637,-4.9521,-4.9014,-4.8189,-4.7416,-4.6636,-4.6623,-4.6564,-4.6491,-4.6646,-4.6969,-4.7614,-4.6523,-4.65,-4.746,-4.6651,-4.6432,-4.6786,-4.6712,-4.6638,-4.652,0.0,0.0,-4.4526,-4.4146,-4.3604,-4.3076,-4.325,-4.2985,-4.2402,-4.1654,-4.1848,-4.2207,0.0,0.0,0.0,0.0,0.0,0.0,0.0,0.0,0.0,0.0,0.1751,0.0763,0.0,0.0,0.0,0.0,0.0,0.0,0.0,0.0,0.0,0.0,0.0,0.0,0.0,0.0,0.0,0.0,0.0,0.0,0.0,0.0,0.0,0.0,0.0,0.0,0.0,0.0,0.0,0.0,0.0,0.0,0.0,0.0,0.0,0.0,0.0,0.0,0.0,0.0,-1.7208,-1.8845,-2.4085,-2.4946,-2.4389,-2.6743,-2.6886,-2.6553,-2.7683,-2.8572,-2.9171,-2.8926,-2.9062,-2.7936,-2.321,-2.2294,0.0,0.0,-1.2674,-1.3236,-1.278,-1.4987,-1.8638,-2.3982,-2.8656,-3.2698,-3.6055,-3.9261,-4.173,0.0,0.0,0.0,0.0,0.0,0.0,0.0,0.0,-4.9467,-4.7874,-4.7257,-4.6798,-4.6284,-4.6327,-4.634,-4.6456,-4.652,-4.6579,-4.6801,-4.6579,-4.6683,-4.6858,-4.6844,-4.6649,-4.6316,0.0,0.0,-4.4318,-4.428,-4.3847,-4.325,-4.325,-4.3269,-4.3015,-4.1818,-4.2147,-4.288,0.0,0.0,0.0,0.0,0.0,0.0,0.0,0.351,0.3611,0.3845,0.2895,0.215,0.1998,0.1286,0.0897,0.0,0.0,0.0,0.0,0.0,0.0,0.0,0.0,0.0,0.0,0.0,0.0,0.0,0.0,0.0,0.0,0.0,0.0,0.0,0.0,0.0,0.0,0.0,0.0,0.0,0.0,0.0,0.0,0.0,0.0,0.0,0.0,0.0,0.0,0.0,-1.63,-2.0071,-2.4317,-2.5553,-2.5774,-2.7112,-2.7178,-2.693,-2.7218,-2.7308,-2.738,-2.7779,-2.751,-2.5716,-1.9998,0.0,0.0,0.0,-0.9834,-1.1022,-1.0993,-1.4503,0.0,-1.9829,-2.6688,-3.2978,-3.6137,-3.9182,0.0,-4.3453,0.0,0.0,0.0,0.0,0.0,0.0,0.0,-4.9717,-4.8906,-4.8296,-4.7689,-4.6974,-4.6565,-4.6417,-4.655,-4.6609,-4.6668,-4.6726,-4.6741,-4.6636,-4.6438,-4.6927,-4.6849,-4.6322,-4.6322,0.0,-4.4796,-4.4451,-4.3928,-4.3329,-4.3329,-4.3319,-4.3172,-4.2269,-4.2073,-4.2132,0.0,0.0,0.0,0.0,0.0,0.0,0.0,0.3992,0.4013,0.4075,0.3609,0.3222,0.3106,0.2348,0.2018,0.0,0.0,0.0,0.0,0.0,0.0,0.0,0.0,0.0,0.0,0.0,0.0,0.0,0.0,0.0,0.0,0.0,0.0,0.0,0.0,0.0,0.0,0.0,0.0,0.0,0.0,0.0,0.0,0.0,0.0,0.0,0.0,0.0,0.0,0.0,-1.2956,-1.7565,-2.2685,-2.3967,-2.3799,-2.5017,-2.5225,-2.5252,-2.5714,-2.5732,-2.5674,-2.634,-2.5819,-2.3491,-1.6723,-1.5831,0.0,-0.7435,-0.77,-0.9401,-1.0166,-1.4393,-1.7352,0.0,-2.4433,-3.2338,-3.5993,-3.87,-4.1247,0.0,0.0,0.0,0.0,0.0,0.0,0.0,0.0,0.0,-4.9245,-4.9015,-4.8414,-4.7437,-4.6929,-4.6697,-4.6845,-4.68,-4.677,-4.6679,-4.6795,-4.6423,-4.5893,-4.6591,-4.6591,-4.6097,-4.5948,0.0,0.0,-4.4377,-4.3808,-4.3329,-4.3329,-4.3274,-4.3253,-4.2599,-4.2194,-4.1775,0.0,0.0,0.0,0.0,0.0,0.0,0.0,0.3772,0.408,0.4251,0.3974,0.3868,0.4278,0.3016,0.235,0.0,0.0,0.0,0.0,0.0,0.0,0.0,0.0,0.0,0.0,0.0,0.0,0.0,0.0,0.0,0.0,0.0,0.0,0.0,0.0,0.0,0.0,0.0,0.0,0.0,0.0,0.0,0.0,0.0,0.0,0.0,0.0,0.0,0.0,0.0,0.0,-1.0147,-1.5634,-1.8276,-1.899,-1.696,0.0,0.0,-2.1374,-2.3285,-2.4976,-2.418,-2.4359,-2.2915,-1.6047,0.0,-1.4992,-0.7841,-0.8364,-1.0218,-1.0598,-1.2381,-1.4473,-1.6408,0.0,-2.7992,-3.4298,-3.8019,-4.0831,-4.2698,0.0,0.0,0.0,0.0,0.0,0.0,0.0,0.0,0.0,-4.8749,-4.8266,-4.6796,-4.6834,-4.6829,-4.6799,-4.7106,-4.6924,-4.6326,-4.6326,-4.6052,-4.5379,-4.5454,-4.5454,-4.5364,-4.4766,0.0,0.0,-4.3688,-4.3389,-4.3329,-4.3329,-4.3314,-4.3225,-4.2596,-4.2872,-4.3235,0.0,0.0,0.0,0.0,0.0,0.0,0.2981,0.3227,0.3479,0.3691,0.3357,0.3281,0.3892,0.3461,0.335,0.3796,0.0,0.0,0.0,0.0,0.0,0.0,0.0,0.0,0.0,0.0,0.0,0.0,0.0,0.0,0.0,0.0,0.0,0.0,0.0,0.0,0.0,0.0,0.0,0.0,0.0,0.0,0.0,0.0,0.0,0.0,0.0,0.0,0.0,0.0,0.0,0.0,-0.7329,-1.0077,0.0,0.0,-1.7272,-1.8567,-2.0842,-2.2601,-2.402,-2.4782,-2.3149,-2.0525,-1.726,0.0,-1.3481,-0.8747,-0.9607,-1.1163,-1.0845,-1.2317,-1.466,-1.8045,0.0,0.0,-3.03,0.0,-3.7437,0.0,0.0,0.0,0.0,0.0,0.0,0.0,0.0,0.0,0.0,-4.8104,-4.8263,-4.7858,-4.6991,-4.647,-4.6304,-4.6162,-4.6122,-4.6115,-4.6115,-4.5394,-4.4132,-4.4691,-4.4863,-4.4691,-4.4421,0.0,0.0,-4.3599,-4.3329,-4.3329,-4.3329,-4.3329,-4.3299,-4.3045,-4.2965,-4.2803,0.0,0.0,0.0,0.0,0.0,0.2286,0.2278,0.244,0.2632,0.2823,0.2603,0.2748,0.345,0.3627,0.4018,0.4629,0.4445,0.0,0.0,0.0,0.0,0.0,0.0,0.0,0.0,0.0,0.0,0.0,0.0,0.0,0.0,0.0,0.0,0.0,0.0,0.0,0.0,0.0,0.0,0.0,0.0,0.0,0.0,0.0,0.0,0.0,0.0,0.0,0.0,0.0,0.0,0.0,0.0,0.0,0.0,0.0,-1.4891,-1.6715,-1.9383,-2.1653,-2.3519,-2.4594,-2.198,-1.8693,0.0,0.0,-1.2249,-0.9323,-1.019,-1.1447,-1.1113,-1.2404,-1.4799,0.0,0.0,-2.2663,-2.7988,-3.1658,0.0,0.0,0.0,0.0,0.0,0.0,0.0,0.0,0.0,0.0,0.0,-4.7493,-4.7967,-4.8074,-4.6901,-4.6179,-4.5995,-4.5552,-4.5372,-4.5455,-4.5582,-4.4832,-4.3307,-4.3953,-4.4116,-4.3733,0.0,0.0,0.0,-4.3034,-4.2959,-4.3109,-4.2977,-4.3022,-4.3187,-4.2914,-4.262,-4.2272,0.0,0.0,0.0,0.0,0.0,0.0,0.1261,0.1414,0.159,0.1808,0.1978,0.2424,0.3231,0.3463,0.4015,0.5014,0.4959,0.0,0.0,0.0,0.0,0.0,0.0,0.0,0.0,0.0,0.2725,0.2691,0.2579,0.2393,0.0,0.0,0.0,0.0,0.0,0.0,0.0,0.0,0.0,0.0,0.0,0.0,0.0,0.0,0.0,0.0,0.0,0.0,0.0,0.0,0.0,0.0,0.0,0.0,0.0,0.0,-0.9766,-1.4936,-1.6034,-1.9862,-2.3434,-2.3143,-2.0941,-1.8062,0.0,-1.3616,-1.196,-0.9264,-0.9696,-1.0771,-1.1401,-1.2361,-1.431,-1.8011,-2.0812,0.0,-2.8366,-3.1179,0.0,0.0,0.0,0.0,0.0,0.0,0.0,0.0,0.0,0.0,0.0,-4.7163,-4.7195,-4.6961,-4.6641,-4.6321,-4.5894,-4.5462,-4.4975,-4.4332,-4.4578,-4.4218,-4.3344,-4.3344,-4.3,0.0,0.0,0.0,0.0,-4.1656,-4.2123,-4.2635,-4.2077,-4.2379,-4.2925,-4.2047,-4.194,-4.2206,0.0,0.0,0.0,0.0,0.0,0.0,0.0,0.0573,0.0696,0.0868,0.1322,0.1652,0.1762,0.2598,0.3461,0.429,0.4779,0.0,0.0,0.0,0.0,0.0,0.0,0.0,0.0,0.0,0.2749,0.2434,0.2266,0.214,0.2109,0.1466,0.0,0.0,0.0,0.0,0.0,0.0,0.0,0.0,0.0,0.0,0.0,0.0,0.0,0.0,0.0,0.0,0.0,0.0,0.0,0.0,0.0,0.0,0.0,-0.6289,-0.8439,0.0,-1.2719,-1.5284,-1.7518,-1.7608,-1.571,-1.3939,-1.4093,-1.2366,-1.0614,-1.0157,-1.0668,-1.1232,-1.1363,-1.254,-1.4699,-1.8281,-2.0388,0.0,0.0,0.0,0.0,0.0,0.0,0.0,0.0,0.0,0.0,0.0,0.0,0.0,0.0,-4.7008,-4.7144,-4.7365,-4.6312,-4.5741,-4.5631,-4.4539,-4.3853,-4.3643,-4.2812,-4.2499,-4.2641,-4.1858,0.0,0.0,0.0,0.0,0.0,-4.1626,-4.1836,-4.2002,-4.1955,-4.1925,-4.1941,-4.185,-4.1397,-4.0867,0.0,0.0,0.0,0.0,0.0,0.0,0.0,-0.0383,-0.0093,0.0484,0.0641,0.0806,0.1095,0.1569,0.2319,0.3388,0.4178,0.0,0.0,0.0,0.0,0.0,0.0,0.0,0.0,0.2973,0.283,0.231,0.2037,0.1736,0.1457,0.0841,0.0401,0.0059,0.0,0.0,0.0,0.0,0.0,0.0,0.0,0.0,-0.607,0.0,0.0,0.0,0.0,0.0,0.0,0.0,0.0,0.0,0.0,0.0,0.0,0.0,-0.7946,-0.895,-1.1037,-1.3402,-1.5219,-1.5245,-1.3549,0.0,0.0,-1.1644,-1.0238,-1.0919,-1.1675,-1.2273,-1.2552,-1.3498,-1.5298,-1.8539,-2.0907,0.0,0.0,0.0,0.0,0.0,0.0,0.0,0.0,0.0,0.0,0.0,0.0,0.0,0.0,0.0,-4.6088,-4.5731,-4.5469,-4.5206,-4.5093,-4.3561,-4.2884,-4.2955,-4.1903,-4.1605,-4.1968,-4.1128,0.0,0.0,0.0,0.0,0.0,-4.0932,-4.1081,-4.1142,-4.1313,-4.1446,-4.1495,-4.1271,-4.0758,-4.0273,0.0,0.0,0.0,0.0,0.0,0.0,0.0,-0.1321,-0.0774,0.04,-0.0,-0.0053,0.0937,0.0553,0.0828,0.2375,0.3209,0.0,0.0,0.0,0.0,0.0,0.0,0.0,0.0,0.3137,0.2972,0.2294,0.1737,0.1065,0.028,-0.0056,-0.0395,-0.0852,-0.1199,0.0,0.0,0.0,0.0,0.0,0.0,0.0,0.0,0.0,0.0,0.0,0.0,0.0,0.0,0.0,0.0,0.0,0.0,0.0,0.0,0.0,0.0,0.0,0.0,-1.3455,-1.5455,-1.5033,-1.3505,-1.2158,-1.2248,-1.1395,0.0,-1.1533,-1.2633,-1.3747,-1.466,-1.5114,-1.6194,-1.8826,-2.2091,0.0,0.0,0.0,0.0,0.0,0.0,0.0,0.0,0.0,0.0,0.0,0.0,0.0,0.0,0.0,-4.4334,-4.2654,-4.4038,-4.4693,-4.4476,-4.2801,-4.2061,-4.2267,-4.1594,-4.128,-4.1294,-4.0845,0.0,0.0,0.0,0.0,0.0,-3.9809,-4.0046,-4.0198,-4.0408,-4.094,-4.1377,-4.038,-4.0137,-4.0207,0.0,0.0,0.0,0.0,0.0,0.0,0.0,0.0,0.0,0.0,-0.0535,-0.0441,-0.0544,-0.0198,0.025,0.0,0.0,0.0,0.0,0.0,0.0,0.0,0.0,0.0,0.0,0.3799,0.2843,0.1111,0.0628,-0.0116,-0.1098,-0.1839,-0.2436,-0.2869,-0.2531,-0.2789,0.0,0.0,0.0,0.0,0.0,0.0,0.0,0.0,0.0,0.0,-0.783,-0.7741,0.0,0.0,0.0,0.0,0.0,0.0,0.0,0.0,-0.95,-1.0204,-1.0599,0.0,-1.0593,-1.0524,-1.0473,-1.0567,0.0,0.0,0.0,0.0,0.0,-1.4456,-1.588,-1.6892,-1.8007,-1.9637,-2.1769,-2.4635,0.0,0.0,0.0,0.0,0.0,0.0,0.0,0.0,0.0,0.0,0.0,0.0,0.0,0.0,-4.3025,-4.2621,-4.2476,-4.2905,-4.3874,-4.2345,-4.1383,-4.1062,-4.0293,-4.0115,-4.0606,-3.9964,0.0,0.0,0.0,0.0,-3.9651,-3.991,-4.0081,-4.0237,-4.0401,-4.0477,-4.053,-4.0323,-4.0051,-3.9839,0.0,0.0,0.0,0.0,0.0,0.0,0.0,0.0,0.0,0.0,0.0,-0.0903,-0.0703,-0.0602,0.0,0.0,0.0,0.0,0.0,0.0,0.0,0.0,0.0,0.0,0.4079,0.295,0.1507,-0.0283,-0.0909,-0.1906,-0.3205,-0.3463,-0.3785,-0.4153,-0.3763,-0.4059,0.0,0.0,0.0,0.0,-0.8915,0.0,0.0,0.0,0.0,0.0,-0.8722,-0.8337,0.0,-0.7614,-0.7576,-0.7864,0.0,0.0,0.0,0.0,-1.0569,-1.1389,-1.1733,-1.1032,-1.0224,-1.0231,-1.0535,-1.0934,-1.1174,0.0,0.0,0.0,0.0,-1.6434,-1.778,-1.9778,-2.1194,-2.1048,-2.3982,0.0,0.0,0.0,0.0,0.0,0.0,0.0,0.0,0.0,0.0,0.0,0.0,0.0,0.0,-4.2622,-4.2621,-4.2571,-4.2254,-4.2271,-4.2794,-4.1142,-4.0367,-4.0576,-3.9787,-3.9593,-3.9933,-3.9589,-3.9379,0.0,0.0,0.0,-3.9834,-3.998,-4.0121,-4.0301,-4.0261,-4.0246,-4.0246,-4.0051,-3.991,-3.961,0.0,0.0,0.0,0.0,0.0,0.0,0.0,0.0,0.0,0.0,0.0,0.0,0.0,0.0,0.0,0.0,0.0,0.0,0.0,0.0,0.0,0.0,0.0,0.306,0.2839,0.1217,-0.0392,-0.1963,-0.2776,-0.4047,-0.5619,-0.5162,-0.5065,-0.5243,-0.506,-0.541,0.0,0.0,0.0,0.0,-0.9856,0.0,0.0,0.0,0.0,0.0,0.0,0.0,0.0,-0.7593,-0.7752,-0.8047,-0.748,0.0,0.0,0.0,0.0,0.0,-1.3211,-1.3292,-1.3009,-1.2557,-1.2686,-1.2951,-1.2889,0.0,0.0,0.0,0.0,0.0,-2.0119,-2.2649,0.0,0.0,0.0,0.0,0.0,0.0,0.0,0.0,0.0,0.0,0.0,0.0,0.0,0.0,0.0,0.0,0.0,-4.2634,-4.2634,-4.2634,-4.2575,-4.2359,-4.1825,-4.0117,-3.9647,-4.0424,-3.9709,-3.9424,-3.9424,-3.9424,-3.9421,0.0,0.0,0.0,-3.9984,-3.995,-4.0121,-4.0385,-4.0121,-4.0051,-4.0106,-3.9824,-3.961,-3.9322,0.0,0.0,0.0,0.0,0.0,0.0,0.0,0.0,0.0,0.0,0.0,0.0,0.0,0.0,0.0,0.0,0.0,0.0,0.0,0.0,0.0,0.0,-0.0108,0.055,-0.0545,-0.0927,-0.2273,-0.4599,-0.518,-0.6194,-0.7511,-0.7545,-0.7356,-0.6906,-0.6554,-0.6463,-0.6648,0.0,0.0,0.0,0.0,0.0,0.0,0.0,0.0,0.0,0.0,0.0,0.0,-0.7633,-0.7934,-0.8091,-0.7698,0.0,0.0,0.0,0.0,0.0,-1.344,-1.6304,-1.8477,-1.6388,-1.6539,-1.7194,-1.6978,0.0,0.0,0.0,0.0,0.0,0.0,-2.3299,-2.3951,0.0,0.0,0.0,0.0,0.0,0.0,0.0,0.0,0.0,0.0,0.0,0.0,0.0,0.0,0.0,0.0,0.0,-4.2634,-4.2634,-4.2619,-4.2398,-4.2043,-4.0898,-4.0314,-4.0517,-3.976,-3.9481,-3.961,-3.961,-3.9768,0.0,0.0,-3.9824,-3.998,-3.9839,-3.9809,-3.9905,-3.998,-3.9793,-3.9546,-3.9651,-3.9162,-3.8263,0.0,0.0,0.0,0.0,0.0,0.0,0.0,0.0,0.0,0.0,0.0,0.0,0.0,0.0,0.0,0.0,0.0,0.0,0.0,0.0,0.0,-0.6347,-0.5072,-0.3957,-0.3181,-0.4009,-0.5784,-0.8469,-0.8041,-0.8574,-0.9991,-0.9497,-0.8983,-0.845,-0.7815,-0.7506,-0.7558,-0.8236,0.0,0.0,0.0,0.0,0.0,0.0,0.0,0.0,0.0,0.0,0.0,0.0,-0.831,-0.8683,-0.8496,0.0,0.0,0.0,0.0,0.0,-1.4226,-1.6839,-1.9466,-1.9986,-2.1326,-2.2458,-2.2147,0.0,0.0,0.0,0.0,0.0,0.0,0.0,0.0,0.0,0.0,0.0,0.0,0.0,0.0,0.0,0.0,0.0,0.0,0.0,0.0,0.0,0.0,0.0,0.0,0.0,-4.2634,-4.2634,-4.2696,-4.2696,-4.2508,-4.1472,-4.0792,-4.0493,-3.9869,-3.9429,-3.9154,-3.9561,-3.9619,-3.936,0.0,-3.8918,-3.8675,-3.862,-3.8666,-3.8819,-3.9073,-3.9124,-3.8983,-3.8941,-3.8397,-3.7462,0.0,0.0,0.0,0.0,0.0,0.0,0.0,0.0,0.0,0.0,0.0,0.0,0.0,0.0,0.0,0.0,0.0,0.0,0.0,0.0,-0.8432,-0.9137,-0.9189,-0.8311,-0.6271,-0.7145,-0.8889,-1.1526,-1.0616,-1.0842,-1.202,-1.1121,-1.0438,-0.9901,-0.9,-0.8584,-0.8555,-0.9064,-0.9225,-0.9246,0.0,0.0,0.0,0.0,0.0,0.0,0.0,0.0,0.0,0.0,0.0,0.0,0.0,0.0,0.0,-1.213,-1.3037,-1.4169,-1.4928,-1.7182,-1.9885,-2.236,0.0,0.0,0.0,0.0,0.0,0.0,0.0,0.0,0.0,0.0,0.0,0.0,0.0,0.0,0.0,0.0,0.0,0.0,0.0,0.0,0.0,0.0,0.0,0.0,0.0,0.0,0.0,0.0,-4.2634,-4.2634,-4.2613,-4.2655,-4.27,-4.1564,-4.0919,-4.0684,-3.995,-3.935,-3.8786,-3.9497,-3.9397,-3.8637,-3.8421,-3.7977,-3.7591,-3.7782,-3.7843,-3.7903,-3.8457,-3.8717,-3.8777,-3.8148,-3.7539,-3.6972,0.0,0.0,0.0,0.0,0.0,0.0,0.0,0.0,0.0,0.0,0.0,0.0,0.0,0.0,0.0,0.0,0.0,0.0,0.0,0.0,-0.76,-0.9456,-1.0778,-1.1248,-1.0722,-0.9902,-1.0487,-1.2381,-1.2489,-1.2629,-1.2704,-1.2451,-1.1903,-1.1108,-1.0275,-0.9691,-0.943,-0.9326,-0.946,-0.9773,-1.0548,0.0,0.0,0.0,0.0,0.0,0.0,0.0,0.0,0.0,0.0,0.0,0.0,0.0,-1.1792,-1.2686,-1.3126,-1.3706,-1.5221,-1.8602,-2.179,-2.2371,-2.3269,0.0,-2.8088,-2.7448,0.0,-2.8751,0.0,0.0,0.0,0.0,0.0,0.0,0.0,0.0,0.0,0.0,0.0,0.0,0.0,0.0,0.0,0.0,0.0,0.0,0.0,0.0,0.0,0.0,0.0,-4.2634,-4.2109,-4.1934,-4.2037,-4.0912,-4.0598,-4.1209,-4.0005,-3.9294,-3.9024,-3.9573,-3.9245,-3.829,-3.7797,-3.7647,-3.7722,-3.8132,-3.7958,-3.7539,-3.8841,-3.9349,-3.919,-3.7587,-3.6958,-3.6646,0.0,0.0,0.0,0.0,0.0,0.0,0.0,0.0,0.0,0.0,0.0,0.0,0.0,0.0,0.0,0.0,0.0,0.0,0.0,0.0,-0.8519,-1.0307,-1.1085,-1.2099,-1.3513,-1.3011,-1.3128,-1.4012,-1.4381,-1.4295,-1.3855,-1.3545,-1.3061,-1.229,-1.1106,-1.0515,-1.0281,-1.0095,-1.0199,-1.0471,-1.1406,-1.202,0.0,0.0,0.0,0.0,0.0,0.0,0.0,0.0,-1.2576,-1.2141,-1.1419,-1.1731,-1.2319,-1.2262,-1.2814,-1.3632,-1.4655,-1.7356,-2.0225,-2.1648,-2.2614,0.0,0.0,-3.0763,-3.0571,-2.9875,-3.155,0.0,0.0,0.0,0.0,0.0,0.0,0.0,0.0,0.0,0.0,0.0,0.0,0.0,0.0,0.0,0.0,0.0,0.0,0.0,0.0,0.0,0.0,-4.197,-4.1488,-4.1173,-4.1216,-4.0117,-3.9737,-3.9989,-3.9322,-3.8521,-3.7795,-3.8647,-3.8284,-3.6975,-3.6496,-3.6315,-3.6471,-3.6543,-3.6447,-3.6312,-3.724,-3.8078,-3.8493,-3.651,-3.6009,-3.6137,0.0,0.0,0.0,0.0,0.0,0.0,0.0,0.0,0.0,0.0,0.0,0.0,0.0,0.0,0.0,0.0,0.0,0.0,-0.6007,-0.7372,-0.8936,-1.064,-1.1265,-1.2728,-1.51,-1.5109,-1.5262,-1.5501,-1.5984,-1.5796,-1.4942,-1.4619,-1.4085,-1.326,-1.1995,-1.1332,-1.0996,-1.1021,-1.1204,-1.1488,-1.2657,-1.338,0.0,0.0,0.0,0.0,0.0,0.0,0.0,0.0,-1.4418,-1.3653,-1.2503,-1.2561,-1.2939,-1.2465,-1.3683,-1.5432,-1.6087,-1.8143,-2.0502,-2.2309,0.0,0.0,-2.9462,-3.1261,-3.1681,-3.1419,-3.4085,0.0,0.0,0.0,0.0,0.0,0.0,0.0,0.0,0.0,0.0,0.0,0.0,0.0,0.0,0.0,0.0,0.0,0.0,0.0,0.0,0.0,0.0,0.0,-4.0815,-4.0382,-4.0323,-3.9325,-3.8701,-3.8309,-3.7913,-3.7406,-3.697,-3.7877,-3.7499,-3.6006,-3.5642,-3.5529,-3.5668,-3.5779,-3.5923,-3.6133,-3.6387,-3.6999,-3.7511,-3.5766,-3.5213,-3.5142,0.0,0.0,0.0,0.0,0.0,0.0,0.0,0.0,0.0,0.0,0.0,0.0,0.0,0.0,0.0,0.0,0.0,0.0,-0.5546,-0.6895,-0.8473,-1.034,-1.1548,-1.3186,-1.5312,-1.6143,-1.6616,-1.6818,-1.7245,-1.6955,-1.5874,-1.568,-1.5031,-1.3983,-1.294,-1.2157,-1.1527,-1.2101,-1.2439,-1.2868,-1.4371,-1.4997,-1.4967,0.0,0.0,0.0,0.0,0.0,0.0,0.0,-1.5608,-1.479,-1.3428,-1.3299,-1.3565,-1.3431,-1.6083,-1.9222,-1.9907,-2.1574,-2.3406,-2.4664,0.0,0.0,-2.7524,-2.8186,-2.9334,-3.3909,0.0,-3.3445,-3.3969,0.0,0.0,0.0,0.0,0.0,0.0,0.0,0.0,0.0,0.0,0.0,0.0,0.0,0.0,0.0,0.0,0.0,0.0,0.0,0.0,0.0,-4.014,-3.9502,-3.9178,-3.8457,-3.7499,-3.6368,-3.5782,-3.5884,-3.6727,-3.7501,-3.7076,-3.5672,-3.5554,-3.5504,-3.5549,-3.6207,-3.6836,-3.733,-3.6716,-3.6428,-3.6171,-3.5376,-3.4621,-3.3856,0.0,0.0,0.0,0.0,0.0,0.0,0.0,0.0,0.0,0.0,0.0,0.0,0.0,0.0,0.0,0.0,0.0,0.0,-0.6206,-0.6983,-0.7982,-0.9206,-1.0678,-1.2451,-1.4484,-1.6581,-1.7501,-1.7312,-1.7412,-1.7078,-1.6259,-1.6009,-1.5327,-1.4327,-1.3664,-1.3053,-1.2432,-1.2976,-1.3533,-1.421,-1.5147,-1.6024,-1.6743,0.0,0.0,0.0,0.0,0.0,0.0,0.0,0.0,0.0,-1.5044,-1.4526,-1.4516,-1.3683,-1.4746,-1.6403,-1.7637,-1.9932,0.0,-2.309,0.0,0.0,0.0,-2.8877,0.0,0.0,-3.5224,-3.4663,0.0,0.0,0.0,0.0,0.0,0.0,0.0,0.0,0.0,0.0,0.0,0.0,0.0,0.0,0.0,0.0,0.0,0.0,0.0,0.0,0.0,0.0,-3.8856,-3.8254,-3.812,-3.687,-3.6215,-3.6243,-3.4987,-3.471,-3.5311,-3.5906,-3.5755,-3.5024,-3.5582,-3.5744,-3.5519,-3.5814,-3.6045,-3.6195,-3.6014,-3.628,-3.6604,-3.5067,-3.454,-3.4379,0.0,0.0,0.0,0.0,0.0,0.0,0.0,0.0,0.0,0.0,0.0,0.0,0.0,0.0,0.0,0.0,0.0,0.0,0.0,-0.689,-0.776,-0.8783,-1.0189,-1.2036,-1.4391,-1.6332,-1.7181,-1.6841,-1.7386,-1.7071,-1.5982,-1.5816,-1.534,-1.4632,-1.4197,-1.3715,-1.3379,-1.4295,-1.5005,-1.5583,-1.6563,-1.75,-1.8311,0.0,0.0,0.0,0.0,0.0,0.0,0.0,0.0,0.0,-1.686,-1.6009,-1.5733,-1.5714,-1.6336,-1.7532,-1.9626,-2.1667,0.0,-2.451,-2.5868,-2.7285,-2.8597,0.0,0.0,0.0,0.0,0.0,0.0,0.0,0.0,0.0,0.0,0.0,0.0,0.0,0.0,0.0,0.0,0.0,0.0,0.0,0.0,0.0,0.0,0.0,0.0,0.0,0.0,0.0,-3.7985,-3.7398,-3.761,-3.5792,-3.5263,-3.5894,-3.4197,-3.3713,-3.4301,-3.4483,-3.4634,-3.4878,-3.5682,-3.5906,-3.5668,-3.5782,-3.5831,-3.5831,-3.5831,-3.5944,-3.5998,-3.4607,-3.4025,-3.3846,0.0,0.0,0.0,0.0,0.0,0.0,0.0,0.0,0.0,0.0,0.0,0.0,0.0,0.0,0.0,0.0,0.0,0.0,0.0,0.0,-0.7869,-0.8965,-1.0208,-1.2164,-1.4897,-1.5833,-1.6171,-1.604,-1.7142,-1.6919,-1.544,-1.5431,-1.5206,-1.4844,-1.4651,-1.4462,-1.448,-1.5928,-1.6714,-1.7195,-1.8451,-1.9223,-1.9568,-1.9592,0.0,0.0,0.0,0.0,0.0,0.0,0.0,0.0,-1.8841,-1.7832,-1.7339,-1.8644,-1.9692,-2.095,-2.3733,-2.5141,-2.6133,-2.7532,-2.803,0.0,-2.9306,-2.9932,-3.0974,-3.3217,0.0,0.0,0.0,0.0,0.0,0.0,0.0,0.0,0.0,0.0,0.0,0.0,0.0,0.0,0.0,0.0,0.0,0.0,0.0,0.0,0.0,0.0,0.0,0.0,-3.7239,-3.6753,-3.718,-3.5115,-3.4486,0.0,-3.3457,-3.2975,-3.3608,-3.3216,-3.3759,-3.5064,-3.5624,-3.5946,-3.5946,-3.5885,-3.5854,-3.5854,-3.5854,-3.5443,-3.4779,-3.4163,-3.3478,-3.2704,0.0,0.0,0.0,0.0,0.0,0.0,0.0,0.0,0.0,0.0,0.0,0.0,0.0,0.0,0.0,0.0,0.0,0.0,0.0,0.0,-0.9249,-0.994,-1.2368,-1.4459,-1.609,-1.7058,-1.7388,-1.7055,-1.6765,-1.6269,-1.5656,-1.6188,-1.6027,-1.5463,-1.6072,-1.6451,-1.6742,-1.7131,-1.8018,-1.9261,-1.9189,-1.9593,-2.0229,-2.039,-2.0798,0.0,0.0,0.0,0.0,0.0,0.0,0.0,-2.0783,-2.0185,-1.9867,-1.9347,-1.9674,-2.0547,-2.1853,-2.3571,0.0,0.0,-2.7524,-2.8028,-2.7556,-2.7851,-2.8871,0.0,0.0,0.0,0.0,0.0,0.0,0.0,0.0,0.0,0.0,0.0,0.0,0.0,0.0,0.0,0.0,0.0,0.0,0.0,0.0,0.0,0.0,0.0,0.0,-3.6309,-3.5647,-3.5363,-3.5446,-3.3956,-3.3501,0.0,-3.2526,-3.2165,-3.293,-3.2524,-3.3306,-3.511,-3.517,-3.5246,-3.5309,-3.479,-3.4576,-3.4576,-3.4576,-3.4576,-3.4653,-3.5135,-3.4369,-3.3264,0.0,0.0,0.0,0.0,0.0,0.0,0.0,0.0,0.0,0.0,0.0,0.0,0.0,0.0,0.0,0.0,0.0,0.0,0.0,0.0,0.0,-1.2352,-1.4385,-1.5735,-1.6192,-1.722,-1.7501,-1.6991,-1.6708,-1.6308,-1.5823,-1.6379,-1.6355,-1.5995,-1.6788,-1.7455,-1.8045,-1.8621,-1.9501,-2.0378,-2.0454,-2.0635,-2.0999,-2.1301,-2.1833,-2.2379,-2.2778,0.0,0.0,0.0,0.0,0.0,0.0,0.0,-2.2091,-2.2172,-2.165,-2.134,-2.2823,0.0,0.0,-2.6606,0.0,-2.7428,-2.6911,-2.716,-2.7783,0.0,0.0,0.0,0.0,0.0,0.0,0.0,0.0,0.0,0.0,0.0,0.0,0.0,0.0,0.0,0.0,0.0,0.0,0.0,0.0,0.0,0.0,-3.6454,-3.6334,-3.6262,-3.5205,-3.4949,-3.5608,-3.364,-3.3352,-3.4576,-3.2682,-3.1847,-3.2135,-3.2561,-3.3267,-3.4268,-3.4651,-3.4804,-3.4833,-3.448,-3.4327,-3.4327,-3.4327,-3.4342,-3.439,-3.4921,-3.4277,-3.3249,0.0,0.0,0.0,0.0,0.0,0.0,0.0,0.0,0.0,0.0,0.0,0.0,0.0,0.0,0.0,0.0,0.0,0.0,0.0,0.0,0.0,-1.5321,-1.6274,-1.6738,-1.6579,-1.7478,-1.7728,-1.7308,-1.7423,-1.7245,0.0,-1.6818,-1.6866,-1.6967,-1.7606,-1.8485,-1.9473,-2.0344,-2.106,-2.1608,-2.1816,-2.1966,-2.1994,-2.2269,-2.2761,-2.3349,-2.3469,-2.3766,-2.4126,-2.3777,0.0,0.0,0.0,0.0,-2.394,-2.5103,-2.3963,-2.2688,-2.4329,0.0,-2.4659,-2.6431,-2.6743,0.0,-2.6264,-2.6358,0.0,0.0,0.0,0.0,0.0,0.0,0.0,0.0,0.0,0.0,0.0,0.0,0.0,0.0,0.0,0.0,0.0,0.0,0.0,0.0,0.0,0.0,-3.688,-3.6158,-3.5872,-3.6206,-3.4841,-3.4683,-3.5837,-3.3566,-3.3342,-3.5038,-3.2997,-3.1879,-3.1567,-3.2551,-3.3157,-3.3387,-3.4029,-3.4291,-3.4275,-3.4168,-3.4121,-3.4121,-3.4121,-3.4048,-3.3949,-3.4361,-3.3972,-3.3223,0.0,0.0,0.0,0.0,0.0,0.0,0.0,0.0,0.0,0.0,0.0,0.0,0.0,0.0,0.0,0.0,0.0,0.0,0.0,0.0,0.0,-1.826,-1.8089,-1.8372,-1.9159,-1.9622,-1.9923,-2.0079,-2.0127,0.0,0.0,0.0,0.0,-1.9288,-1.9779,-2.0787,-2.2173,-2.1967,-2.2736,-2.41,-2.322,-2.3136,-2.3548,-2.312,-2.3409,-2.4062,-2.3872,-2.4251,-2.4788,-2.471,-2.5097,0.0,0.0,0.0,-2.511,-2.5127,-2.4544,-2.3827,-2.3509,0.0,-2.4516,0.0,-2.4695,-2.5058,0.0,0.0,0.0,0.0,0.0,0.0,0.0,0.0,0.0,0.0,0.0,0.0,0.0,0.0,0.0,0.0,0.0,0.0,0.0,0.0,0.0,0.0,0.0,0.0,-3.481,-3.5197,-3.4873,-3.366,-3.3385,-3.337,-3.3558,-3.2921,-3.2726,-3.2989,-3.2376,-3.1936,-3.1667,-3.1546,-3.2068,-3.3099,-3.3407,-3.3552,-3.3506,-3.2921,-3.2675,-3.2675,-3.2675,-3.2659,-3.2834,-3.4485,-3.4346,-3.3502,0.0,0.0,0.0,0.0,0.0,0.0,0.0,0.0,0.0,0.0,0.0,0.0,0.0,0.0,0.0,0.0,0.0,0.0,0.0,0.0,0.0,-1.9794,-2.0092,-2.0391,-2.09,-2.1289,-2.1485,-2.13,0.0,0.0,0.0,-2.1343,-2.104,0.0,0.0,-2.2639,-2.3978,-2.4184,-2.4634,-2.5158,-2.4818,-2.41,-2.3371,-2.4033,-2.4322,-2.4441,-2.5148,-2.5858,-2.6409,-2.6012,-2.6256,-2.6748,-2.6881,0.0,0.0,0.0,-2.5711,-2.5166,-2.453,-2.462,-2.4857,0.0,-2.4967,-2.5106,-2.4211,0.0,0.0,0.0,0.0,0.0,0.0,0.0,0.0,0.0,0.0,0.0,0.0,0.0,0.0,0.0,0.0,0.0,0.0,0.0,0.0,0.0,0.0,-3.7036,-3.5689,-3.5142,-3.4564,-3.377,-3.3498,-3.3482,-3.3754,-3.3253,-3.2888,-3.2586,-3.247,-3.2103,-3.1437,-3.1027,-3.1407,-3.2437,-3.2577,-3.2691,-3.2813,-3.2521,-3.2342,-3.2302,-3.2302,-3.2476,-3.2909,-3.4193,-3.456,-3.4535,0.0,0.0,0.0,0.0,0.0,0.0,0.0,0.0,0.0,0.0,0.0,0.0,0.0,0.0,0.0,0.0,0.0,0.0,0.0,0.0,0.0,-2.1004,-2.1622,-2.2069,-2.2283,-2.2788,-2.2814,0.0,0.0,0.0,-2.3289,-2.3722,-2.3739,0.0,-2.3575,-2.423,0.0,0.0,0.0,-2.621,-2.5913,-2.4843,-2.3591,-2.4352,-2.4478,-2.4393,-2.5756,-2.6716,-2.7268,-2.6916,-2.7117,-2.7554,-2.7766,-2.7933,0.0,0.0,0.0,-2.5679,0.0,0.0,-2.4906,-2.4854,-2.4957,-2.4937,0.0,0.0,0.0,0.0,0.0,0.0,0.0,0.0,0.0,0.0,0.0,0.0,0.0,0.0,0.0,0.0,0.0,0.0,0.0,0.0,0.0,0.0,0.0,-3.7326,-3.6324,-3.5363,-3.4578,-3.4051,-3.3668,-3.3636,-3.4036,-3.3599,-3.3171,-3.2819,-3.2876,-3.2501,-3.1694,-3.1129,-3.1302,-3.1981,-3.1925,-3.2023,-3.2287,-3.2287,-3.2338,-3.2451,-3.2451,-3.2806,-3.3376,-3.4149,-3.4879,-3.5584,0.0,0.0,0.0,0.0,0.0,0.0,0.0,0.0,0.0,0.0,0.0,0.0,0.0,0.0,-1.2348,-1.3115,0.0,0.0,0.0,0.0,0.0,-2.2138,-2.2407,0.0,-2.3696,-2.404,0.0,0.0,0.0,0.0,-2.5064,-2.5704,-2.6422,-2.7222,-2.591,-2.5627,-2.6349,0.0,0.0,0.0,0.0,0.0,0.0,0.0,0.0,0.0,0.0,-2.5695,-2.6473,-2.713,-2.7604,-2.8066,-2.8625,-2.862,-2.8304,0.0,0.0,0.0,0.0,-2.407,0.0,-2.3784,-2.372,0.0,0.0,0.0,0.0,0.0,0.0,0.0,0.0,0.0,0.0,0.0,0.0,0.0,0.0,0.0,0.0,0.0,0.0,0.0,0.0,0.0,0.0,0.0,0.0,-3.7534,-3.5577,-3.5609,-3.501,-3.3388,-3.3309,-3.3309,-3.3356,-3.3414,-3.3503,-3.3435,-3.3499,-3.3328,-3.2879,-3.2105,-3.1805,-3.1879,-3.1667,-3.1724,-3.2053,-3.2053,-3.2475,-3.3138,-3.3138,-3.3551,-3.4224,-3.4896,-3.5676,-3.6444,0.0,0.0,0.0,0.0,0.0,0.0,0.0,0.0,0.0,0.0,0.0,0.0,0.0,-1.3041,-1.3424,-1.3962,-1.4552,0.0,0.0,0.0,0.0,-2.1897,-2.2776,-2.3559,-2.4253,-2.4865,0.0,0.0,0.0,-2.5263,-2.5109,-2.6054,-2.6762,-2.7351,-2.744,-2.788,-2.8662,-2.9602,0.0,0.0,0.0,0.0,0.0,0.0,0.0,0.0,0.0,0.0,0.0,-2.7282,-2.8081,-2.9169,-2.9092,-2.9088,-2.8961,-2.8285,-2.6939,-2.5635,0.0,0.0,0.0,-2.4508,-2.42,-2.3219,0.0,0.0,0.0,0.0,0.0,0.0,0.0,0.0,0.0,0.0,0.0,0.0,0.0,0.0,0.0,0.0,0.0,0.0,0.0,0.0,0.0,0.0,0.0,0.0,-3.576,-3.5735,-3.5042,-3.3498,-3.3346,-3.3203,-3.3043,-3.3096,-3.3096,-3.3096,-3.3534,-3.3398,-3.2734,-3.2191,-3.1875,-3.1751,-3.1263,-3.1278,-3.1682,-3.1925,-3.2061,-3.2304,-3.2859,-3.3554,-3.4331,-3.5323,-3.6292,-3.7035,0.0,0.0,0.0,0.0,0.0,0.0,0.0,0.0,0.0,0.0,0.0,0.0,0.0,0.0,-1.4361,-1.4858,-1.5531,-1.6365,-1.7324,-1.8529,-2.0158,-2.2127,-2.3479,-2.4392,-2.4991,0.0,0.0,0.0,0.0,0.0,0.0,-2.6632,-2.7249,-2.7512,-2.8435,-2.924,0.0,0.0,0.0,-2.9523,0.0,0.0,-2.5224,0.0,0.0,0.0,0.0,0.0,0.0,0.0,0.0,0.0,0.0,-2.9356,-2.9387,-2.84,-2.7198,0.0,-2.5687,0.0,0.0,0.0,0.0,-2.3536,0.0,0.0,0.0,0.0,0.0,0.0,0.0,0.0,0.0,0.0,0.0,0.0,0.0,0.0,0.0,0.0,0.0,0.0,0.0,0.0,0.0,0.0,0.0,0.0,-3.587,-3.5735,-3.4988,-3.334,-3.3203,-3.3112,-3.2897,-3.2951,-3.2951,-3.2951,-3.3441,-3.3409,-3.2926,-3.2408,-3.2078,-3.1977,-3.1146,-3.1043,-3.1437,-3.1625,-3.1938,-3.2447,-3.3017,-3.4045,-3.5309,-3.61,-3.6925,-3.7714,0.0,0.0,0.0,0.0,0.0,0.0,0.0,0.0,0.0,0.0,0.0,0.0,0.0,0.0,0.0,-1.5831,-1.6508,-1.7279,-1.827,-2.0131,-2.1691,-2.2951,0.0,0.0,0.0,0.0,0.0,0.0,0.0,0.0,0.0,0.0,-2.7917,-2.8135,-2.8864,-2.9482,-3.0014,0.0,-3.0786,-3.0303,0.0,-2.6679,-2.6894,0.0,0.0,0.0,-2.5161,-2.5556,0.0,-2.5771,0.0,0.0,0.0,0.0,0.0,-2.8522,0.0,0.0,0.0,0.0,0.0,0.0,0.0,0.0,0.0,0.0,0.0,0.0,0.0,0.0,0.0,0.0,0.0,0.0,0.0,0.0,0.0,0.0,0.0,0.0,0.0,0.0,0.0,0.0,0.0,0.0,0.0,-3.7617,-3.5902,-3.5648,-3.4738,-3.2944,-3.2897,-3.2897,-3.2897,-3.2989,-3.3096,-3.3096,-3.3203,-3.3398,-3.3642,-3.2687,-3.2342,-3.2532,-3.1321,-3.0984,-3.1278,-3.1087,-3.208,-3.3683,-3.3698,-3.5091,-3.7143,-3.7189,-3.7713,-3.8361,0.0,0.0,0.0,0.0,0.0,0.0,-1.2759,-1.2879,-1.3112,0.0,0.0,0.0,0.0,0.0,-1.7054,-1.7063,-1.7225,-1.7631,-1.8493,-1.9665,-2.1005,-2.2446,-2.4112,-2.4937,0.0,0.0,0.0,0.0,0.0,0.0,0.0,0.0,0.0,0.0,-2.8083,-2.8503,-2.892,-2.9992,0.0,0.0,-2.7025,-2.5986,0.0,0.0,0.0,0.0,0.0,-2.4755,-2.5535,0.0,-2.6812,-2.9803,0.0,0.0,0.0,0.0,0.0,0.0,-2.6477,0.0,0.0,0.0,0.0,0.0,0.0,0.0,0.0,0.0,0.0,0.0,0.0,0.0,0.0,0.0,0.0,0.0,0.0,0.0,0.0,0.0,0.0,0.0,0.0,0.0,0.0,0.0,-3.7882,-3.7116,-3.5985,-3.4777,-3.3741,-3.2912,-3.2897,-3.2773,-3.2523,-3.2578,-3.2578,-3.2578,-3.2881,-3.3058,-3.3096,-3.2904,-3.2672,-3.2437,-3.1751,-3.1321,-3.1132,-3.1043,-3.1738,-3.2901,-3.3457,-3.4653,-3.6091,-3.6917,-3.7007,-3.6748,0.0,0.0,0.0,0.0,0.0,-1.3054,-1.3441,-1.3717,-1.4029,0.0,0.0,0.0,0.0,0.0,-1.7821,-1.7614,-1.7748,-1.8131,-1.8648,-2.0227,-2.1671,-2.2943,-2.4646,-2.5647,-2.5834,0.0,0.0,0.0,0.0,0.0,0.0,0.0,0.0,0.0,0.0,0.0,0.0,0.0,0.0,0.0,-2.6184,0.0,0.0,-2.29,-2.2281,0.0,0.0,0.0,-2.4496,-2.3404,-2.5664,0.0,0.0,0.0,0.0,0.0,0.0,0.0,0.0,0.0,0.0,0.0,0.0,0.0,-2.448,-2.5195,0.0,0.0,0.0,0.0,0.0,0.0,0.0,0.0,0.0,0.0,0.0,0.0,0.0,0.0,0.0,0.0,0.0,0.0,0.0,-3.8958,-3.8213,-3.7141,-3.5822,-3.425,-3.3187,-3.2718,-3.2439,-3.23,-3.2398,-3.2105,-3.2105,-3.2398,-3.2594,-3.2827,-3.3058,-3.2742,-3.2563,-3.2437,-3.1766,-3.1278,-3.0955,-3.0866,-3.1574,-3.2825,-3.3681,-3.491,-3.6258,-3.7315,-3.7248,-3.6538,0.0,0.0,-1.2856,-1.3392,-1.3658,-1.3981,-1.4636,-1.5004,-1.5498,0.0,0.0,0.0,0.0,0.0,0.0,0.0,-1.8398,-1.8743,-1.9012,-2.1232,-2.2991,-2.3985,-2.5616,-2.6844,-2.7593,-2.7953,0.0,0.0,0.0,0.0,0.0,0.0,0.0,0.0,0.0,0.0,0.0,0.0,0.0,-2.8184,-2.5173,-2.4515,0.0,0.0,-2.1578,-2.3741,-2.2756,-2.2923,-2.3467,-2.2278,-2.3765,0.0,0.0,0.0,0.0,0.0,-2.8976,0.0,0.0,0.0,0.0,0.0,0.0,0.0,-2.4669,-2.5767,-2.6937,0.0,0.0,0.0,0.0,0.0,0.0,0.0,0.0,0.0,0.0,0.0,0.0,0.0,0.0,0.0,0.0,-3.9454,-3.909,-3.9654,-3.8715,-3.7239,-3.5316,-3.3972,-3.2958,-3.2398,-3.1813,-3.1782,-3.2382,-3.1797,-3.1797,-3.2398,-3.2453,-3.2742,-3.3256,-3.2428,-3.2247,-3.2492,-3.1567,-3.1043,-3.0938,-3.0817,-3.1699,-3.3081,-3.4003,-3.5477,-3.7101,-3.8039,-3.7916,-3.7228,-1.1675,0.0,-1.3228,-1.395,-1.4376,-1.485,-1.5354,-1.5839,-1.6369,0.0,0.0,0.0,0.0,0.0,0.0,0.0,-2.0053,-2.0255,-2.0503,-2.1774,-2.3072,-2.4228,-2.5633,-2.6597,-2.7093,-2.815,-2.8138,0.0,0.0,0.0,0.0,0.0,0.0,0.0,0.0,0.0,0.0,0.0,0.0,-2.4134,-2.4686,0.0,-2.2441,-2.1441,-2.052,-1.9755,-2.0695,-2.1979,-2.3382,-2.3398,-2.4298,-2.5724,0.0,0.0,0.0,0.0,0.0,0.0,0.0,0.0,0.0,0.0,0.0,0.0,-2.6024,-2.599,-2.6038,0.0,0.0,0.0,0.0,0.0,0.0,0.0,0.0,0.0,0.0,0.0,0.0,0.0,0.0,0.0,0.0,-4.0117,-4.0203,-3.8934,-3.7246,-3.563,-3.4032,-3.33,-3.2827,-3.2398,-3.2259,-3.2259,-3.2398,-3.2259,-3.2259,-3.2398,-3.2648,-3.2912,-3.3052,-3.2796,-3.2492,-3.2247,-3.1667,-3.156,-3.1793,-3.2043,-3.2455,-3.3037,-3.3528,-3.504,-3.7056,-3.7517,-3.7459,-3.704,-1.2457,-1.3134,-1.3828,-1.4456,-1.4885,-1.5332,-1.6038,-1.6597,0.0,0.0,0.0,0.0,0.0,0.0,0.0,0.0,0.0,0.0,0.0,-2.2983,-2.425,-2.5473,-2.6406,-2.725,-2.7763,-2.8432,-2.8266,-2.7256,0.0,0.0,0.0,0.0,0.0,0.0,0.0,0.0,0.0,0.0,-2.6133,-2.4342,-2.3003,0.0,-1.9209,-1.8266,-1.775,-1.7654,-1.9081,-2.0487,-2.1804,-2.2057,-2.3727,0.0,0.0,-2.7302,-2.8907,0.0,-2.8539,-2.8422,0.0,0.0,0.0,-2.7908,0.0,0.0,0.0,-2.6979,-2.6559,0.0,0.0,0.0,0.0,0.0,0.0,0.0,0.0,0.0,0.0,0.0,0.0,0.0,0.0,0.0,0.0,-3.8794,-3.8746,-3.8078,-3.6526,-3.5214,-3.4202,-3.3546,-3.2973,-3.2508,-3.2199,-3.2114,-3.2398,-3.2222,-3.2191,-3.2384,-3.2834,-3.3096,-3.3309,-3.2672,-3.2511,-3.2691,-3.1702,-3.1723,-3.2394,-3.2207,-3.2635,-3.3427,-3.4166,-3.5379,-3.6874,-3.7682,-3.785,-3.7575,-1.3461,-1.3953,-1.4494,-1.4984,-1.541,-1.5944,-1.6825,-1.7369,0.0,0.0,0.0,0.0,0.0,0.0,0.0,0.0,0.0,0.0,0.0,0.0,-2.5217,-2.6238,-2.7172,-2.7767,-2.8007,-2.846,-2.8287,-2.7588,0.0,0.0,0.0,0.0,0.0,0.0,0.0,0.0,0.0,0.0,0.0,-2.4311,0.0,-1.9003,-1.7631,-1.6303,-1.6272,-1.7113,-1.8192,-1.9082,-1.9833,-2.0271,0.0,-2.5446,-2.4203,-2.5893,0.0,0.0,0.0,0.0,0.0,0.0,0.0,0.0,0.0,-2.8787,0.0,0.0,0.0,0.0,0.0,0.0,0.0,0.0,0.0,0.0,0.0,0.0,0.0,0.0,0.0,0.0,0.0,0.0,0.0,-3.6867,-3.6983,-3.7361,-3.6242,-3.5225,-3.4616,-3.3847,-3.3187,-3.2757,-3.216,-3.2129,-3.2563,-3.2235,-3.2242,-3.2571,-3.3033,-3.3346,-3.3591,-3.2647,-3.2649,-3.3207,-3.1945,-3.2012,-3.2991,-3.2449,-3.2903,-3.3988,-3.4812,-3.5804,-3.682,-3.7964,-3.8288,-3.8176,-1.39,-1.4487,-1.5301,-1.552,-1.645,-1.7225,-1.7611,-1.8312,0.0,0.0,0.0,0.0,0.0,0.0,0.0,0.0,0.0,0.0,-2.4091,0.0,0.0,-2.5139,-2.6713,-2.7085,-2.6055,-2.7758,-2.8293,-2.7568,0.0,0.0,0.0,0.0,0.0,0.0,-2.5488,0.0,0.0,0.0,-2.2528,0.0,-1.9585,-2.0428,0.0,-2.1054,-2.0023,-1.8718,-1.852,-1.8505,-1.8617,0.0,-2.2013,-2.4846,0.0,-2.6326,-2.5533,0.0,0.0,0.0,0.0,0.0,0.0,0.0,-2.8611,0.0,0.0,0.0,0.0,0.0,0.0,0.0,0.0,0.0,0.0,0.0,0.0,0.0,0.0,0.0,0.0,0.0,0.0,0.0,0.0,0.0,-3.6631,-3.7381,-3.6216,-3.5074,-3.414,-3.3511,-3.315,-3.324,-3.3018,-3.3018,-3.3187,-3.3161,-3.314,-3.3175,-3.3482,-3.3654,-3.373,-3.3364,-3.3218,-3.3253,-3.2792,-3.3098,-3.3859,-3.3785,-3.4168,-3.4707,-3.4336,-3.5502,-3.7451,-3.7864,-3.7946,-3.7836,-1.4734,-1.5257,-1.592,-1.6296,-1.6662,-1.7248,-1.7952,-1.8943,0.0,0.0,0.0,0.0,0.0,0.0,0.0,0.0,0.0,-2.292,0.0,0.0,0.0,0.0,-2.7647,-2.7872,-2.7575,-2.8615,-2.872,-2.7961,-2.901,0.0,0.0,0.0,0.0,0.0,-2.4753,0.0,-2.451,0.0,0.0,0.0,0.0,0.0,0.0,-1.884,-1.7707,-1.8067,-1.8022,-1.8025,-1.8029,0.0,-2.1553,0.0,0.0,0.0,0.0,0.0,0.0,0.0,0.0,0.0,0.0,0.0,0.0,0.0,-2.8895,0.0,-2.8988,0.0,0.0,0.0,0.0,0.0,0.0,0.0,0.0,0.0,0.0,0.0,0.0,0.0,0.0,0.0,0.0,0.0,0.0,0.0,0.0,-3.4769,-3.4406,-3.3534,-3.3451,-3.4249,-3.3762,-3.3398,-3.3309,-3.345,-3.3534,-3.3509,-3.369,-3.3882,-3.3994,-3.3429,-3.3221,-3.3321,-3.3057,-3.3245,-3.3833,-3.3962,-3.4295,-3.4721,-3.4376,-3.5427,-3.7213,-3.7541,-3.7585,-3.7375,-1.5313,-1.6014,-1.6628,-1.6831,-1.6884,-1.7295,-1.8195,0.0,0.0,0.0,0.0,0.0,-2.1833,-2.1807,0.0,0.0,-2.28,-2.3589,0.0,0.0,-2.6634,0.0,0.0,0.0,-2.7949,-2.8906,-2.9042,-2.8438,-2.9215,0.0,0.0,0.0,0.0,0.0,0.0,-2.449,-2.44,0.0,0.0,-2.4733,-2.1361,-2.0223,-2.0128,-1.6728,-1.6211,-1.7311,-1.7729,-1.7931,-1.7984,-1.7587,-2.1172,0.0,-2.9058,0.0,0.0,0.0,0.0,0.0,-2.9415,0.0,0.0,0.0,0.0,0.0,0.0,0.0,0.0,0.0,0.0,0.0,0.0,0.0,0.0,0.0,0.0,0.0,0.0,0.0,0.0,0.0,0.0,0.0,0.0,0.0,0.0,0.0,0.0,0.0,-3.3873,-3.3302,-3.354,-3.4671,-3.4262,-3.385,-3.345,-3.3658,-3.371,-3.3654,-3.3694,-3.3873,-3.4109,-3.3495,-3.3276,-3.3378,-3.3229,-3.3407,-3.3768,-3.3962,-3.4295,-3.4765,-3.4738,-3.5296,-3.6237,-3.6793,-3.6851,-3.6389,-1.5405,-1.656,0.0,0.0,0.0,0.0,0.0,0.0,0.0,0.0,0.0,0.0,0.0,0.0,0.0,0.0,0.0,-2.2683,-2.5163,0.0,-2.6046,0.0,0.0,-2.9115,0.0,-2.7864,-2.9265,-2.9116,-2.9027,-2.8956,0.0,0.0,0.0,0.0,-2.705,-2.6756,-2.7949,-2.5303,-2.129,-1.7089,-2.1303,-1.9216,-1.3842,0.0,-1.7867,-1.7434,-1.8062,0.0,0.0,-1.8178,-2.0622,0.0,0.0,0.0,0.0,0.0,0.0,0.0,0.0,0.0,0.0,-2.9039,0.0,0.0,0.0,0.0,-2.8754,0.0,0.0,0.0,0.0,0.0,0.0,0.0,0.0,0.0,0.0,0.0,0.0,0.0,0.0,0.0,0.0,0.0,0.0,0.0,0.0,0.0,-3.1732,-3.2558,-3.3318,-3.3896,-3.4591,-3.4607,-3.3915,-3.3899,-3.3848,-3.3694,-3.3371,-3.3524,-3.3975,-3.359,-3.341,-3.3408,-3.3574,-3.3818,-3.3977,-3.3977,-3.4345,-3.4927,-3.5409,-3.5035,-3.4426,-3.5565,-3.5496,-3.4754,-1.6482,0.0,0.0,0.0,0.0,0.0,0.0,-1.9204,0.0,0.0,0.0,0.0,0.0,-2.1902,-2.2566,0.0,0.0,-2.4415,-2.5578,-2.6858,0.0,0.0,0.0,-2.9758,0.0,-2.9641,-3.0477,-3.0003,-3.0747,-3.0926,0.0,0.0,0.0,0.0,0.0,-2.5718,0.0,0.0,0.0,0.0,0.0,-1.8224,-1.8222,0.0,0.0,-1.7413,-1.7946,-1.8417,0.0,-1.9636,-2.1786,-2.3872,-2.2167,-2.4478,-2.7438,-2.5391,-2.5462,0.0,0.0,0.0,-2.9167,-2.9012,0.0,0.0,0.0,0.0,0.0,0.0,0.0,0.0,0.0,0.0,0.0,0.0,0.0,0.0,0.0,0.0,0.0,0.0,0.0,0.0,0.0,0.0,0.0,0.0,0.0,0.0,0.0,-3.2586,-3.3349,-3.4898,-3.4783,-3.4471,-3.4101,-3.4108,-3.3817,-3.323,-3.3654,-3.3769,-3.3575,-3.3457,-3.3146,-3.2703,-3.3554,-3.3583,-3.3054,-3.4192,-3.4677,-3.4712,-3.4177,-3.3818,-3.3663,-3.4455,-3.3938,-3.2678,-1.6794,0.0,0.0,0.0,0.0,0.0,0.0,0.0,0.0,0.0,-1.9924,0.0,-2.147,0.0,-2.2948,0.0,-2.5167,-2.5766,-2.632,-2.7495,0.0,-2.599,-2.8307,0.0,0.0,-2.884,-3.0006,-2.9589,-3.0997,-3.1642,0.0,0.0,0.0,0.0,0.0,-2.5729,-2.3263,0.0,-1.4908,0.0,0.0,-1.5886,0.0,0.0,-1.6842,-1.8827,0.0,-1.8689,-1.9205,-2.0256,-2.1872,-2.3152,-2.2051,-2.3587,-2.567,-2.4433,-2.4683,-2.5227,-2.4875,-2.6277,0.0,-2.8019,-2.7654,0.0,-2.8053,0.0,0.0,0.0,0.0,0.0,0.0,0.0,0.0,0.0,0.0,0.0,0.0,-2.3874,0.0,0.0,0.0,0.0,0.0,0.0,0.0,0.0,-2.7051,0.0,0.0,0.0,-3.2279,-3.3681,-3.4697,-3.4644,-3.3599,-3.4026,-3.3861,-3.3107,-3.3532,-3.3741,-3.3722,-3.355,-3.3201,-3.2746,-3.3477,-3.3469,-3.3004,-3.3769,-3.4351,-3.4617,-3.3368,-3.2761,-3.2602,-3.319,-3.2657,-3.1341,-1.6168,0.0,0.0,0.0,-1.8262,0.0,0.0,0.0,-2.0312,0.0,-2.0656,-2.0898,-2.1155,-2.2419,-2.3519,-2.3917,-2.5665,-2.664,-2.6827,-2.8083,0.0,0.0,-2.6411,-2.5923,-2.2109,0.0,0.0,0.0,-3.0048,0.0,0.0,0.0,0.0,0.0,-2.938,0.0,-2.3379,-1.958,-1.5676,-1.1878,-1.1389,-1.252,-1.4595,-1.5484,-1.8225,-2.1458,-1.9662,-1.9066,-1.9261,-2.0004,-2.0891,-2.1553,-2.1091,-2.1295,-2.1752,-2.2271,-2.2546,-2.3038,-2.4545,-2.4316,-2.4177,-2.6078,0.0,0.0,0.0,0.0,-2.9427,0.0,0.0,0.0,0.0,0.0,0.0,0.0,0.0,0.0,0.0,0.0,0.0,0.0,0.0,0.0,0.0,0.0,-2.3754,-2.3472,-2.4876,-2.5996,0.0,0.0,-3.0354,-3.0585,-3.4229,-3.5008,-3.2552,-3.3676,-3.3898,-3.3284,-3.3048,-3.3426,-3.4193,-3.3695,-3.3478,-3.3522,-3.3507,-3.3543,-3.3579,-3.2911,-3.3457,-3.4493,-3.2913,-3.1877,-3.1277,-3.1836,-3.1489,-3.0758,-1.5865,-1.5987,-1.6343,0.0,-1.7623,-1.8537,0.0,0.0,0.0,0.0,-1.9333,-1.9227,-2.042,-2.1763,-2.3233,-2.4979,-2.5338,0.0,0.0,0.0,0.0,-2.2382,-2.4792,-2.5705,-2.4556,-2.7381,-2.9832,-3.1712,0.0,0.0,-3.2322,0.0,0.0,0.0,0.0,0.0,-2.216,-2.0504,-1.6566,-1.1458,-1.1477,-1.4015,0.0,0.0,-1.8246,-2.2291,-1.9688,-1.9102,-1.9583,-2.0345,-2.0651,-2.0718,-2.1527,-2.1717,-2.1838,-2.2216,-2.2688,-2.3046,-2.333,-2.331,-2.3487,-2.4346,-2.5142,-2.568,0.0,0.0,0.0,0.0,0.0,0.0,0.0,0.0,0.0,0.0,0.0,0.0,0.0,0.0,0.0,0.0,0.0,0.0,0.0,0.0,-2.2639,-2.303,-2.4523,-2.5945,0.0,0.0,0.0,-3.1664,-3.2858,-3.372,-3.4283,-3.338,-3.302,-3.3089,-3.2451,-3.2632,-3.3348,-3.2616,-3.2981,-3.4148,-3.3471,-3.2873,-3.2457,-3.3058,-3.3085,-3.2668,-3.1688,-3.0797,-3.0177,-3.0305,-3.0292,-3.0075,-1.6295,0.0,0.0,-1.6767,0.0,0.0,-1.9381,0.0,0.0,-2.0322,-1.9842,0.0,-2.0318,-2.1146,-2.21,-2.3372,-2.406,0.0,-2.4836,0.0,0.0,-2.1793,-2.2766,-2.2737,-2.1781,-2.4764,0.0,-3.0316,0.0,0.0,-3.2007,0.0,0.0,0.0,0.0,-2.6839,0.0,-1.8724,-1.5053,-1.1937,-1.2589,0.0,0.0,-1.6358,-1.8131,-2.0979,-1.9573,-1.9466,-2.0023,-2.0769,-2.0808,-2.0524,-2.1198,-2.1405,-2.1617,-2.2277,-2.2761,-2.2969,-2.2969,-2.2969,-2.3018,-2.3428,-2.388,-2.4391,-2.4737,-2.4718,-2.4598,0.0,0.0,0.0,0.0,0.0,0.0,0.0,0.0,0.0,0.0,0.0,0.0,0.0,0.0,0.0,0.0,0.0,-2.1379,-2.2355,-2.3287,-2.431,0.0,0.0,0.0,-2.9952,-3.1116,-3.2182,-3.3313,-3.2817,-3.2702,-3.2915,-3.2469,-3.2731,-3.3645,-3.2811,-3.3021,-3.401,-3.3434,-3.2768,-3.2199,-3.2555,-3.2557,-3.2177,-3.1575,-3.084,-3.0168,-3.0265,-3.0065,-2.9829,-1.6785,0.0,0.0,0.0,0.0,0.0,0.0,-1.9983,0.0,-2.0657,0.0,-2.0675,-2.033,-2.0484,-2.0732,-2.0997,0.0,-2.3534,-2.4039,-2.342,-2.2406,-2.1224,-2.038,-1.9107,-1.7114,-2.0867,-2.4117,0.0,0.0,0.0,0.0,0.0,0.0,0.0,0.0,0.0,0.0,-1.639,-1.321,0.0,-1.3825,-1.5068,-1.6482,-1.6959,-1.7879,-1.9095,-1.9575,-2.0005,-2.0504,-2.1119,-2.0988,-2.0662,-2.0671,-2.0882,-2.1338,-2.2344,-2.2725,-2.2882,-2.3047,-2.2969,-2.2882,-2.3067,-2.296,-2.3038,-2.4069,-2.3639,-2.3292,-2.4114,-2.4659,-2.4563,0.0,0.0,0.0,0.0,0.0,0.0,0.0,0.0,0.0,0.0,0.0,0.0,0.0,0.0,-2.0413,-2.1523,-2.172,-2.2215,0.0,0.0,0.0,-2.6926,-2.9465,0.0,-3.1716,0.0,-3.2528,-3.2546,-3.2571,-3.3182,-3.4399,-3.335,-3.3118,-3.3364,-3.3185,-3.2692,-3.2006,-3.1856,-3.1959,-3.2306,-3.2072,-3.1398,-3.0758,-3.101,-3.0561,-2.9967,0.0,0.0,0.0,0.0,0.0,-1.7718,-1.7723,-1.9042,-1.9887,-1.9405,-1.9145,-1.891,-1.8765,-1.9918,-2.0738,-2.1003,-2.1346,0.0,0.0,0.0,0.0,-1.8988,-1.8711,-1.8205,-1.7604,-2.1352,-2.4568,0.0,0.0,0.0,0.0,0.0,0.0,0.0,0.0,0.0,-2.0887,-1.8183,0.0,-1.3111,-1.3255,-1.4578,-1.6356,-1.6278,-1.7888,-2.0231,-2.0292,-2.0261,-2.031,-2.0995,-2.0756,-2.0273,-2.1465,-2.1494,-2.1203,-2.2171,-2.2763,-2.3057,-2.3057,-2.3057,-2.3067,-2.3106,-2.3086,-2.3047,-2.3057,-2.3105,-2.3173,-2.3299,-2.3396,-2.3474,-2.3657,0.0,0.0,0.0,0.0,0.0,0.0,0.0,0.0,0.0,0.0,0.0,0.0,0.0,0.0,0.0,0.0,0.0,0.0,0.0,0.0,0.0,-2.9642,0.0,0.0,0.0,-3.1314,-3.1294,-3.1609,-3.2725,-3.4303,-3.262,-3.2051,-3.2373,-3.2345,-3.1487,-3.0335,-3.1537,-3.2042,-3.2056,-3.1693,-3.1361,-3.1323,-3.1838,-3.1373,-3.0378,0.0,0.0,0.0,0.0,0.0,0.0,0.0,-1.8183,0.0,-1.959,-1.9381,-1.9318,-1.945,-1.945,-1.9632,-1.9884,-1.9786,-1.9712,-1.9718,-1.8944,-1.8346,-1.8067,-1.8101,0.0,-1.7839,-1.9298,-2.2249,-2.6527,0.0,0.0,0.0,0.0,0.0,0.0,0.0,-2.566,0.0,0.0,0.0,-1.5646,-1.4516,-1.4723,-1.5674,-1.6206,-1.7232,-1.852,-1.8722,-1.861,-1.879,-2.0483,-2.0793,-2.0611,-2.138,-2.1467,-2.1526,-2.2167,-2.2696,-2.3135,-2.3135,-2.3135,-2.3047,-2.2784,-2.296,-2.3047,-2.2706,-2.2882,-2.3057,-2.2969,-2.2969,-2.3057,-2.3406,-2.3519,0.0,0.0,0.0,0.0,0.0,0.0,0.0,0.0,0.0,0.0,0.0,0.0,0.0,0.0,0.0,0.0,0.0,0.0,0.0,0.0,0.0,0.0,0.0,0.0,0.0,-3.0992,-3.1074,-3.2132,-3.4115,-3.2151,-3.1673,-3.2418,-3.1734,-3.1237,-3.0958,-3.1733,-3.225,-3.2555,-3.2394,-3.2077,-3.1851,-3.2006,-3.1675,-3.1009,0.0,-1.6947,0.0,0.0,-1.6904,0.0,-1.6217,-1.7276,-1.8614,-1.9673,-1.9691,-1.978,-2.0077,-1.911,-1.8466,-1.8552,-1.8482,-1.839,-1.8288,-1.8264,-1.8074,-1.7723,-1.7863,-1.7899,-1.7813,-1.7367,-1.9584,0.0,0.0,0.0,0.0,0.0,0.0,0.0,0.0,0.0,0.0,0.0,-1.5725,-1.719,-1.5593,-1.5059,-1.5328,-1.6086,-1.6617,-1.6935,-1.7246,-1.7246,-1.7607,-1.9497,-2.0075,-2.0176,-2.0584,-2.0924,-2.132,-2.1961,-2.2589,-2.3047,-2.3047,-2.3135,-2.3038,-2.2648,-2.2746,-2.295,-2.2608,-2.2784,-2.3057,-2.2891,-2.2882,-2.2969,-2.3144,-2.2948,0.0,0.0,0.0,0.0,0.0,0.0,0.0,0.0,0.0,0.0,0.0,0.0,0.0,0.0,0.0,0.0,0.0,0.0,0.0,0.0,0.0,-2.5054,-2.9016,0.0,-3.2774,0.0,-3.1254,-3.2035,-3.3643,-3.1929,-3.1714,-3.2607,-3.1496,-3.1445,-3.2219,-3.2202,-3.255,-3.2946,-3.2968,-3.2707,-3.2306,-3.199,-3.1571,-3.1137,0.0,0.0,0.0,0.0,0.0,0.0,0.0,-1.5948,-1.6031,-1.8024,-1.8373,-1.8432,-1.8386,-1.8432,-1.8266,-1.7852,-1.8196,-1.825,-1.7814,-1.7766,-1.7744,-1.7572,-1.7717,-1.747,-1.7098,-1.7375,-1.8557,0.0,0.0,0.0,0.0,0.0,0.0,0.0,0.0,0.0,0.0,-1.7329,-1.6681,-1.4849,-1.4495,-1.4888,-1.5755,-1.5547,-1.6393,-1.7555,-1.7772,-1.7884,-1.79,-1.7837,-1.7512,-1.7308,-1.8747,-1.9228,-1.9637,-2.0882,-2.2003,-2.2775,-2.3047,-2.3135,-2.3047,-2.3047,-2.2911,-2.2804,-2.295,-2.3057,-2.3047,-2.3057,-2.3057,-2.3144,-2.3513,-2.329,-2.3173,0.0,0.0,0.0,0.0,0.0,0.0,0.0,0.0,0.0,0.0,0.0,0.0,0.0,0.0,0.0,0.0,0.0,0.0,-2.2237,0.0,-2.3815,-2.5024,-3.036,0.0,-3.3463,-3.3079,-3.2843,-3.2633,-3.2227,-3.2173,-3.2236,-3.163,-3.194,-3.3028,-3.298,-3.2784,-3.2475,-3.2673,-3.2686,-3.255,-3.1716,-3.1005,-3.0367,0.0,0.0,0.0,0.0,0.0,0.0,0.0,-1.4742,-1.5151,-1.5796,-1.6798,-1.7638,-1.8386,-1.8313,-1.8094,-1.7749,-1.7771,-1.7712,-1.7635,-1.7637,-1.7686,-1.7664,-1.8094,-1.8192,-1.7668,-1.7691,-1.859,0.0,0.0,0.0,0.0,0.0,0.0,0.0,0.0,-1.9823,-1.7205,-1.6561,-1.5773,-1.4891,-1.4613,-1.4815,-1.5345,-1.5024,-1.5345,-1.6086,-1.6199,-1.6199,-1.6137,-1.5871,-1.6524,-1.7464,-1.7838,-1.8218,-1.8656,-1.9936,-2.0718,-2.1096,-2.0567,-2.1784,-2.2803,-2.1416,-2.1975,-2.2931,-2.2696,-2.2882,-2.3057,-2.2969,-2.3057,-2.3144,-2.3242,-2.3232,-2.3144,0.0,0.0,0.0,0.0,0.0,0.0,0.0,0.0,0.0,0.0,0.0,0.0,0.0,0.0,0.0,0.0,0.0,0.0,-2.2226,0.0,-2.4705,-2.5233,-2.9834,-3.2617,-3.3379,-3.3411,-3.3242,-3.2813,-3.164,-3.1196,-3.143,-3.2135,-3.2669,-3.3059,-3.3133,-3.1894,-3.0143,-3.0668,-3.0578,-3.0145,-2.9488,-2.9251,-2.9162,-1.3866,0.0,-1.3189,0.0,-1.2953,-1.3051,-1.2775,-1.3378,-1.3951,-1.4634,-1.5201,-1.6058,-1.7296,-1.756,-1.758,-1.7262,-1.7426,-1.7593,-1.7495,-1.7623,-1.7664,-1.7899,-1.8496,0.0,-1.8039,-1.7995,-1.8506,-1.9693,-2.1339,0.0,0.0,0.0,0.0,0.0,-1.9396,-1.8317,-1.7709,-1.5848,-1.5123,-1.5211,-1.486,-1.4821,-1.4934,-1.4821,-1.4821,-1.5041,-1.5148,-1.5148,-1.5102,-1.4879,-1.5744,-1.6871,-1.6745,-1.6979,-1.7554,-1.8465,-1.9147,-1.9422,-1.87,-1.9957,-2.1203,-2.0283,-2.1533,-2.2872,-2.2618,-2.2882,-2.3057,-2.2882,-2.2969,-2.3135,-2.3135,-2.3135,-2.3135,-2.3135,0.0,0.0,0.0,0.0,0.0,0.0,-2.3162,-2.3176,-2.2751,0.0,0.0,0.0,0.0,0.0,0.0,0.0,0.0,0.0,0.0,0.0,0.0,-2.9211,-3.1234,-3.2657,-3.2906,-3.2957,-3.2713,-3.1285,-3.0737,-3.0834,-3.2434,-3.3133,-3.2983,-3.1824,-2.975,-2.7413,-2.8468,-2.868,-2.8386,-2.7785,-2.7779,-2.7961,-1.2437,-1.2565,-1.2429,-1.0986,-1.0724,-1.1247,-1.2561,-1.1784,-1.2019,-1.4953,-1.3917,-1.3356,-1.4318,-1.5808,-1.6578,-1.6124,-1.7217,-1.7779,-1.7647,-1.7518,-1.7798,0.0,0.0,-1.8559,-1.8045,-1.8302,-1.8183,-1.7414,0.0,0.0,-1.9265,0.0,-2.0492,-1.8782,-1.8455,-1.7251,-1.5505,-1.5187,-1.5229,-1.5476,-1.5148,-1.5041,-1.5041,-1.5041,-1.5041,-1.5041,-1.5369,-1.5482,-1.5405,-1.5191,-1.4904,-1.4844,-1.5251,-1.5647,-1.5961,-1.6514,-1.7265,-1.8041,-1.7995,-1.7735,-1.7908,-2.03,-2.1686,-2.253,-2.296,-2.3135,-2.3135,-2.3135,-2.3135,-2.3135,-2.3135,-2.3135,-2.3135,-2.3135,0.0,0.0,0.0,0.0,0.0,0.0,-2.3302,-2.3223,-2.1669,0.0,0.0,0.0,0.0,0.0,0.0,0.0,0.0,-2.0666,-2.2928,0.0,-2.8444,-2.81,-2.9127,-3.1552,-3.1782,-3.1963,-3.1891,-3.161,-3.1196,-3.0746,-3.2422,-3.3101,-3.2811,-2.898,-2.6167,-2.4413,-2.6413,-2.7596,-2.8183,-2.7189,-2.6809,-2.6693,-1.1247,-1.1247,-1.1279,-1.0856,-1.0789,-1.0884,-1.139,-1.1184,-1.1215,-1.215,-1.1793,-1.1553,-1.1682,-1.3705,-1.4944,0.0,-1.4978,-1.5381,0.0,-1.5564,-1.5623,-1.6024,-1.7085,-1.7967,-1.8677,-1.8512,-1.8201,-1.7757,0.0,0.0,0.0,-2.0026,-1.9105,-1.707,-1.6775,-1.6342,-1.5765,-1.5659,-1.5605,-1.5416,-1.52,-1.52,-1.5311,-1.5094,-1.5311,-1.5678,-1.5678,-1.5791,-1.5737,-1.5493,-1.5149,-1.4957,-1.4886,-1.471,-1.458,-1.4918,-1.5214,-1.5437,-1.5448,-1.5345,-1.5739,-1.7919,-1.9711,-2.115,-2.1952,-2.2599,-2.3135,-2.3135,-2.3135,-2.3135,-2.3135,-2.3135,-2.3135,-2.3135,-2.3135,0.0,0.0,0.0,0.0,0.0,-2.3123,-2.2972,0.0,-2.1915,0.0,0.0,0.0,0.0,0.0,0.0,0.0,0.0,-2.2874,0.0,-2.3895,-2.7553,-2.9433,-2.9316,-3.0766,-3.1339,-3.1327,-3.219,-3.1713,-3.0009,-2.7951,-2.7006,-2.6962,-2.567,-2.4765,-2.4294,-2.4899,-2.5315,-2.547,-2.5294,-2.5197,-2.5197,-1.0982,-1.085,-1.0881,-1.0846,-1.0782,-1.0751,-1.085,-1.0863,-1.0863,-1.0863,-1.0863,-1.0725,-1.0319,-1.1509,0.0,-1.3223,-1.3739,-1.4128,-1.4371,-1.4381,-1.4534,-1.4838,-1.5834,-1.6808,-1.7752,0.0,0.0,-1.7144,-1.8474,-1.9063,-1.8883,-1.8616,-1.7717,-1.6284,-1.6227,-1.6043,-1.5747,-1.5852,-1.57,-1.5354,-1.5142,-1.5245,-1.536,-1.5249,-1.5431,-1.5626,-1.5819,-1.5765,-1.5572,-1.5409,-1.5179,-1.4914,-1.4642,-1.4346,-1.4118,-1.4298,-1.4321,-1.4266,-1.4268,-1.43,-1.472,-1.6556,-1.8349,-2.0065,-2.1409,-2.2148,-2.2687,-2.3047,-2.3135,-2.3135,-2.3135,-2.3135,-2.3135,-2.3135,-2.3135,-2.3135,-2.3135,0.0,0.0,0.0,0.0,0.0,0.0,-2.2152,0.0,0.0,0.0,0.0,0.0,0.0,0.0,-2.3859,-2.2867,0.0,-2.2457,-2.5756,-2.7657,-2.8021,-2.9584,-3.0718,-3.1215,-3.0979,-3.0898,-3.0767,-2.6198,-2.4229,-2.415,-2.4225,-2.417,-2.4159,-2.4223,-2.4152,-2.4251,-2.4341,-2.4341,-2.444,-1.1101,-1.1108,0.0,0.0,-1.0721,0.0,-1.0721,-1.0721,-1.0721,-1.0721,-1.0721,-1.0588,-1.0326,-0.9646,-1.0167,-1.2025,0.0,0.0,0.0,-1.3822,-1.4285,-1.4633,-1.477,-1.5075,-1.5217,-1.5887,-1.6113,-1.5898,-1.6529,-1.6875,-1.6966,-1.6673,-1.6521,-1.6272,-1.6536,-1.6268,-1.5499,-1.5817,-1.5548,-1.5083,-1.5083,-1.5083,-1.5107,-1.5354,-1.5306,-1.5173,-1.5662,-1.5523,-1.5107,-1.5089,-1.492,-1.4666,-1.4383,-1.4298,-1.4298,-1.4298,-1.4298,-1.4298,-1.4298,-1.4315,-1.4621,-1.6021,-1.7554,-1.9247,-2.115,-2.1695,-2.1971,-2.2784,-2.3057,-2.3144,-2.3184,-2.3154,-2.3144,-2.3184,-2.3164,-2.3135,-2.3135,0.0,0.0,0.0,0.0,0.0,0.0,-2.3068,-2.2748,0.0,0.0,0.0,0.0,0.0,-2.3134,-2.3184,-2.3135,-2.333,-2.3703,-2.3446,-2.4656,-2.7415,-2.8429,-2.9704,-3.1275,-2.8335,-2.9002,-3.2199,-2.6562,-2.4175,-2.4152,-2.4251,-2.4251,-2.4152,-2.4152,-2.4152,-2.4152,-2.4251,-2.4251,-2.4251,0.0,0.0,-1.0853,-1.0721,-1.0721,-1.0721,-1.0721,-1.0721,-1.0721,-1.0721,-1.0721,-1.0724,-1.0598,-1.018,-1.0041,-1.0714,-1.0868,-1.0978,-1.0958,-1.1254,-1.1486,-1.1439,-1.2399,-1.3003,-1.3178,-1.3981,-1.427,-1.4216,-1.447,-1.4928,-1.5682,-1.5382,-1.5589,-1.6266,-1.6114,-1.5846,-1.5499,-1.5603,-1.5336,-1.4805,-1.4805,-1.4805,-1.4817,-1.4877,-1.4986,-1.5125,-1.5246,-1.5215,-1.5077,-1.4877,-1.4769,-1.4666,-1.4383,-1.4298,-1.4298,-1.4298,-1.4298,-1.4298,-1.4298,-1.4274,-1.4549,-1.535,-1.6936,-1.8588,-2.0232,-2.115,-2.1784,-2.1971,-2.2775,-2.3525,-2.4078,-2.3624,-2.33,-2.4078,-2.3565,-2.3135,-2.3135,-2.3135,0.0,0.0,-2.3193,-2.3189,-2.3143,-2.3153,-2.3072,0.0,0.0,0.0,0.0,-2.3278,-2.3545,-2.3751,-2.3751,-2.3938,-2.4248,-2.5921,-2.6651,-2.6515,-2.693,-2.7583,-2.8239,-2.7264,-2.6627,-2.6197,-2.483,-2.4184,-2.4251,-2.4205,-2.4214,-2.4152,-2.4152,-2.4152,-2.4251,-2.4341,-2.444,-2.444,-1.0652,-1.0644,-1.0595,-1.0531,-1.0571,-1.0595,-1.0527,-1.0521,-1.0521,-1.0521,-1.0578,-1.0754,-1.0636,-1.0419,-1.0187,-0.9927,-1.0251,-1.0369,-1.0449,-1.0444,-1.05,-1.0517,-1.0926,-1.1257,-1.1181,-1.221,-1.3021,-1.3518,-1.3518,-1.3713,-1.4091,-1.4081,-1.424,-1.4549,-1.4517,-1.4594,-1.4573,-1.4561,-1.4589,-1.4527,-1.4527,-1.4527,-1.4539,-1.4666,-1.4727,-1.4769,-1.5016,-1.495,-1.4733,-1.4721,-1.463,-1.4497,-1.4346,-1.4298,-1.4298,-1.4298,-1.4298,-1.4298,-1.4298,-1.4298,-1.4496,-1.5089,-1.592,-1.7023,-1.858,-1.9497,-2.0141,-2.0593,-2.1507,-2.241,-2.32,-2.326,-2.3378,-2.4138,-2.3949,-2.3652,-2.3467,-2.3349,0.0,-2.3076,-2.3115,-2.3104,-2.3166,-2.308,-2.3087,-2.3038,0.0,0.0,-2.3034,-2.3221,-2.3437,-2.3595,-2.4148,-2.4394,-2.439,-2.5729,-2.5843,-2.4651,-2.4954,-2.5307,-2.5589,-2.5435,-2.5121,-2.4528,-2.4291,-2.443,-2.4885,-2.4359,-2.4223,-2.4152,-2.4152,-2.4152,-2.4251,-2.4341,-2.4341,-2.444,-1.0876,-1.0618,-1.0551,-1.0428,-1.0382,-1.0419,-1.0297,-1.028,-1.028,-1.041,-1.0537,-1.076,-1.064,-1.0646,-1.0455,-0.9899,-1.029,-1.0687,-1.0555,-1.0544,-1.0527,-1.0644,-1.0249,-0.9978,-0.9825,-1.0884,-1.1873,-1.2876,-1.2849,-1.2754,-1.2497,-1.2724,-1.2721,-1.2403,-1.2713,-1.3023,-1.312,-1.339,-1.3739,-1.41,-1.4202,-1.4298,-1.4322,-1.4564,-1.4503,-1.4358,-1.4817,-1.469,-1.4334,-1.457,-1.4491,-1.4298,-1.4298,-1.4298,-1.4298,-1.4298,-1.4298,-1.4298,-1.4298,-1.4298,-1.4394,-1.4981,-1.5077,-1.5445,-1.6835,-1.7569,-1.8211,-1.9131,-1.9968,-2.0817,-2.1759,-2.2503,-2.3229,-2.3857,-2.4131,-2.4199,-2.3748,0.0,-2.3277,-2.3096,-2.2833,-2.2833,-2.3135,-2.295,-2.2805,-2.2637,-2.2939,-2.2988,0.0,-2.2939,-2.3135,-2.3135,-2.4227,-2.4754,-2.4491,-2.4591,-2.4073,-2.3075,-2.3295,-2.3382,-2.3509,-2.3737,-2.4094,-2.4632,-2.4408,-2.4763,-2.5424,-2.4523,-2.4242,-2.4143,-2.4079,-2.4097,-2.4134,-2.4015,-2.415,-2.4242,-1.0955,-1.0836,-1.0686,-1.0792,-1.0555,-1.0304,-1.0283,-1.041,-1.041,-1.028,-1.0537,-1.0757,-1.076,-1.0764,-1.067,-1.0411,-1.0527,-1.0397,-1.0136,-1.0266,-1.0246,-1.0222,-1.0063,-0.9978,-0.9825,-0.9943,-0.9986,-1.0195,-1.0058,-1.0463,-1.1164,-1.1276,-1.162,-1.2408,-1.2297,-1.2192,-1.2088,-1.2878,-1.304,-1.3022,-1.3908,-1.4298,-1.4298,-1.4346,-1.4334,-1.4304,-1.4389,-1.437,-1.4304,-1.4346,-1.4334,-1.4298,-1.4298,-1.4298,-1.4298,-1.4298,-1.4298,-1.4298,-1.4298,-1.4298,-1.4394,-1.4981,-1.5261,-1.5534,-1.6183,-1.7203,-1.8126,-1.8511,-1.9497,-2.0572,-2.1461,-2.2236,-2.2868,-2.3038,-2.3515,-2.3677,-2.3238,0.0,-2.3125,-2.3057,-2.1627,-2.1405,-2.3299,-2.2268,-2.2054,-2.3221,-2.3193,-2.3105,-2.3047,-2.3105,-2.3135,-2.3135,-2.4026,-2.4766,-2.5509,-2.5294,-2.4821,-2.4096,-2.3739,-2.3289,-2.2658,-2.3063,-2.3335,-2.3625,-2.4345,-2.4588,-2.4396,-2.4214,-2.4214,-2.4115,-2.3642,-2.3724,-2.407,-2.3391,-2.3662,-2.4393,-1.004,-0.9918,-0.9873,-0.979,-1.0218,-1.0496,-1.0411,-1.0273,-1.0053,-1.0005,-1.0082,-1.0317,-1.061,-1.062,-1.0487,-1.049,-1.0422,-1.0307,-0.989,-1.0022,-1.0127,-1.0184,-0.99,-0.9741,-0.9588,-0.952,-0.9445,-0.9364,-0.9293,-0.9522,-0.9813,-0.9813,-1.0101,-1.0558,-1.0281,-1.0422,-1.0944,-1.1148,-1.1452,-1.195,-1.3022,-1.3414,-1.3528,-1.4267,-1.4521,-1.4521,-1.4521,-1.4521,-1.4497,-1.4346,-1.4298,-1.4298,-1.4298,-1.4298,-1.4328,-1.4479,-1.4419,-1.4328,-1.4479,-1.4413,-1.443,-1.4783,-1.4911,-1.5099,-1.5293,-1.6172,-1.6953,-1.7445,-1.8391,-1.9407,-2.0509,-2.1602,-2.2303,-2.2435,-2.2888,0.0,0.0,-2.2409,-2.2323,-2.183,-2.1132,-2.1033,-2.1686,-2.122,-2.1245,-2.1916,-2.2035,-2.2062,-2.2025,-2.2006,-2.2274,-2.2687,-2.3783,-2.4633,-2.5285,-2.5093,-2.445,-2.3456,-2.3223,-2.3166,-2.3185,-2.3204,-2.3476,-2.392,-2.419,-2.3745,-2.2948,-2.2947,-2.2886,-2.2948,-2.2886,-2.2948,-2.3064,-2.3208,-2.2865,-2.2364,-0.9319,-0.929,-0.9208,-0.9342,-1.0152,-1.0681,-1.0554,-1.0169,-1.0107,-1.0136,-1.007,-1.0311,-1.0938,-1.06,-1.0421,-1.0458,-1.0331,-1.0132,-0.9858,-0.995,-1.0138,-1.0148,-0.9834,-0.9537,-0.9501,-0.9497,-0.9422,-0.938,-0.9345,-0.9269,-0.9158,-0.901,-0.9013,-0.9144,-0.8796,-0.9071,-0.9912,-0.9862,-1.0297,-1.1082,-1.215,-1.2538,-1.2554,-1.3837,-1.4353,-1.4301,-1.4544,-1.466,-1.4765,-1.4491,-1.4394,-1.4406,-1.4563,-1.4582,-1.454,-1.4924,-1.4851,-1.4728,-1.4751,-1.4648,-1.4539,-1.4751,-1.4904,-1.5004,-1.5004,-1.5557,-1.6306,-1.69,-1.7498,-1.84,-1.9574,-2.074,-2.1531,-2.1421,0.0,0.0,0.0,-2.1459,-2.138,-2.0711,-2.0606,-2.0566,-2.0414,-2.0484,-2.0559,-2.084,-2.1018,-2.1199,-2.1102,-2.1076,-2.1449,-2.2339,-2.3698,-2.4619,-2.4925,-2.4879,-2.4133,-2.2934,-2.3023,-2.3174,-2.349,-2.342,-2.3567,-2.3831,-2.3529,-2.2734,-2.1769,-2.1769,-2.1769,-2.1658,-2.2523,-2.2514,-2.2158,-2.232,-2.1612,-2.0807,-0.9559,-0.9451,-0.97,-1.0906,-1.0793,-1.055,-1.0539,-1.066,-1.0849,-1.1147,-1.0918,-1.0894,-1.1576,-1.1042,-1.0531,-1.0382,-1.0459,-1.0295,-0.9888,-1.0117,-1.0131,-0.9909,-0.9547,-0.9534,-0.9729,-0.9726,-0.9882,-0.9953,-0.9798,-0.9717,-0.9702,-0.9548,-0.9555,-0.9684,-0.9309,-0.9183,-0.941,-1.0075,-1.0413,-1.0507,-1.1585,-1.1868,-1.176,-1.2851,-1.3188,-1.3353,-1.4019,-1.468,-1.5053,-1.4781,-1.4688,-1.4737,-1.5284,-1.5262,-1.5115,-1.5701,-1.5871,-1.5758,-1.5172,-1.5065,-1.5052,-1.5077,-1.5475,-1.5777,-1.5777,-1.6192,-1.69,-1.769,-1.7697,-1.7896,-1.8965,-1.9657,-1.9957,-1.9731,0.0,0.0,-2.0347,-2.0374,-2.0526,-2.067,-1.955,-1.9445,-2.099,-2.0361,-2.0192,-2.1137,-2.1162,-2.1199,-2.1102,-2.1076,-2.1427,-2.2164,-2.3923,-2.4917,-2.5059,-2.5068,-2.4639,-2.3689,-2.3804,-2.3511,-2.2919,-2.3518,-2.3128,-2.1952,-2.1935,-2.1645,-2.1164,-2.1713,-2.1445,-2.1055,-2.3211,-2.3419,-2.2128,-1.9654,-1.9882,-2.1425,-0.8327,-0.8465,-0.8852,-1.0155,-1.091,-1.1281,-1.1281,-1.1405,-1.1468,-1.1646,-1.1642,-1.1661,-1.1385,-1.096,-1.066,-1.0415,-1.0377,-1.0211,-0.9938,-1.0041,-1.0045,-0.9935,-0.9756,-0.9713,-0.9782,-0.9778,-0.9861,-0.9909,-0.9846,-0.9816,-0.9812,-0.9749,-0.9697,-0.9645,-0.9362,-0.9212,-0.9157,-0.9326,-0.9486,-0.9678,-1.0654,-1.0973,-1.1174,-1.2267,-1.2621,-1.2704,-1.3157,-1.374,-1.4394,-1.4366,-1.4783,-1.5284,-1.5668,-1.5757,-1.5708,-1.589,-1.5987,-1.5903,-1.57,-1.5451,-1.534,-1.5306,-1.5663,-1.5869,-1.5869,-1.6297,-1.7034,-1.7963,-1.8271,-1.852,-1.9245,-1.9876,-2.0077,-1.9359,0.0,-2.0111,-1.9597,-1.9333,-1.9317,-1.9461,-1.8972,-1.8845,-1.9357,-1.9262,-1.9292,-1.9682,-1.9876,-1.9945,-1.9889,-2.0632,-2.0669,-2.0077,-2.1819,-2.2933,-2.3021,-2.2935,-2.2465,-2.1924,-2.1919,-2.2142,-2.2402,-2.2075,-2.1913,-2.1833,-2.1139,-2.0385,-1.9814,-1.9787,-1.9781,-2.0039,-2.0958,-2.112,-2.0684,-1.9902,-1.9184,-1.8641,-0.6897,-0.7148,-0.7646,-0.9407,-1.089,-1.177,-1.1807,-1.1819,-1.178,-1.1757,-1.1947,-1.1902,-1.1333,-1.1083,-1.0749,-1.0526,-1.0524,-1.0387,-1.0111,-1.0212,-1.01,-0.9988,-1.004,-0.9988,-0.993,-0.9979,-1.009,-1.0036,-1.0036,-1.0036,-1.0033,-0.9983,-0.9922,-0.9846,-0.9633,-0.9607,-0.953,-0.9299,-0.9303,-0.9449,-1.0079,-1.0314,-1.0582,-1.1595,-1.2045,-1.2113,-1.2392,-1.3083,-1.3735,-1.4242,-1.4767,-1.537,-1.6156,-1.6412,-1.6305,-1.62,-1.6107,-1.608,-1.6001,-1.5971,-1.59,-1.5787,-1.594,-1.6051,-1.626,-1.6609,-1.716,-1.8311,-1.8624,-1.8873,-1.949,-1.9857,-1.9796,-1.9132,-1.9169,-1.9169,-1.8935,-1.8783,-1.8751,-1.8659,-1.8762,-1.8728,-1.8606,-1.8716,-1.8833,-1.8935,-1.9052,-1.9126,-1.9194,-2.0071,-2.0118,-1.9077,-2.0265,-2.0928,-2.097,-2.1357,-2.1362,-2.0891,-2.0727,-2.1159,-2.2068,-2.1395,-2.1073,-2.1106,-2.0281,-1.9478,-1.8457,-1.8209,-1.8331,-1.8862,-1.9314,-1.9411,-1.9262,-1.9571,-1.8542,-1.7248,-0.5401,-0.575,-0.645,-0.9016,-1.0813,-1.1837,-1.1846,-1.1757,-1.1766,-1.1848,-1.1769,-1.1828,-1.1788,-1.1359,-1.0992,-1.0549,-1.0856,-1.0779,-1.0378,-1.0586,-1.0476,-0.9816,-1.0328,-1.0563,-1.026,-1.0428,-1.054,-1.0692,-1.0692,-1.0692,-1.0684,-1.0513,-1.0526,-1.0672,-1.0318,-1.0262,-1.0408,-1.0042,-0.9994,-1.0148,-0.9961,-0.9895,-0.9955,-1.0884,-1.1312,-1.1451,-1.2195,-1.2779,-1.3456,-1.4259,-1.4587,-1.4934,-1.6645,-1.7153,-1.7121,-1.6834,-1.6736,-1.6673,-1.6399,-1.652,-1.6624,-1.6324,-1.6324,-1.643,-1.7073,-1.7179,-1.749,-1.8617,-1.8624,-1.8632,-1.9576,-1.9213,-1.8789,-1.8789,-1.8733,-1.8624,-1.8313,-1.8777,-1.9078,-1.8665,-1.9067,-1.9279,-1.9279,-1.8979,-1.8921,-1.925,-1.8972,-1.8883,-1.9186,-1.9537,-1.9719,-1.9598,-1.9388,-1.9186,-1.9179,-2.0957,-2.165,-2.1188,-2.0769,-2.1031,-2.1891,-2.1722,-2.0843,-1.9388,-1.9478,-1.8739,-1.7416,-1.737,-1.7326,-1.7471,-1.8804,-1.8728,-1.8045,-1.826,-1.8045,-1.7765,-0.5414,-0.5654,-0.6134,-0.7948,-0.999,-1.1209,-1.086,-1.1113,-1.1382,-1.1334,-1.1342,-1.1399,-1.1228,-1.1159,-1.0968,-1.0864,-1.0968,-1.0948,-1.0779,-1.0767,-1.06,-1.0476,-1.0638,-1.0647,-1.0586,-1.0634,-1.0638,-1.0692,-1.0692,-1.0631,-1.0509,-1.0461,-1.0391,-1.0314,-1.0209,-1.0193,-1.0237,-1.0123,-1.0184,-1.0339,-1.0152,-1.0188,-1.0233,-1.0418,-1.0506,-1.0561,-1.0957,-1.1558,-1.2248,-1.2901,-1.3509,-1.4041,-1.4807,-1.4944,-1.4787,-1.5352,-1.5488,-1.5535,-1.5895,-1.6256,-1.6318,-1.6105,-1.6311,-1.653,-1.6537,-1.6855,-1.7384,-1.7898,-1.801,-1.822,-1.8415,-1.8651,-1.8697,-1.8601,-1.8839,-1.9089,-1.8986,-1.917,-1.9229,-1.9125,-1.9413,-1.9576,-1.9576,-1.9279,-1.9123,-1.9227,-1.8728,-1.8647,-1.928,-1.9544,-1.9613,-1.9242,-1.9807,-1.9721,-1.9186,-1.9582,-1.9622,-1.9529,-1.929,-1.9544,-2.0084,-1.9605,-1.8895,-1.7955,-1.7978,-1.7802,-1.7377,-1.7276,-1.7465,-1.7684,-1.7786,-1.8074,-1.8356,-1.7792,-1.7587,-1.7433,-0.4648,-0.477,-0.5238,-0.6546,-0.7603,-0.8434,-0.8935,-0.8587,-0.8836,-1.0763,-1.0581,-1.0528,-1.0992,-1.1029,-1.1041,-1.0976,-1.1029,-1.1102,-1.1175,-1.0928,-1.0687,-1.0806,-1.0729,-1.0692,-1.0692,-1.0692,-1.0692,-1.0692,-1.0692,-1.0639,-1.0538,-1.0538,-1.0477,-1.0371,-1.0371,-1.0335,-1.027,-1.027,-1.0335,-1.0424,-1.0314,-1.0375,-1.0526,-1.0416,-1.0371,-1.0387,-1.0497,-1.089,-1.146,-1.2121,-1.3081,-1.3843,-1.3879,-1.3825,-1.3814,-1.4147,-1.4292,-1.4454,-1.4798,-1.495,-1.5024,-1.4917,-1.5666,-1.6418,-1.6424,-1.6855,-1.7285,-1.7384,-1.7701,-1.8016,-1.7891,-1.8101,-1.8311,-1.8108,-1.8534,-1.8952,-1.8952,-1.9168,-1.9279,-1.9279,-1.9583,-1.968,-1.9791,-1.949,-1.9396,-1.9396,-1.867,-1.864,-1.9388,-1.9545,-1.9414,-1.9149,-1.9735,-1.9819,-1.9279,-1.9081,-1.8979,-1.8979,-1.8738,-1.8811,-1.8986,-1.8577,-1.8014,-1.7327,-1.7301,-1.7326,-1.7326,-1.7326,-1.7443,-1.7538,-1.7426,-1.763,-1.8022,-1.7505,-1.7294,-1.7275,-0.3587,-0.3587,-0.3921,-0.5037,-0.4364,-0.427,-0.649,-0.5127,-0.538,-0.9673,-0.9555,-0.9408,-1.0634,-1.0968,-1.1118,-1.098,-1.1126,-1.1301,-1.1488,-1.1044,-1.0847,-1.0968,-1.0794,-1.0692,-1.0692,-1.0692,-1.0692,-1.0692,-1.0692,-1.0684,-1.0668,-1.0668,-1.0668,-1.0668,-1.0668,-1.059,-1.0461,-1.0461,-1.0461,-1.0461,-1.0461,-1.0554,-1.0692,-1.0692,-1.0692,-1.0692,-1.0692,-1.0692,-1.0907,-1.1878,-1.2955,-1.3706,-1.3506,-1.3398,-1.3362,-1.3265,-1.3245,-1.3244,-1.3265,-1.3352,-1.329,-1.329,-1.4589,-1.5885,-1.6411,-1.6849,-1.7073,-1.7067,-1.749,-1.7806,-1.7477,-1.7477,-1.7477,-1.7477,-1.8003,-1.8422,-1.8422,-1.8959,-1.9279,-1.9279,-1.9576,-1.9783,-1.9791,-1.9702,-1.9598,-1.9567,-1.8773,-1.8773,-1.9605,-1.9396,-1.9295,-1.9325,-1.9626,-1.9576,-1.9376,-1.9376,-1.9272,-1.9272,-1.8942,-1.8687,-1.8564,-1.8356,-1.7941,-1.7277,-1.7269,-1.7326,-1.7326,-1.7326,-1.7326,-1.7261,-1.7325,-1.7268,-1.7268,-1.7325,-1.726,-1.7326,-0.3587,-0.3587,-0.3699,-0.3921,-0.381,-0.3811,-0.4263,-0.4944,-0.5848,-0.6868,-0.8133,-0.9035,-0.931,-1.0227,-1.085,-1.096,-1.1126,-1.1301,-1.1488,-1.1163,-1.0968,-1.0968,-1.0794,-1.0692,-1.0692,-1.0692,-1.0692,-1.0692,-1.0692,-1.0623,-1.0489,-1.0489,-1.0489,-1.0489,-1.0489,-1.0546,-1.0635,-1.0635,-1.0635,-1.0635,-1.0635,-1.066,-1.0692,-1.0692,-1.0692,-1.0692,-1.0692,-1.0692,-1.0692,-1.1017,-1.1232,-1.145,-1.1341,-1.1345,-1.1442,-1.2054,-1.2394,-1.2733,-1.3126,-1.347,-1.3506,-1.3398,-1.4056,-1.4922,-1.503,-1.5785,-1.643,-1.6211,-1.643,-1.6643,-1.6318,-1.663,-1.6942,-1.6942,-1.7786,-1.8422,-1.8422,-1.8959,-1.9279,-1.9279,-1.968,-1.9983,-1.9983,-1.9992,-1.9691,-1.9231,-1.8988,-1.9101,-1.9598,-1.9698,-1.9813,-1.9861,-2.0158,-2.0101,-1.9576,-1.9576,-1.948,-1.9272,-1.8942,-1.8657,-1.8401,-1.8342,-1.7912,-1.7334,-1.7268,-1.7326,-1.7326,-1.7326,-1.7326,-1.7333,-1.7297,-1.7283,-1.7333,-1.7305,-1.7283,-1.7326,-0.3582,-0.3587,-0.3587,-0.3587,-0.3587,-0.3586,-0.358,-0.4367,-0.5148,-0.5919,-0.6972,-0.7885,-0.8494,-1.0005,-1.0879,-1.0964,-1.1126,-1.1261,-1.1362,-1.1118,-1.0968,-1.0968,-1.0794,-1.0692,-1.0692,-1.0692,-1.0692,-1.0692,-1.0692,-1.0643,-1.0558,-1.0558,-1.0558,-1.0558,-1.0558,-1.0562,-1.0574,-1.066,-1.0643,-1.0578,-1.066,-1.0692,-1.0692,-1.0692,-1.0692,-1.0692,-1.0692,-1.0692,-1.0692,-1.0692,-1.0692,-1.0692,-1.0692,-1.0692,-1.0802,-1.1236,-1.145,-1.1664,-1.1991,-1.21,-1.21,-1.21,-1.2649,-1.3408,-1.4385,-1.5565,-1.6424,-1.5998,-1.6211,-1.6418,-1.5998,-1.6099,-1.6311,-1.6311,-1.7364,-1.8206,-1.8206,-1.9049,-1.968,-1.968,-1.9879,-2.0189,-2.03,-2.0342,-2.0272,-1.9992,-1.9614,-1.9598,-1.9992,-2.0,-1.9977,-2.0053,-2.0215,-2.0094,-1.968,-1.9576,-1.948,-1.9272,-1.8789,-1.8547,-1.8404,-1.7993,-1.7589,-1.7326,-1.729,-1.7326,-1.7326,-1.7326,-1.7326,-1.7326,-1.7326,-1.7326,-1.7326,-1.7326,-1.7326,-1.7326,-0.3548,-0.3565,-0.3572,-0.3572,-0.358,-0.3699,-0.3699,-0.3699,-0.4258,-0.5489,-0.6003,-0.6699,-0.7838,-0.9514,-1.0739,-1.0972,-1.0842,-1.0926,-1.1216,-1.1033,-1.0919,-1.1031,-1.0855,-1.0757,-1.0757,-1.0757,-1.0664,-1.0692,-1.0692,-1.0676,-1.0647,-1.068,-1.0676,-1.0647,-1.068,-1.0611,-1.0489,-1.0631,-1.0607,-1.0489,-1.0635,-1.0692,-1.0692,-1.0692,-1.0672,-1.0534,-1.0534,-1.0534,-1.0542,-1.068,-1.0692,-1.0692,-1.0692,-1.0692,-1.0692,-1.0692,-1.0692,-1.0692,-1.0692,-1.0582,-1.0476,-1.0692,-1.124,-1.2114,-1.3738,-1.5125,-1.598,-1.5565,-1.5773,-1.598,-1.5559,-1.5458,-1.5458,-1.5672,-1.6723,-1.7549,-1.7711,-1.8894,-1.9849,-1.9796,-2.0055,-2.0212,-2.0529,-2.0759,-2.0862,-2.0941,-2.003,-1.9767,-2.048,-1.9876,-1.9775,-2.0186,-1.9941,-1.9879,-1.9887,-1.948,-1.9272,-1.9056,-1.8571,-1.8411,-1.8521,-1.7727,-1.7348,-1.7255,-1.7414,-1.7413,-1.7413,-1.7413,-1.7413,-1.7406,-1.7347,-1.7326,-1.7326,-1.7326,-1.7326,-1.7326,-0.3435,-0.3476,-0.351,-0.351,-0.3775,-0.4036,-0.415,-0.4258,-0.4369,-0.426,-0.5495,-0.6281,-0.6272,-0.7736,-0.9252,-1.0638,-0.9842,-0.9767,-1.1089,-1.0911,-1.0839,-1.1059,-1.0887,-1.0791,-1.0791,-1.0791,-1.0758,-1.0692,-1.0692,-1.0615,-1.0473,-1.0623,-1.0611,-1.0365,-1.0623,-1.068,-1.066,-1.068,-1.068,-1.066,-1.0684,-1.0692,-1.0692,-1.0692,-1.0486,-1.013,-1.013,-1.013,-1.0158,-1.053,-1.0692,-1.0692,-1.0692,-1.0692,-1.0692,-1.0692,-1.0692,-1.0692,-1.0692,-1.0692,-1.0692,-1.0692,-1.135,-1.2001,-1.2327,-1.3078,-1.3722,-1.3722,-1.3722,-1.3722,-1.3722,-1.3614,-1.3943,-1.46,-1.5345,-1.5895,-1.6509,-1.7728,-1.8629,-1.8665,-1.9656,-2.0496,-2.0814,-2.0908,-2.0924,-2.0925,-1.9606,-1.9443,-2.0751,-1.8955,-1.8747,-2.0751,-1.9642,-1.9457,-2.0411,-1.9887,-1.9153,-1.8192,-1.8578,-1.8622,-1.8296,-1.8064,-1.7669,-1.7359,-1.7765,-1.786,-1.775,-1.775,-1.775,-1.7721,-1.7435,-1.7326,-1.7326,-1.7326,-1.7326,-1.7326,-0.3405,-0.3433,-0.3459,-0.3491,-0.3602,-0.372,-0.3753,-0.3978,-0.4088,-0.398,-0.4417,-0.4858,-0.5084,-0.5513,-0.6401,-0.8225,-0.891,-0.9421,-1.0122,-1.0663,-1.0975,-1.0983,-1.0902,-1.0809,-1.091,-1.1018,-1.1005,-1.0762,-1.0752,-1.0603,-1.044,-1.0611,-1.0599,-1.0333,-1.0615,-1.0692,-1.0692,-1.0692,-1.0692,-1.0692,-1.0692,-1.0692,-1.0692,-1.0692,-1.0534,-1.0341,-1.013,-0.9992,-1.0,-1.0189,-1.0498,-1.0692,-1.0692,-1.0692,-1.0692,-1.0692,-1.0692,-1.0692,-1.0692,-1.0692,-1.0692,-1.0692,-1.1021,-1.124,-1.124,-1.1564,-1.21,-1.3073,-1.329,-1.329,-1.329,-1.329,-1.3398,-1.3835,-1.4358,-1.4843,-1.527,-1.5964,-1.651,-1.6501,-1.7613,-1.8247,-1.7877,-1.8156,-1.8275,-1.8094,-1.7457,-1.7338,-1.8053,-1.7101,-1.7134,-1.8327,-1.8185,-1.8303,-1.8957,-1.9472,-1.9368,-1.8736,-1.8601,-1.8676,-1.8808,-1.824,-1.7909,-1.7874,-1.7969,-1.8037,-1.8086,-1.8086,-1.7981,-1.7938,-1.7625,-1.7486,-1.7326,-1.7326,-1.7326,-1.7326]},{"header":{"parameterUnit":"m.s-1","parameterCategory":1,"la1":30.6,"la2":28.766,"lo1":-90.7593,"lo2":-88.6598,"dy":0.0162,"dx":0.0183,"nx":116,"ny":114,"refTime":"2023-05-15T06:00:00:Z","depth":0,"parameterNumber":3,"parameterNumberName":"V-component_of_WINDS"},"data":[0.0,0.0,0.0,0.0,0.0,0.0,0.0,0.0,0.0,0.0,0.0,0.0,0.0,0.0,0.0,0.0,0.0,0.0,0.0,0.0,0.0,0.0,0.0,0.0,0.0,0.0,0.0,0.0,0.0,0.0,0.0,0.0,0.0,0.0,0.0,0.0,0.0,0.0,0.0,0.0,0.0,0.0,0.0,0.0,0.0,0.0,0.0,0.0,0.0,0.0,0.0,0.0,0.0,0.0,0.0,0.0,0.0,0.0,0.0,0.0,0.0,0.0,0.0,0.0,0.0,0.0,0.0,0.0,0.0,0.0,0.0,0.0,0.0,0.0,0.0,0.0,0.0,0.0,0.0,0.0,0.0,0.0,0.0,0.0,0.0,0.0,0.0,0.0,0.0,0.0,0.0,0.0,0.0,0.0,0.0,0.0,0.0,0.0,0.0,0.0,0.0,0.0,0.0,0.0,0.0,0.0,0.0,0.0,0.0,0.0,0.0,0.0,0.0,0.0,0.0,0.0,0.0,0.0,0.0,0.0,0.0,0.0,0.0,0.0,0.0,0.0,0.0,0.0,0.0,0.0,0.0,0.0,0.0,0.0,0.0,0.0,0.0,0.0,0.0,0.0,0.0,0.0,0.0,0.0,0.0,0.0,0.0,0.0,0.0,0.0,0.0,0.0,0.0,0.0,0.0,0.0,0.0,0.0,0.0,0.0,0.0,0.0,0.0,0.0,0.0,0.0,0.0,0.0,0.0,0.0,0.0,0.0,0.0,0.0,0.0,0.0,0.0,0.0,0.0,0.0,0.0,0.0,0.0,0.0,0.0,0.0,0.0,0.0,0.0,0.0,0.0,0.0,0.0,0.0,0.0,0.0,0.0,0.0,0.0,0.0,0.0,0.0,0.0,0.0,0.0,0.0,0.0,0.0,0.0,0.0,0.0,0.0,0.0,0.0,0.0,0.0,0.0,0.0,0.0,0.0,0.0,0.0,0.0,0.0,0.0,0.0,0.0,0.0,0.0,0.0,0.0,0.0,0.0,0.0,0.0,0.0,0.0,0.0,0.0,0.0,0.0,0.0,0.0,0.0,0.0,0.0,0.0,0.0,0.0,0.0,0.0,0.0,0.0,0.0,0.0,0.0,0.0,0.0,0.0,0.0,0.0,0.0,0.0,0.0,0.0,0.0,0.0,0.0,0.0,0.0,0.0,0.0,0.0,0.0,0.0,0.0,0.0,0.0,0.0,0.0,0.0,0.0,0.0,0.0,0.0,0.0,0.0,0.0,0.0,0.0,0.0,0.0,0.0,0.0,0.0,0.0,0.0,0.0,0.0,0.0,0.0,0.0,0.0,0.0,0.0,0.0,0.0,0.0,0.0,0.0,0.0,0.0,0.0,0.0,0.0,0.0,0.0,0.0,0.0,0.0,0.0,0.0,0.0,0.0,0.0,0.0,0.0,0.0,0.0,0.0,0.0,0.0,0.0,0.0,0.0,0.0,0.0,0.0,0.0,0.0,0.0,0.0,0.0,0.0,0.0,0.0,0.0,0.0,0.0,0.0,0.0,0.0,0.0,0.0,0.0,0.0,0.0,0.0,0.0,0.0,0.0,0.0,0.0,0.0,0.0,0.0,0.0,0.0,0.0,0.0,0.0,0.0,0.0,0.0,0.0,0.0,0.0,0.0,0.0,0.0,0.0,0.0,0.0,0.0,0.0,0.0,0.0,0.0,0.0,0.0,0.0,0.0,0.0,0.0,0.0,0.0,0.0,0.0,0.0,0.0,0.0,0.0,0.0,0.0,0.0,0.0,0.0,0.0,0.0,0.0,0.0,0.0,0.0,0.0,0.0,0.0,0.0,0.0,0.0,0.0,0.0,0.0,0.0,0.0,0.0,0.0,0.0,0.0,0.0,0.0,0.0,0.0,0.0,0.0,0.0,0.0,0.0,0.0,0.0,0.0,0.0,0.0,0.0,0.0,0.0,0.0,0.0,0.0,0.0,0.0,0.0,0.0,0.0,0.0,0.0,0.0,0.0,0.0,0.0,0.0,0.0,0.0,0.0,0.0,0.0,0.0,0.0,0.0,0.0,0.0,0.0,0.0,0.0,0.0,0.0,0.0,0.0,0.0,0.0,0.0,0.0,0.0,0.0,0.0,0.0,0.0,0.0,0.0,0.0,0.0,0.0,0.0,0.0,0.0,0.0,0.0,0.0,0.0,0.0,0.0,0.0,0.0,0.0,0.0,0.0,0.0,0.0,0.0,0.0,0.0,0.0,0.0,0.0,0.0,0.0,0.0,0.0,0.0,0.0,0.0,0.0,0.0,0.0,0.0,0.0,0.0,0.0,0.0,0.0,0.0,0.0,0.0,0.0,0.0,0.0,0.0,0.0,0.0,0.0,0.0,0.0,0.0,0.0,0.0,0.0,0.0,0.0,0.0,0.0,0.0,0.0,0.0,0.0,0.0,0.0,0.0,0.0,0.0,0.0,0.0,0.0,0.0,0.0,0.0,0.0,0.0,0.0,0.0,0.0,0.0,0.0,0.0,0.0,0.0,0.0,0.0,0.0,0.0,0.0,0.0,0.0,0.0,0.0,0.0,0.0,0.0,0.0,0.0,0.0,0.0,0.0,0.0,0.0,0.0,0.0,0.0,0.0,0.0,0.0,0.0,0.0,0.0,0.0,0.0,0.0,0.0,0.0,0.0,0.0,0.0,0.0,0.0,0.0,0.0,0.0,0.0,0.0,0.0,0.0,0.0,0.0,0.0,0.0,0.0,0.0,0.0,0.0,0.0,0.0,0.0,0.0,0.0,0.0,0.0,0.0,0.0,0.0,0.0,0.0,0.0,0.0,0.0,0.0,0.0,0.0,0.0,0.0,0.0,0.0,0.0,0.0,0.0,0.0,0.0,0.0,0.0,0.0,0.0,0.0,0.0,0.0,0.0,0.0,0.0,0.0,0.0,0.0,0.0,0.0,0.0,0.0,0.0,0.0,0.0,0.0,0.0,0.0,0.0,0.0,0.0,0.0,0.0,0.0,0.0,0.0,0.0,0.0,0.0,0.0,0.0,0.0,0.0,0.0,0.0,0.0,0.0,0.0,0.0,0.0,0.0,0.0,0.0,0.0,0.0,0.0,0.0,0.0,0.0,0.0,0.0,0.0,0.0,0.0,0.0,0.0,0.0,0.0,0.0,0.0,0.0,0.0,0.0,0.0,0.0,0.0,0.0,0.0,0.0,0.0,0.0,0.0,0.0,0.0,0.0,0.0,0.0,0.0,0.0,0.0,0.0,0.0,0.0,0.0,0.0,0.0,0.0,0.0,0.0,0.0,0.0,0.0,0.0,0.0,0.0,0.0,0.0,0.0,0.0,0.0,0.0,0.0,0.0,0.0,0.0,0.0,0.0,0.0,0.0,0.0,0.0,0.0,0.0,0.0,0.0,0.0,0.0,0.0,0.0,0.0,0.0,0.0,0.0,0.0,0.0,0.0,0.0,0.0,0.0,0.0,0.0,0.0,0.0,0.0,0.0,0.0,0.0,0.0,0.0,0.0,0.0,0.0,0.0,0.0,0.0,0.0,0.0,0.0,0.0,0.0,0.0,0.0,0.0,0.0,0.0,0.0,0.0,0.0,0.0,0.0,0.0,0.0,0.0,0.0,0.0,0.0,0.0,0.0,0.0,0.0,0.0,0.0,0.0,0.0,0.0,0.0,0.0,0.0,0.0,0.0,0.0,0.0,0.0,0.0,0.0,0.0,0.0,0.0,0.0,0.0,0.0,0.0,0.0,0.0,0.0,0.0,0.0,0.0,0.0,0.0,0.0,0.0,0.0,0.0,0.0,0.0,0.0,0.0,0.0,0.0,0.0,0.0,0.0,0.0,0.0,0.0,0.0,0.0,0.0,0.0,0.0,0.0,0.0,0.0,0.0,0.0,0.0,0.0,0.0,0.0,0.0,0.0,0.0,0.0,0.0,0.0,0.0,0.0,0.0,0.0,0.0,0.0,0.0,0.0,0.0,0.0,0.0,0.0,0.0,0.0,0.0,0.0,0.0,0.0,0.0,0.0,0.0,0.0,0.0,0.0,0.0,0.0,0.0,0.0,0.0,0.0,0.0,0.0,0.0,0.0,0.0,0.0,0.0,0.0,0.0,0.0,0.0,0.0,0.0,0.0,0.0,0.0,0.0,0.0,0.0,0.0,0.0,0.0,0.0,0.0,0.0,0.0,0.0,0.0,0.0,0.0,0.0,0.0,0.0,0.0,0.0,0.0,0.0,0.0,0.0,0.0,0.0,0.0,0.0,0.0,0.0,0.0,0.0,0.0,0.0,0.0,0.0,0.0,0.0,0.0,0.0,0.0,0.0,0.0,0.0,0.0,0.0,0.0,0.0,0.0,0.0,0.0,0.0,0.0,0.0,0.0,0.0,0.0,0.0,0.0,0.0,0.0,0.0,0.0,0.0,0.0,0.0,0.0,0.0,0.0,0.0,0.0,0.0,0.0,0.0,0.0,0.0,0.0,0.0,0.0,0.0,0.0,0.0,0.0,0.0,0.0,0.0,0.0,0.0,0.0,0.0,0.0,0.0,0.0,0.0,0.0,0.0,0.0,0.0,0.0,0.0,0.0,0.0,0.0,0.0,0.0,0.0,0.0,0.0,0.0,0.0,0.0,0.0,0.0,0.0,0.0,0.0,0.0,0.0,0.0,0.0,0.0,0.0,0.0,0.0,0.0,0.0,0.0,0.0,0.0,0.0,0.0,0.0,0.0,0.0,0.0,0.0,0.0,0.0,0.0,0.0,0.0,0.0,0.0,0.0,0.0,0.0,0.0,0.0,0.0,0.0,0.0,0.0,0.0,0.0,0.0,0.0,0.0,0.0,0.0,0.0,0.0,0.0,0.0,0.0,0.0,0.0,0.0,0.0,0.0,0.0,0.0,0.0,0.0,0.0,0.0,0.0,0.0,0.0,0.0,0.0,0.0,0.0,0.0,0.0,0.0,0.0,0.0,0.0,0.0,0.0,0.0,0.0,0.0,0.0,0.0,0.0,0.0,0.0,0.0,0.0,0.0,0.0,0.0,0.0,0.0,0.0,0.0,0.0,0.0,0.0,0.0,0.0,0.0,0.0,0.0,0.0,0.0,0.0,0.0,0.0,0.0,0.0,0.0,0.0,0.0,0.0,0.0,0.0,0.0,0.0,0.0,0.0,0.0,0.0,0.0,0.0,0.0,0.0,0.0,0.0,0.0,0.0,0.0,0.0,0.0,0.0,0.0,0.0,0.0,0.0,0.0,0.0,0.0,0.0,0.0,0.0,0.0,0.0,0.0,0.0,0.0,0.0,0.0,0.0,0.0,0.0,0.0,0.0,0.0,0.0,0.0,0.0,0.0,0.0,0.0,0.0,0.0,0.0,0.0,0.0,0.0,0.0,0.0,0.0,0.0,0.0,0.0,0.0,0.0,0.0,0.0,0.0,0.0,0.0,0.0,0.0,0.0,0.0,0.0,0.0,0.0,0.0,0.0,0.0,0.0,0.0,0.0,0.0,0.0,0.0,0.0,0.0,0.0,0.0,0.0,0.0,0.0,0.0,0.0,0.0,0.0,0.0,0.0,0.0,0.0,0.0,0.0,0.0,0.0,0.0,0.0,0.0,0.0,0.0,0.0,0.0,0.0,0.0,0.0,0.0,0.0,0.0,0.0,0.0,0.0,0.0,0.0,0.0,0.0,0.0,0.0,0.0,0.0,0.0,0.0,0.0,0.0,0.0,0.0,0.0,0.0,0.0,0.0,0.0,0.0,0.0,0.0,0.0,0.0,0.0,0.0,0.0,0.0,0.0,0.0,0.0,0.0,0.0,0.0,0.0,0.0,0.0,0.0,0.0,0.0,0.0,0.0,0.0,0.0,0.0,0.0,0.0,0.0,0.0,0.0,0.0,0.0,0.0,0.0,0.0,0.0,0.0,0.0,0.0,0.0,0.0,0.0,0.0,0.0,0.0,0.0,0.0,0.0,0.0,0.0,0.0,0.0,0.0,0.0,0.0,0.0,0.0,0.0,0.0,0.0,0.0,0.0,0.0,0.0,0.0,0.0,0.0,0.0,0.0,0.0,0.0,0.0,0.0,0.0,0.0,-2.6593,0.0,0.0,0.0,0.0,0.0,0.0,0.0,0.0,0.0,0.0,0.0,0.0,0.0,0.0,0.0,0.0,0.0,0.0,0.0,0.0,0.0,0.0,0.0,0.0,0.0,0.0,0.0,0.0,0.0,0.0,0.0,0.0,0.0,0.0,0.0,0.0,0.0,0.0,0.0,0.0,0.0,0.0,-2.3564,-2.1833,-1.9595,0.0,0.0,0.0,0.0,0.0,0.0,0.0,0.0,0.0,0.0,0.0,0.0,0.0,0.0,0.0,0.0,0.0,0.0,0.0,0.0,0.0,0.0,0.0,0.0,0.0,0.0,0.0,0.0,0.0,0.0,0.0,0.0,0.0,0.0,0.0,0.0,0.0,0.0,0.0,0.0,0.0,0.0,0.0,0.0,0.0,0.0,0.0,0.0,0.0,0.0,0.0,0.0,0.0,0.0,0.0,0.0,0.0,0.0,0.0,0.0,0.0,0.0,0.0,0.0,0.0,0.0,0.0,0.0,0.0,0.0,0.0,-2.8027,0.0,0.0,0.0,0.0,0.0,0.0,0.0,0.0,0.0,0.0,0.0,0.0,0.0,0.0,0.0,0.0,0.0,0.0,0.0,0.0,0.0,0.0,0.0,0.0,0.0,0.0,0.0,0.0,0.0,0.0,0.0,0.0,0.0,0.0,0.0,0.0,0.0,0.0,0.0,0.0,0.0,-2.832,-2.6312,-2.2289,-2.1084,0.0,0.0,0.0,0.0,0.0,0.0,0.0,0.0,0.0,0.0,0.0,0.0,0.0,0.0,0.0,0.0,0.0,0.0,0.0,0.0,0.0,0.0,0.0,0.0,0.0,0.0,0.0,0.0,0.0,0.0,0.0,0.0,0.0,0.0,0.0,0.0,0.0,0.0,0.0,0.0,0.0,0.0,0.0,0.0,0.0,0.0,0.0,0.0,0.0,0.0,0.0,0.0,0.0,0.0,0.0,0.0,0.0,0.0,0.0,0.0,0.0,0.0,0.0,-3.3913,-3.5027,-3.5483,-3.6531,-3.7058,-3.7029,-3.4804,-3.3813,-3.3574,0.0,0.0,0.0,0.0,0.0,0.0,0.0,0.0,0.0,0.0,0.0,0.0,0.0,0.0,0.0,0.0,0.0,0.0,0.0,0.0,0.0,0.0,0.0,0.0,0.0,0.0,0.0,0.0,0.0,0.0,0.0,0.0,0.0,0.0,0.0,0.0,0.0,0.0,-3.1366,-3.2179,-3.2266,-3.1472,-2.989,-2.6643,0.0,0.0,0.0,0.0,0.0,0.0,0.0,0.0,0.0,0.0,0.0,0.0,0.0,0.0,0.0,0.0,0.0,0.0,0.0,0.0,0.0,0.0,0.0,0.0,0.0,0.0,0.0,0.0,0.0,0.0,0.0,0.0,0.0,0.0,0.0,0.0,0.0,0.0,0.0,0.0,0.0,0.0,0.0,-3.0709,-3.083,0.0,0.0,0.0,0.0,0.0,0.0,0.0,0.0,0.0,0.0,0.0,0.0,0.0,0.0,-3.2876,-3.5305,-3.6428,-3.6483,-3.9193,-4.033,-4.0145,-4.0804,-4.1204,-4.143,-4.1007,0.0,-3.4163,-3.3839,0.0,0.0,0.0,0.0,0.0,0.0,0.0,0.0,0.0,0.0,0.0,0.0,0.0,0.0,0.0,0.0,0.0,0.0,0.0,0.0,0.0,0.0,0.0,0.0,0.0,0.0,0.0,0.0,0.0,0.0,0.0,0.0,0.0,0.0,0.0,0.0,-3.0951,-3.2608,-3.4187,-3.4568,-3.4582,-3.4197,-3.262,-2.9897,-2.6546,-2.6757,0.0,0.0,0.0,0.0,0.0,0.0,0.0,0.0,0.0,0.0,0.0,0.0,0.0,0.0,0.0,0.0,0.0,0.0,0.0,0.0,0.0,0.0,0.0,0.0,0.0,0.0,0.0,0.0,0.0,0.0,0.0,0.0,0.0,0.0,0.0,0.0,0.0,0.0,0.0,-2.7997,-2.9408,-2.8959,-2.812,-2.6642,0.0,0.0,0.0,0.0,0.0,0.0,0.0,0.0,0.0,-3.3674,-3.5379,-3.6902,-3.8279,-4.0142,-4.0803,-4.0453,-4.2192,-4.2782,-4.2519,-4.3009,-4.3227,-4.3213,-4.3398,-4.1806,-3.9114,-3.7235,-3.5462,-3.3683,0.0,0.0,0.0,0.0,-2.8947,-2.8811,0.0,0.0,0.0,0.0,0.0,0.0,0.0,0.0,0.0,0.0,0.0,0.0,0.0,0.0,0.0,-3.1204,0.0,0.0,0.0,0.0,0.0,0.0,0.0,0.0,0.0,0.0,0.0,-3.2273,-3.2773,-3.4232,-3.6595,-3.6945,-3.7102,-3.7099,-3.6939,-3.4339,-3.0027,-3.0046,-2.9387,0.0,0.0,0.0,0.0,0.0,0.0,0.0,0.0,0.0,0.0,0.0,0.0,0.0,0.0,0.0,0.0,0.0,0.0,0.0,0.0,0.0,0.0,0.0,0.0,0.0,0.0,0.0,0.0,0.0,0.0,0.0,0.0,0.0,0.0,0.0,0.0,0.0,0.0,-2.8749,-2.9955,-2.8869,-2.9831,-2.9057,0.0,0.0,0.0,0.0,0.0,0.0,-3.3018,-3.3872,-3.5506,-3.8033,-4.0039,-4.1709,-4.295,-4.3652,-4.3845,-4.378,-4.4065,-4.409,-4.3931,-4.4279,-4.4317,-4.4129,-4.4317,-4.3967,-4.3026,-4.0308,-3.8658,-3.7518,-3.4525,-3.2989,-3.2377,-3.1942,-3.1557,-3.1694,0.0,0.0,0.0,0.0,0.0,0.0,0.0,0.0,0.0,0.0,0.0,0.0,0.0,0.0,-3.1296,-3.2166,-3.2676,-3.262,0.0,0.0,0.0,0.0,0.0,0.0,0.0,0.0,0.0,-3.3512,-3.5751,-3.8104,-4.0588,-4.0131,-3.9547,-3.8944,-3.8356,-3.6636,-3.4151,-3.3259,-3.227,-3.104,0.0,0.0,0.0,0.0,0.0,0.0,0.0,0.0,0.0,0.0,0.0,0.0,0.0,0.0,0.0,0.0,0.0,0.0,0.0,0.0,0.0,0.0,0.0,0.0,0.0,0.0,0.0,0.0,0.0,0.0,0.0,0.0,0.0,0.0,0.0,0.0,0.0,0.0,0.0,-3.4625,-3.6342,0.0,0.0,0.0,0.0,-3.1626,-3.2424,-3.3723,-3.5371,-3.725,-3.9253,-4.1404,-4.3065,-4.4647,-4.5938,-4.4953,-4.4959,-4.6041,-4.4864,-4.4531,-4.4871,-4.4489,-4.4411,-4.4411,-4.4411,-4.4059,-4.3441,-4.2697,-4.0782,-3.82,-3.7262,-3.5241,-3.3037,-3.4349,-3.4388,-3.4082,0.0,0.0,0.0,0.0,0.0,0.0,0.0,0.0,0.0,0.0,0.0,0.0,0.0,-3.3062,-3.4786,-3.6582,-3.6786,-3.637,-3.5404,0.0,0.0,0.0,0.0,0.0,0.0,0.0,-3.2179,-3.4588,-3.5601,-3.6843,-3.8257,-3.8517,-3.8763,-3.9083,-3.8747,-3.8614,-3.8594,-3.6935,-3.5459,-3.4138,-3.3421,-3.1166,0.0,0.0,0.0,0.0,0.0,0.0,0.0,0.0,0.0,0.0,0.0,0.0,0.0,0.0,0.0,0.0,0.0,0.0,0.0,0.0,0.0,0.0,0.0,0.0,0.0,0.0,0.0,0.0,0.0,0.0,0.0,0.0,0.0,0.0,0.0,0.0,0.0,-3.4711,-3.7241,0.0,-3.4499,-3.597,-3.6993,-3.6744,-3.8273,-3.9419,-3.9921,-4.1064,-4.2453,-4.4001,-4.5473,-4.637,-4.6718,-4.7014,-4.6643,-4.5647,-4.5633,-4.5214,-4.4531,-4.4415,-4.4411,-4.4397,-4.3989,-4.3588,-4.323,-4.2614,-4.1532,-4.0145,-3.9106,-3.7836,-3.6743,-3.7261,-3.7139,-3.692,0.0,0.0,0.0,0.0,0.0,0.0,0.0,0.0,0.0,0.0,0.0,-2.9891,-3.3088,-3.5139,-3.7257,-3.9633,-3.9565,-3.8987,-3.8011,0.0,0.0,0.0,-2.9848,0.0,0.0,-3.2091,-3.3682,-3.5648,-3.5968,-3.6566,-3.7492,-3.7694,-3.8077,-3.8564,-3.8512,-3.919,-4.0349,-3.9068,-3.7901,-3.6897,-3.6584,-3.4563,-3.1572,0.0,0.0,0.0,0.0,0.0,0.0,0.0,0.0,0.0,0.0,0.0,0.0,0.0,0.0,0.0,0.0,0.0,0.0,0.0,0.0,0.0,0.0,0.0,0.0,0.0,0.0,0.0,0.0,0.0,0.0,0.0,0.0,0.0,0.0,0.0,-3.6993,-3.4979,-3.8687,-4.0131,-3.7038,-3.9631,-4.1449,-4.1308,-4.2447,-4.3379,-4.4015,-4.4684,-4.5373,-4.6239,-4.7278,-4.7592,-4.7076,-4.7157,-4.669,-4.5665,-4.5663,-4.5242,-4.4517,-4.4415,-4.4205,-4.3967,-4.356,-4.2956,-4.2356,-4.207,-4.1439,-4.0719,-4.0145,-3.9604,-3.9092,-3.8922,-3.8615,-3.8493,0.0,0.0,0.0,0.0,0.0,0.0,0.0,0.0,0.0,0.0,-2.8042,-3.033,-3.3614,-3.6045,-3.8417,-4.0836,-4.0603,-4.0037,-3.932,-3.5821,0.0,0.0,0.0,0.0,-3.1611,-3.4727,-3.6502,-3.6781,-3.6939,-3.7609,-3.8712,-3.8017,-3.7662,-3.7517,-3.7721,-3.8391,-3.937,-3.9575,-3.9564,-3.9204,-3.7334,-3.7165,-3.7406,0.0,0.0,0.0,0.0,0.0,0.0,0.0,0.0,0.0,0.0,0.0,0.0,0.0,0.0,0.0,0.0,0.0,0.0,0.0,0.0,0.0,0.0,0.0,0.0,0.0,0.0,0.0,0.0,0.0,0.0,0.0,0.0,0.0,-3.2073,-3.559,-3.7847,-3.6139,-4.1109,-4.3574,-4.0845,-4.3596,-4.5441,-4.512,-4.4766,-4.5378,-4.7145,-4.7761,-4.7939,-4.7689,-4.8235,-4.8119,-4.7152,-4.5392,-4.5078,-4.6293,-4.5009,-4.4545,-4.4885,-4.4583,-4.3967,-4.3074,-4.3046,-4.2272,-4.0949,-4.127,-4.074,-3.9755,-4.0357,-4.0206,-3.961,-3.9061,-3.8847,-3.8799,0.0,0.0,0.0,0.0,0.0,0.0,0.0,0.0,0.0,0.0,-2.9733,-3.1962,-3.5205,-3.7262,-3.8817,-3.984,-3.9288,-3.8159,-3.6474,0.0,0.0,0.0,0.0,0.0,-3.4516,-3.5542,-3.6035,-3.6078,-3.6036,-3.632,-3.6914,-3.6488,-3.6835,-3.7864,-3.7831,-3.8879,-4.0663,-4.0669,-4.0963,-4.1376,-4.0861,-3.9933,-3.8701,0.0,0.0,0.0,0.0,0.0,0.0,0.0,0.0,0.0,0.0,0.0,0.0,0.0,0.0,0.0,0.0,0.0,0.0,0.0,0.0,0.0,0.0,0.0,0.0,0.0,0.0,0.0,0.0,0.0,0.0,0.0,0.0,-3.8537,-3.7743,-3.9959,-4.2024,-4.317,-4.3903,-4.4443,-4.4443,-4.6023,-4.7249,-4.7615,-4.7131,-4.6724,-4.6691,-4.6639,-4.6475,-4.5967,-4.6829,-4.6879,-4.6121,-4.5895,-4.5481,-4.4993,-4.5018,-4.4836,-4.4555,-4.4387,-4.4074,-4.3364,-4.2705,-4.1883,-4.088,-4.0378,-4.0225,-4.043,-4.0984,-4.0419,-3.9308,-3.99,-4.0026,-3.9712,0.0,0.0,0.0,0.0,0.0,0.0,0.0,0.0,0.0,0.0,-3.0036,-3.2167,-3.5097,-3.6884,-3.8153,-3.8782,-3.7694,-3.63,-3.4705,0.0,0.0,0.0,0.0,-3.3797,-3.6256,-3.6432,-3.638,-3.6131,-3.5703,-3.5775,-3.6221,-3.6019,-3.6811,-3.8415,-3.842,-3.9571,-4.1487,-4.1537,-4.2084,-4.2973,-4.3083,-4.2425,-4.122,-4.0034,-3.9336,-3.8729,-3.7009,-3.5775,-3.4888,-3.4105,0.0,0.0,0.0,0.0,0.0,0.0,0.0,0.0,0.0,0.0,0.0,0.0,0.0,0.0,0.0,0.0,0.0,0.0,0.0,0.0,0.0,0.0,0.0,0.0,-3.9743,-4.37,-4.4521,-4.4884,-4.5571,-4.7143,-4.6574,-4.6643,-4.7943,-4.8239,-4.8679,-4.939,-4.8703,-4.8208,-4.8201,-4.7715,-4.7128,-4.6475,-4.6872,-4.6598,-4.5529,-4.5641,-4.5363,-4.4804,-4.4902,-4.4762,-4.4397,-4.4144,-4.3588,0.0,-4.2161,-4.1369,-4.0507,-3.9986,-3.9844,0.0,0.0,0.0,0.0,0.0,-4.0182,-4.0442,0.0,0.0,0.0,0.0,0.0,0.0,0.0,0.0,0.0,0.0,0.0,-3.142,-3.3886,-3.547,-3.6622,-3.7286,-3.5809,-3.4418,0.0,0.0,0.0,-3.2736,-3.3753,-3.5192,-3.7217,-3.7284,-3.7075,-3.6579,-3.581,-3.5675,-3.6148,-3.6113,-3.7041,-3.8761,-3.9111,-4.0224,-4.1873,-4.211,-4.2939,-4.4121,-4.4102,-4.4186,-4.4073,-4.1514,-4.1946,-4.344,-3.9872,-3.903,-3.9507,-3.8764,0.0,0.0,0.0,0.0,0.0,0.0,0.0,0.0,0.0,0.0,0.0,0.0,0.0,0.0,0.0,0.0,0.0,0.0,0.0,0.0,0.0,0.0,0.0,0.0,-4.4576,-4.8941,-5.0788,-4.9655,-4.8719,-4.9161,-4.8787,-4.9165,-5.0617,-4.9861,-4.9668,-5.0547,-4.9596,-4.9561,-5.0637,0.0,0.0,0.0,0.0,-4.6732,-4.5436,-4.5007,-4.4978,-4.531,-4.4706,-4.4369,-4.4284,-4.3736,-4.2999,-4.2119,-4.1527,-4.0854,-4.0009,-3.9996,-3.9764,-3.9549,-4.0097,-4.0404,-4.0297,-3.9197,-3.9722,-4.0849,0.0,0.0,0.0,0.0,0.0,0.0,0.0,0.0,0.0,-2.7932,-2.9011,-3.0571,-3.3063,-3.4232,-3.4573,-3.3916,-3.3486,-3.2484,0.0,0.0,-3.196,-3.2906,-3.4862,-3.6427,-3.7514,-3.7393,-3.7033,-3.6527,-3.5994,-3.5575,-3.525,-3.4957,-3.5684,-3.729,-3.8497,-3.9973,-4.1542,-4.205,-4.3278,-4.4688,-4.3321,-4.3542,-4.465,-4.4199,-4.4763,-4.5694,-4.4893,-4.4399,-4.4018,-4.3244,-4.2242,-4.116,-4.0091,0.0,0.0,0.0,0.0,0.0,0.0,0.0,0.0,0.0,0.0,0.0,0.0,0.0,0.0,0.0,0.0,0.0,0.0,0.0,0.0,-4.0864,-4.5304,-4.9262,-5.1288,-5.1816,-5.1648,-5.0993,-4.9952,-4.918,-4.9208,-4.9484,-5.0135,-5.147,-4.9849,-4.9399,-5.0758,-4.8857,0.0,-4.7579,-4.7071,-4.6714,-4.6359,-4.556,-4.5212,-4.531,0.0,0.0,-4.3666,-4.3561,-4.2885,-4.1695,-4.1435,-4.0956,-4.0298,-4.0097,-4.0746,-4.1695,-3.9691,-3.9688,-4.071,-3.9328,-3.9328,-4.001,0.0,0.0,0.0,0.0,0.0,0.0,0.0,0.0,0.0,0.0,-2.8223,-2.923,-3.046,-3.1352,-3.1313,-2.995,-2.9712,0.0,0.0,-3.1091,-3.2856,-3.434,-3.5919,-3.6861,-3.71,-3.662,-3.6371,-3.639,-3.5367,-3.5155,-3.5745,-3.523,-3.639,-3.8878,-3.9677,-4.1283,-4.3355,-4.3194,-4.3664,-4.4393,-4.3156,-4.3363,-4.4446,-4.4481,-4.5303,-4.6421,-4.6108,-4.6089,-4.6078,-4.5244,-4.481,-4.4383,-4.2927,-4.2265,-4.1376,0.0,0.0,0.0,0.0,0.0,0.0,0.0,0.0,0.0,0.0,0.0,0.0,0.0,0.0,-3.6017,0.0,0.0,-4.2849,-4.5634,-4.8721,-5.1288,-5.249,-5.3004,-5.3139,-5.2972,-5.1556,-5.0696,-5.0905,-5.06,-5.0819,-5.2009,-5.0683,-4.999,-5.0578,-4.8993,-4.789,-4.7356,-4.6974,-4.6608,-4.6011,-4.5977,-4.5543,-4.486,-4.4541,-4.4075,-4.3469,-4.2885,-4.2163,-4.1601,-4.1131,-4.0838,-4.053,-4.0108,-4.0519,-4.1242,-3.9722,-4.0562,-4.2362,-4.0204,-3.9847,-4.0368,0.0,0.0,0.0,0.0,0.0,0.0,0.0,0.0,0.0,0.0,-2.7434,-2.7867,-2.7872,-2.8443,-2.8152,0.0,0.0,0.0,0.0,-3.1252,-3.358,-3.5628,-3.6429,-3.6689,-3.6403,-3.571,-3.5621,-3.6168,-3.4884,-3.4899,-3.6159,-3.5819,-3.7299,-4.0268,-4.0783,-4.2431,-4.4786,-4.3923,-4.3884,-4.4209,-4.2936,-4.3205,-4.4379,-4.3963,-4.4863,-4.6321,-4.6039,-4.6275,-4.6692,-4.6341,-4.6651,-4.6902,-4.5389,-4.4649,-4.3535,-3.9642,-3.8955,0.0,0.0,0.0,0.0,0.0,0.0,0.0,0.0,0.0,-3.4202,-3.6353,-3.8062,-4.0259,-4.3859,-4.4959,-4.6521,-5.0266,-5.1938,-5.2994,-5.3652,-5.3556,-5.3658,-5.4352,-5.2808,-5.1976,-5.2486,-5.1632,-5.1391,-5.2275,-5.1456,-5.0801,-5.0472,-4.9298,-4.8199,-4.7418,-4.707,-4.6618,-4.5957,-4.6243,-4.5832,-4.4738,-4.4493,-4.3998,-4.3287,-4.2284,-4.1751,-4.1587,-4.0907,-4.0628,-4.0574,-3.9814,-3.9816,-4.0199,-3.9743,-4.1222,-4.3285,-4.0904,-4.0427,-4.0875,0.0,0.0,0.0,0.0,0.0,0.0,0.0,0.0,0.0,0.0,0.0,0.0,0.0,0.0,0.0,0.0,0.0,0.0,-2.9542,-3.2101,-3.4108,-3.5392,-3.5725,-3.5805,-3.5702,-3.5395,-3.5395,-3.5776,-3.5528,-3.5263,-3.5,-3.5837,-3.684,-3.8054,-3.9788,-4.1543,-4.3124,-4.2367,-4.3378,-4.5233,-4.1979,-4.2614,-4.5356,-4.3789,-4.4166,-4.5649,-4.6467,-4.6323,-4.6005,-4.7569,-4.7622,-4.7113,-4.7648,-4.5728,-4.288,-4.0886,0.0,-3.5412,-3.2491,-3.2084,-3.3287,-3.6591,-3.6217,-3.6473,0.0,0.0,-4.1102,-4.3992,-4.5688,-4.7122,-4.8622,-4.9128,-4.9826,-5.1354,-5.1873,-5.2549,-5.3908,-5.3653,-5.3465,-5.396,-5.2271,-5.0913,-5.0568,-5.1163,-5.1835,-5.2634,-5.1759,-5.1028,-5.0819,-4.9159,-4.8006,-4.7677,-4.7153,-4.7033,-4.764,-4.6375,-4.591,-4.6042,-4.4987,-4.3764,-4.2697,-4.2606,-4.2189,-4.1527,-4.0797,-4.0479,-4.0385,-3.9183,-3.9312,-4.0256,-3.927,-3.9731,-4.1011,-4.0118,-4.0099,-4.0396,0.0,0.0,0.0,0.0,0.0,0.0,0.0,0.0,0.0,0.0,0.0,0.0,0.0,0.0,0.0,0.0,0.0,0.0,-2.8707,-3.1503,-3.3441,-3.4138,-3.4743,-3.4879,-3.45,-3.4843,-3.5457,-3.6335,-3.5876,-3.5873,-3.6272,-3.6379,-3.7183,-3.867,-4.0577,-4.2125,-4.3346,-4.4059,-4.4698,-4.5103,-4.3617,-4.4208,-4.586,-4.4576,-4.3889,-4.371,-4.4498,-4.4647,0.0,0.0,-4.5118,-4.5471,-4.4751,-4.4206,-4.3134,-3.9408,-3.8627,0.0,-3.7553,-3.6876,-3.6979,0.0,-3.9815,-4.0799,-4.312,-4.3129,-4.348,-4.651,-4.8403,-5.008,-5.1752,-5.1965,-5.2134,0.0,-5.3177,-5.3097,-5.3501,-5.3204,-5.2627,-5.1774,-5.0851,-5.0544,-5.1081,-5.1461,-5.1665,-5.1834,-5.1436,-5.0858,-4.992,-4.8958,-4.8108,-4.7377,-4.7261,-4.7008,-4.669,-4.6347,-4.5872,-4.5214,-4.4323,-4.3406,-4.2606,-4.1979,-4.1493,-4.1223,-4.0568,-4.0191,-4.0014,-3.9586,-3.9197,-3.8927,-3.9481,-3.9944,-4.0167,-3.9634,-3.9665,-3.9862,0.0,0.0,0.0,0.0,0.0,0.0,0.0,0.0,0.0,0.0,0.0,0.0,0.0,0.0,0.0,0.0,0.0,0.0,0.0,-3.0607,-3.2433,-3.3171,-3.3828,-3.4,-3.3643,-3.4257,-3.5116,-3.6179,-3.5945,-3.6289,-3.711,-3.7264,-3.8202,-3.9805,-4.1435,-4.283,-4.4031,-4.5051,-4.5382,-4.5188,-4.4733,-4.5203,-4.6027,-4.4608,-4.332,-4.2366,-4.3089,-4.2685,0.0,0.0,-4.1895,-4.2279,-4.1158,-4.1186,-4.0945,-3.7411,-3.7526,-3.8878,-3.9511,-3.9169,-3.9004,-4.0524,-4.2176,-4.3544,-4.3805,-4.4301,-4.5504,-4.8192,-5.0245,-5.2046,-5.3776,-5.4011,-5.4013,-5.4457,-5.4195,-5.375,-5.316,-5.2618,-5.1782,-5.0266,-4.9809,-4.9875,-5.05,-5.0627,-5.0738,-5.0816,-5.0573,-4.9994,-4.9016,-4.8755,-4.8281,-4.7401,-4.7326,-4.7001,-4.6201,-4.6101,-4.5591,-4.4471,-4.3821,-4.3181,-4.2488,-4.1544,-4.1022,-4.0669,-4.0212,-3.9849,-3.9503,-3.9545,-3.8826,-3.7803,-3.9177,-3.9509,-3.9157,-3.8587,-3.89,-3.9498,0.0,0.0,0.0,0.0,0.0,0.0,0.0,0.0,0.0,0.0,0.0,0.0,0.0,0.0,0.0,0.0,0.0,0.0,0.0,-2.9608,-3.127,-3.2845,-3.3068,-3.322,-3.3419,-3.3698,-3.4087,-3.4583,-3.5704,-3.6394,-3.6661,-3.852,-3.9917,-4.0898,-4.1863,-4.326,-4.4807,-4.4022,-4.4598,-4.5914,-4.4288,-4.4635,-4.5824,-4.3175,-4.2187,-4.2319,-4.3189,0.0,0.0,0.0,-3.8538,-3.7274,-3.8061,-3.6616,0.0,-3.5427,-3.3953,-3.2627,-3.5173,-3.5795,-3.6825,-4.1445,-4.2653,-4.3315,-4.5963,-4.7273,-4.8345,-5.0167,-5.2208,-5.3895,-5.4526,-5.5339,-5.5471,-5.4116,-5.4351,-5.4295,-5.3248,-5.2113,-5.1068,-5.038,-4.9613,-4.879,0.0,-4.8179,-4.8983,-4.9864,-4.9058,-4.8511,-4.8496,-4.8525,-4.8418,-4.8053,-4.7497,-4.7278,-4.7362,-4.5688,-4.4758,-4.462,-4.3956,-4.2971,-4.1951,-4.1924,-4.1112,-3.9928,-3.9997,-3.9455,-3.8578,-3.822,-3.7872,-3.7701,-3.7573,-3.7546,-3.7302,-3.6791,-3.7896,-3.9305,0.0,0.0,0.0,0.0,0.0,0.0,0.0,0.0,0.0,0.0,0.0,0.0,0.0,0.0,0.0,0.0,0.0,0.0,0.0,-2.9134,-3.0571,-3.1465,-3.2493,-3.3214,-3.3661,-3.4895,-3.5571,-3.5626,-3.6689,-3.7053,-3.6755,-3.8091,-3.8924,-3.9409,-4.2015,-4.3195,-4.3359,-4.5252,-4.6401,-4.686,-4.5718,-4.5547,-4.569,-4.3083,-4.1,-3.9449,0.0,0.0,0.0,0.0,-3.6087,-3.5953,-3.5098,-3.462,-3.4193,-3.3334,-3.2609,-3.2789,-3.6073,-3.779,-3.959,-4.3512,-4.5003,-4.5879,-4.7043,-4.7983,-4.8758,-4.9144,-4.8827,-4.8544,-4.8938,-5.0238,-5.094,-5.0089,-5.2818,-5.4685,-5.3671,-5.2635,-5.1317,-4.9478,-4.8745,0.0,0.0,0.0,0.0,-4.768,-4.8062,-4.7843,-4.6677,-4.7333,-4.7276,-4.6146,-4.6951,-4.6583,-4.519,-4.5708,-4.52,-4.3464,-4.2873,-4.2137,-4.1436,-4.1462,-4.1076,-4.0206,-3.973,-3.9364,-3.9199,-3.8532,-3.8093,-3.7847,-3.8186,-3.7924,-3.7352,-3.6792,-3.7161,-3.7705,0.0,0.0,0.0,0.0,0.0,0.0,0.0,0.0,0.0,0.0,0.0,0.0,0.0,0.0,0.0,0.0,0.0,0.0,0.0,0.0,-2.9209,-2.9651,-3.0837,-3.1733,-3.2177,-3.3355,-3.4017,-3.4074,-3.568,-3.6315,-3.6018,-3.7918,-3.9006,-3.9494,-4.2046,-4.3237,-4.3417,-4.4841,-4.5638,-4.5833,-4.4597,-4.4039,-4.3678,-4.1416,-3.9124,0.0,0.0,0.0,0.0,0.0,-3.367,-3.3711,-3.2624,-3.265,-3.2966,-3.2244,-3.2327,-3.3538,-3.7496,-3.9423,-4.1222,-4.5098,-4.6157,-4.6579,-4.7686,-4.8084,-4.8379,-4.8765,-4.708,-4.5513,-4.576,-4.6566,-4.6745,-4.5214,-4.8207,-5.0691,-5.0341,-4.9588,-4.8852,-4.8384,-4.7658,-4.6483,0.0,0.0,0.0,-4.6278,-4.6746,-4.6641,-4.5732,-4.6263,-4.6291,-4.5529,-4.6203,-4.5705,-4.4056,-4.5303,-4.4855,-4.2905,-4.2145,-4.1603,-4.1192,-4.1287,-4.0885,-4.0298,-3.9641,-3.929,-3.9164,-3.8597,-3.8117,-3.7768,-3.8298,-3.8036,-3.7217,-3.6453,-3.6453,-3.6662,0.0,0.0,0.0,0.0,0.0,0.0,0.0,0.0,0.0,0.0,0.0,0.0,0.0,0.0,0.0,0.0,0.0,0.0,0.0,0.0,0.0,-2.7587,-2.8388,-2.8995,-2.9327,-2.9557,-2.9863,-3.0212,-3.2861,-3.4205,-3.436,-3.7741,-3.9764,-4.0648,-4.1601,-4.2994,-4.4452,-4.2634,-4.2342,-4.293,-4.1031,-4.0256,-4.0067,-3.8267,0.0,0.0,0.0,0.0,0.0,0.0,-3.148,-3.0869,-3.0914,-3.0955,-3.1173,-3.2237,-3.3072,-3.4652,-3.907,-4.0429,-4.1654,-4.6029,-4.5993,-4.544,-4.7794,-4.7561,-4.7304,-4.8788,-4.6786,-4.473,0.0,0.0,-4.3148,-3.9971,-4.1517,-4.3437,-4.4394,-4.3647,-4.4072,0.0,0.0,0.0,0.0,0.0,0.0,-4.5389,0.0,-4.4945,-4.5539,-4.5377,-4.5549,-4.6125,-4.5382,-4.4697,-4.4067,-4.4371,-4.3909,-4.2884,-4.1786,-4.1311,-4.1311,-4.1311,-4.0772,-4.0063,-3.968,-3.9107,-3.8346,-3.8346,-3.8036,-3.7516,-3.7844,-3.757,-3.6983,-3.5853,-3.5801,-3.6198,0.0,0.0,0.0,0.0,0.0,0.0,0.0,0.0,0.0,0.0,0.0,0.0,0.0,0.0,0.0,0.0,0.0,0.0,0.0,0.0,0.0,0.0,0.0,0.0,0.0,0.0,0.0,-3.0423,-3.1781,-3.2124,-3.1542,-3.3086,-3.4273,-3.5181,-3.6618,-3.7844,-3.882,-3.8821,-3.9327,-3.9946,0.0,-3.777,-3.798,0.0,0.0,0.0,0.0,0.0,0.0,0.0,0.0,-3.2919,-3.284,-3.3039,-3.3478,-3.4255,-3.5207,-3.658,-3.9467,-4.1163,-4.2703,-4.5158,-4.5662,-4.5633,-4.5978,-4.6367,-4.5976,-4.3815,-4.1536,-3.8951,0.0,0.0,0.0,-3.8758,-4.3211,0.0,-4.8758,-4.6175,0.0,-4.5532,0.0,-4.2,-4.1098,-4.0684,0.0,0.0,-4.2971,-4.356,-4.4121,-4.4757,-4.4691,-4.3822,-4.4658,-4.4307,-4.2699,-4.2366,-4.2391,-4.2984,-4.18,-4.1224,-4.1036,-4.1036,-4.0365,-3.9115,-3.9338,-3.8902,-3.8088,-3.7884,-3.7795,-3.7844,-3.7505,-3.7062,-3.6675,-3.6014,-3.6016,-3.6286,0.0,0.0,0.0,0.0,0.0,0.0,0.0,0.0,0.0,0.0,0.0,0.0,0.0,0.0,0.0,0.0,0.0,0.0,0.0,0.0,0.0,0.0,0.0,0.0,0.0,0.0,0.0,0.0,0.0,0.0,-2.9439,-3.1081,-3.2288,-3.3141,-3.4415,-3.5621,-3.6659,-3.6214,0.0,0.0,0.0,0.0,0.0,0.0,0.0,0.0,0.0,0.0,0.0,0.0,0.0,-3.4338,-3.4784,-3.4953,-3.5223,-3.6471,0.0,-3.8152,-4.0268,-4.1832,-4.3269,-4.4693,-4.5287,-4.5163,-4.3981,-4.3715,-4.286,-3.9764,-3.671,0.0,-3.1555,-3.3339,0.0,0.0,0.0,0.0,-4.3537,-4.148,-4.0664,0.0,-4.1202,0.0,-3.9479,-3.8786,-3.8601,0.0,-4.0501,-4.1413,-4.2168,-4.2713,-4.257,-4.1868,-4.3145,-4.3439,-4.2449,-4.166,-4.1738,-4.2456,-4.1511,-4.1023,-4.0758,-4.0733,-4.0259,-3.9543,0.0,-3.906,-3.8326,-3.7782,-3.754,-3.7381,-3.6993,-3.6514,-3.6079,-3.5549,-3.5641,-3.5897,0.0,0.0,0.0,0.0,0.0,0.0,0.0,0.0,0.0,0.0,-2.6149,0.0,0.0,0.0,0.0,0.0,0.0,0.0,0.0,0.0,0.0,0.0,0.0,0.0,0.0,0.0,0.0,0.0,0.0,0.0,0.0,0.0,0.0,0.0,0.0,0.0,0.0,0.0,0.0,0.0,0.0,0.0,0.0,0.0,0.0,0.0,0.0,0.0,0.0,0.0,-3.524,-3.5587,-3.6662,-3.6754,-3.6858,-3.8755,-3.9347,-3.9726,-4.1544,-4.262,-4.3539,-4.4659,-4.4887,-4.4249,-4.2037,-4.0754,-3.9212,-3.627,0.0,-2.9986,-2.9455,-2.9831,-2.9746,-2.8349,0.0,-3.2997,-3.5601,-3.4669,-3.5292,-3.9495,-3.8608,-3.7568,-3.7494,-3.6485,-3.6144,-3.6601,-3.7649,-3.8741,-4.0007,-4.0173,-4.03,-4.0414,-4.1451,-4.2291,-4.2684,-4.1706,-4.1321,-4.1621,-4.1092,-4.072,-4.0492,-4.0428,-4.0364,-4.0262,0.0,0.0,-3.8536,-3.7871,-3.7242,-3.6628,-3.6452,-3.6069,-3.5579,-3.4951,-3.5115,-3.5416,0.0,0.0,0.0,0.0,0.0,0.0,0.0,0.0,0.0,0.0,-2.5036,-2.4969,0.0,0.0,0.0,0.0,0.0,0.0,0.0,0.0,0.0,0.0,0.0,0.0,0.0,0.0,0.0,0.0,0.0,0.0,0.0,0.0,0.0,0.0,0.0,0.0,0.0,0.0,0.0,0.0,0.0,0.0,0.0,0.0,0.0,0.0,0.0,0.0,0.0,0.0,-3.6693,-3.7592,-3.8358,-3.8783,-3.9412,-4.118,-4.1599,-4.1882,-4.3663,-4.3997,-4.4072,-4.5187,-4.4751,-4.3432,-4.0815,-3.9606,0.0,0.0,-3.1174,-2.9554,-2.6644,-2.7177,-2.8837,-3.1254,-3.1965,-3.4157,-3.952,-3.6452,-3.4861,0.0,0.0,0.0,0.0,0.0,0.0,0.0,0.0,-3.5284,-3.8423,-3.9303,-3.9969,-4.0769,-4.0987,-4.1178,-4.1282,-4.0797,-4.067,-4.0683,-4.067,-4.0402,-4.0198,-4.0185,-3.9842,-3.9209,0.0,0.0,-3.7518,-3.7321,-3.6956,-3.6452,-3.6452,-3.6307,-3.6094,-3.509,-3.5366,-3.5981,0.0,0.0,0.0,0.0,0.0,0.0,0.0,-2.3489,-2.381,-2.4623,-2.4458,-2.4574,-2.539,-2.5612,-2.5687,0.0,0.0,0.0,0.0,0.0,0.0,0.0,0.0,0.0,0.0,0.0,0.0,0.0,0.0,0.0,0.0,0.0,0.0,0.0,0.0,0.0,0.0,0.0,0.0,0.0,0.0,0.0,0.0,0.0,0.0,0.0,0.0,0.0,0.0,0.0,-3.5155,-3.6774,-3.9295,-4.011,-4.0456,-4.215,-4.2456,-4.2475,-4.377,-4.4129,-4.4245,-4.4456,-4.4026,-4.2378,-3.8009,0.0,0.0,0.0,-2.739,-2.6447,-2.4545,-2.4869,0.0,-2.7672,-2.8871,-3.0618,-3.3846,-3.2732,0.0,-3.4256,0.0,0.0,0.0,0.0,0.0,0.0,0.0,-3.3693,-3.6189,-3.7733,-3.8963,-3.9943,-4.0478,-4.0707,-4.0644,-4.0517,-4.0389,-4.0262,-4.0275,-4.0007,-3.9487,-3.9726,-3.9486,-3.8868,-3.8868,0.0,-3.7588,-3.7299,-3.686,-3.6358,-3.6358,-3.6188,-3.5906,-3.5311,-3.5303,-3.5353,0.0,0.0,0.0,0.0,0.0,0.0,0.0,-2.3234,-2.3666,-2.4032,-2.4146,-2.4476,-2.5298,-2.5556,-2.5643,0.0,0.0,0.0,0.0,0.0,0.0,0.0,0.0,0.0,0.0,0.0,0.0,0.0,0.0,0.0,0.0,0.0,0.0,0.0,0.0,0.0,0.0,0.0,0.0,0.0,0.0,0.0,0.0,0.0,0.0,0.0,0.0,0.0,0.0,0.0,-3.2892,-3.4474,-3.832,-3.9692,-4.0202,-4.1841,-4.24,-4.2656,-4.3654,-4.4345,-4.4694,-4.4054,-4.3614,-4.1733,-3.5863,-3.3757,0.0,-2.5928,-2.4236,-2.3565,-2.2968,-2.2811,-2.2923,0.0,-2.454,-2.5954,-2.7494,-2.8376,-2.9285,0.0,0.0,0.0,0.0,0.0,0.0,0.0,0.0,0.0,-3.4482,-3.6435,-3.7995,-3.8931,-3.9905,-4.0415,-4.0364,-4.0326,-4.0122,-3.9867,-3.9791,-3.9474,-3.868,-3.9094,-3.9094,-3.868,-3.8555,0.0,0.0,-3.7236,-3.6759,-3.6358,-3.6358,-3.615,-3.5655,-3.5587,-3.5249,-3.4898,0.0,0.0,0.0,0.0,0.0,0.0,0.0,-2.2241,-2.2286,-2.3803,-2.4069,-2.4422,-2.5226,-2.5486,-2.5576,0.0,0.0,0.0,0.0,0.0,0.0,0.0,0.0,0.0,0.0,0.0,0.0,0.0,0.0,0.0,0.0,0.0,0.0,0.0,0.0,0.0,0.0,0.0,0.0,0.0,0.0,0.0,0.0,0.0,0.0,0.0,0.0,0.0,0.0,0.0,0.0,-3.0999,-3.372,-3.6063,-3.8087,-3.9714,0.0,0.0,-4.4812,-4.5699,-4.6,-4.5475,-4.4401,-4.1986,-3.6256,0.0,-3.1432,-2.5849,-2.4118,-2.3222,-2.1972,-2.1019,-2.0766,-2.1873,0.0,-2.2067,-2.716,-2.6745,-2.7025,-3.0176,0.0,0.0,0.0,0.0,0.0,0.0,0.0,0.0,0.0,-3.6237,-3.7709,-3.8234,-3.9473,-4.0173,-4.0147,-3.9878,-3.9548,-3.9045,-3.9045,-3.8642,-3.8078,-3.814,-3.814,-3.8065,-3.7563,0.0,0.0,-3.6659,-3.6408,-3.6358,-3.6358,-3.6345,-3.627,-3.5742,-3.5656,-3.5799,0.0,0.0,0.0,0.0,0.0,0.0,-2.303,-2.2603,-2.2605,-2.3303,-2.3886,-2.4508,-2.5288,-2.543,-2.5444,-2.5401,0.0,0.0,0.0,0.0,0.0,0.0,0.0,0.0,0.0,0.0,0.0,0.0,0.0,0.0,0.0,0.0,0.0,0.0,0.0,0.0,0.0,0.0,0.0,0.0,0.0,0.0,0.0,0.0,0.0,0.0,0.0,0.0,0.0,0.0,0.0,0.0,-2.9393,-3.1247,0.0,0.0,-4.0939,-4.2701,-4.4696,-4.6084,-4.6639,-4.5172,-4.2414,-3.9012,-3.4999,0.0,-2.8106,-2.4874,-2.3629,-2.2761,-2.1633,-2.01,-1.8933,-1.8686,0.0,0.0,-2.1118,0.0,-2.4545,0.0,0.0,0.0,0.0,0.0,0.0,0.0,0.0,0.0,0.0,-3.4471,-3.604,-3.7056,-3.7714,-3.8477,-3.9373,-3.8907,-3.8529,-3.8354,-3.8354,-3.809,-3.7526,-3.7834,-3.7811,-3.75,-3.7274,0.0,0.0,-3.6584,-3.6358,-3.6358,-3.6358,-3.6358,-3.6332,-3.6119,-3.5575,-3.4972,0.0,0.0,0.0,0.0,0.0,-2.3738,-2.313,-2.274,-2.266,-2.2991,-2.3764,-2.4593,-2.5352,-2.5406,-2.5367,-2.5283,-2.5871,0.0,0.0,0.0,0.0,0.0,0.0,0.0,0.0,0.0,0.0,0.0,0.0,0.0,0.0,0.0,0.0,0.0,0.0,0.0,0.0,0.0,0.0,0.0,0.0,0.0,0.0,0.0,0.0,0.0,0.0,0.0,0.0,0.0,0.0,0.0,0.0,0.0,0.0,0.0,-3.9305,-4.1633,-4.3536,-4.5652,-4.6915,-4.5297,-4.1557,-3.7493,0.0,0.0,-2.6269,-2.3974,-2.3021,-2.2225,-2.1122,-1.947,-1.7794,0.0,0.0,-1.639,-1.69,-1.94,0.0,0.0,0.0,0.0,0.0,0.0,0.0,0.0,0.0,0.0,0.0,-3.2794,-3.4057,-3.5573,-3.6314,-3.7228,-3.8254,-3.8054,-3.7903,-3.7804,-3.7742,-3.7453,-3.6988,-3.7374,-3.7182,-3.6697,0.0,0.0,0.0,-3.595,-3.5887,-3.6013,-3.5744,-3.5781,-3.5918,-3.585,-3.5133,-3.4232,0.0,0.0,0.0,0.0,0.0,0.0,-2.3091,-2.2318,-2.2052,-2.2976,-2.3805,-2.4607,-2.5401,-2.5449,-2.5348,-2.5209,-2.522,0.0,0.0,0.0,0.0,0.0,0.0,0.0,0.0,0.0,-2.6481,-2.5601,-2.5613,-2.6043,0.0,0.0,0.0,0.0,0.0,0.0,0.0,0.0,0.0,0.0,0.0,0.0,0.0,0.0,0.0,0.0,0.0,0.0,0.0,0.0,0.0,0.0,0.0,0.0,0.0,0.0,-3.5821,-3.9685,-4.123,-4.4349,-4.7001,-4.6164,-4.27,-3.8514,0.0,-3.0945,-2.7022,-2.3367,-2.23,-2.1604,-2.0254,-1.9034,-1.7515,-1.5451,-1.4983,0.0,-1.6377,-1.7194,0.0,0.0,0.0,0.0,0.0,0.0,0.0,0.0,0.0,0.0,0.0,-3.1365,-3.1984,-3.3652,-3.5466,-3.6517,-3.6834,-3.7643,-3.7739,-3.7199,-3.724,-3.6939,-3.637,-3.637,-3.6081,0.0,0.0,0.0,0.0,-3.4491,-3.4723,-3.5146,-3.4379,-3.4318,-3.476,-3.4507,-3.4114,-3.3722,0.0,0.0,0.0,0.0,0.0,0.0,0.0,-2.1887,-2.1258,-2.2092,-2.2422,-2.2909,-2.3704,-2.3725,-2.3871,-2.4332,-2.4877,0.0,0.0,0.0,0.0,0.0,0.0,0.0,0.0,0.0,-2.6714,-2.649,-2.5897,-2.5751,-2.6067,-2.5818,0.0,0.0,0.0,0.0,0.0,0.0,0.0,0.0,0.0,0.0,0.0,0.0,0.0,0.0,0.0,0.0,0.0,0.0,0.0,0.0,0.0,0.0,0.0,-2.7793,-3.1223,0.0,-3.747,-3.9049,-3.9812,-3.8638,-3.4673,-3.0587,-2.8895,-2.5781,-2.3023,-2.2287,-2.1873,-2.1236,-1.9781,-1.8161,-1.6542,-1.507,-1.3817,0.0,0.0,0.0,0.0,0.0,0.0,0.0,0.0,0.0,0.0,0.0,0.0,0.0,0.0,-3.082,-3.15,-3.3319,-3.4113,-3.494,-3.5973,-3.6552,-3.6797,-3.6621,-3.6243,-3.5978,-3.578,-3.5436,0.0,0.0,0.0,0.0,0.0,-3.4466,-3.4487,-3.4624,-3.4126,-3.4102,-3.4267,-3.4193,-3.3822,-3.339,0.0,0.0,0.0,0.0,0.0,0.0,0.0,-2.193,-2.1347,-2.2182,-2.2589,-2.3091,-2.3881,-2.3933,-2.4088,-2.4493,-2.4965,0.0,0.0,0.0,0.0,0.0,0.0,0.0,0.0,-2.6612,-2.6372,-2.6403,-2.5877,-2.5625,-2.5662,-2.5689,-2.6266,-2.7265,0.0,0.0,0.0,0.0,0.0,0.0,0.0,0.0,-2.5779,0.0,0.0,0.0,0.0,0.0,0.0,0.0,0.0,0.0,0.0,0.0,0.0,0.0,-2.704,-2.9737,-3.2988,-3.4688,-3.5424,-3.4646,-3.0975,0.0,0.0,-2.3482,-2.1344,-2.1201,-2.1063,-2.0629,-1.9422,-1.7511,-1.5772,-1.4813,-1.3384,0.0,0.0,0.0,0.0,0.0,0.0,0.0,0.0,0.0,0.0,0.0,0.0,0.0,0.0,0.0,-3.0795,-3.1873,-3.2582,-3.3604,-3.4757,-3.5433,-3.5825,-3.6044,-3.5474,-3.5221,-3.5215,-3.4817,0.0,0.0,0.0,0.0,0.0,-3.3742,-3.3714,-3.3764,-3.3306,-3.3264,-3.3453,-3.342,-3.3153,-3.2758,0.0,0.0,0.0,0.0,0.0,0.0,0.0,-2.2402,-2.2154,-2.2907,-2.3711,-2.4492,-2.5256,-2.5326,-2.5299,-2.524,-2.5226,0.0,0.0,0.0,0.0,0.0,0.0,0.0,0.0,-2.555,-2.559,-2.5581,-2.5644,-2.5681,-2.5682,-2.5801,-2.5895,-2.6021,-2.7454,0.0,0.0,0.0,0.0,0.0,0.0,0.0,0.0,0.0,0.0,0.0,0.0,0.0,0.0,0.0,0.0,0.0,0.0,0.0,0.0,0.0,0.0,0.0,0.0,-3.076,-3.2769,-3.2986,-3.0332,-2.7148,-2.5253,-2.3235,0.0,-2.0179,-1.9926,-1.9725,-1.9106,-1.7009,-1.5167,-1.4511,-1.3405,0.0,0.0,0.0,0.0,0.0,0.0,0.0,0.0,0.0,0.0,0.0,0.0,0.0,0.0,0.0,-2.9763,-2.9728,-3.1123,-3.2323,-3.3212,-3.4198,-3.4982,-3.5466,-3.4901,-3.4638,-3.465,-3.4578,0.0,0.0,0.0,0.0,0.0,-3.2525,-3.2574,-3.2697,-3.1998,-3.1985,-3.2473,-3.2409,-3.2213,-3.2125,0.0,0.0,0.0,0.0,0.0,0.0,0.0,0.0,0.0,0.0,-2.2279,-2.2476,-2.2669,-2.2694,-2.2948,0.0,0.0,0.0,0.0,0.0,0.0,0.0,0.0,0.0,0.0,-2.5421,-2.5447,-2.5444,-2.6164,-2.6484,-2.6462,-2.7145,-2.7843,-2.8489,-2.754,-2.7103,0.0,0.0,0.0,0.0,0.0,0.0,0.0,0.0,0.0,0.0,-2.7765,-2.864,0.0,0.0,0.0,0.0,0.0,0.0,0.0,0.0,-2.198,-2.2007,-2.1493,0.0,-2.3932,-2.4495,-2.298,-2.0964,0.0,0.0,0.0,0.0,0.0,-1.8174,-1.787,-1.5821,-1.4005,-1.3496,-1.2568,-1.2824,0.0,0.0,0.0,0.0,0.0,0.0,0.0,0.0,0.0,0.0,0.0,0.0,0.0,0.0,-2.9432,-2.902,-2.9881,-3.1029,-3.2613,-3.3986,-3.4879,-3.5226,-3.4413,-3.411,-3.4073,-3.3683,0.0,0.0,0.0,0.0,-3.2686,-3.2463,-3.2313,-3.215,-3.1849,-3.191,-3.2095,-3.2074,-3.2288,-3.255,0.0,0.0,0.0,0.0,0.0,0.0,0.0,0.0,0.0,0.0,0.0,-2.299,-2.2997,-2.298,0.0,0.0,0.0,0.0,0.0,0.0,0.0,0.0,0.0,0.0,-2.5397,-2.5396,-2.5561,-2.5897,-2.6039,-2.6435,-2.7077,-2.7222,-2.781,-2.8646,-2.8109,-2.7574,0.0,0.0,0.0,0.0,-2.6262,0.0,0.0,0.0,0.0,0.0,-2.8091,-2.8838,0.0,-2.9179,-2.8523,-2.7653,0.0,0.0,0.0,0.0,-2.1791,-2.1307,-2.0425,-2.0213,-2.0174,-1.9864,-1.9104,-1.8107,-1.6963,0.0,0.0,0.0,0.0,-1.7469,-1.6873,-1.6232,-1.5188,-1.3345,-1.4768,0.0,0.0,0.0,0.0,0.0,0.0,0.0,0.0,0.0,0.0,0.0,0.0,0.0,0.0,-2.9157,-2.902,-2.885,-2.9449,-3.0571,-3.2101,-3.302,-3.3872,-3.4502,-3.3832,-3.3518,-3.3508,-3.3219,-3.3043,0.0,0.0,0.0,-3.2401,-3.2376,-3.2201,-3.1913,-3.2025,-3.2013,-3.2013,-3.2288,-3.2463,-3.2797,0.0,0.0,0.0,0.0,0.0,0.0,0.0,0.0,0.0,0.0,0.0,0.0,0.0,0.0,0.0,0.0,0.0,0.0,0.0,0.0,0.0,0.0,0.0,-2.5383,-2.5408,-2.5342,-2.5681,-2.6411,-2.5867,-2.6292,-2.7618,-2.719,-2.7328,-2.795,-2.8698,-2.8495,0.0,0.0,0.0,0.0,-2.6716,0.0,0.0,0.0,0.0,0.0,0.0,0.0,0.0,-2.9628,-2.8435,-2.6949,-2.6747,0.0,0.0,0.0,0.0,0.0,-2.1454,-2.0665,-1.9378,-1.7768,-1.746,-1.7264,-1.6276,0.0,0.0,0.0,0.0,0.0,-1.6585,-1.7067,0.0,0.0,0.0,0.0,0.0,0.0,0.0,0.0,0.0,0.0,0.0,0.0,0.0,0.0,0.0,0.0,0.0,-2.8757,-2.8757,-2.8757,-2.9398,-3.0215,-3.1375,-3.1768,-3.2537,-3.362,-3.3319,-3.3081,-3.3081,-3.3081,-3.2932,0.0,0.0,0.0,-3.2091,-3.2351,-3.2201,-3.1837,-3.2201,-3.2288,-3.2189,-3.2537,-3.2797,-3.3142,0.0,0.0,0.0,0.0,0.0,0.0,0.0,0.0,0.0,0.0,0.0,0.0,0.0,0.0,0.0,0.0,0.0,0.0,0.0,0.0,0.0,0.0,-2.4804,-2.5209,-2.4994,-2.4983,-2.5347,-2.6082,-2.665,-2.7374,-2.8277,-2.8915,-2.8963,-2.8491,-2.8674,-2.8275,-2.7428,0.0,0.0,0.0,0.0,0.0,0.0,0.0,0.0,0.0,0.0,0.0,0.0,-2.8992,-2.7898,-2.6671,-2.5178,0.0,0.0,0.0,0.0,0.0,-2.0499,-2.0498,-2.0076,-1.7806,-1.7505,-1.7497,-1.6467,0.0,0.0,0.0,0.0,0.0,0.0,-1.6542,-1.4966,0.0,0.0,0.0,0.0,0.0,0.0,0.0,0.0,0.0,0.0,0.0,0.0,0.0,0.0,0.0,0.0,0.0,-2.8757,-2.8757,-2.8883,-2.9276,-2.9851,-3.1241,-3.2211,-3.2519,-3.2922,-3.2982,-3.2797,-3.2797,-3.2636,0.0,0.0,-3.2537,-3.2376,-3.255,-3.2525,-3.2314,-3.2376,-3.2513,-3.2599,-3.2686,-3.33,-3.4301,0.0,0.0,0.0,0.0,0.0,0.0,0.0,0.0,0.0,0.0,0.0,0.0,0.0,0.0,0.0,0.0,0.0,0.0,0.0,0.0,0.0,-2.4766,-2.5795,-2.6088,-2.5446,-2.5309,-2.5825,-2.7065,-2.6931,-2.7401,-2.8412,-2.9013,-2.9155,-2.8989,-2.9166,-2.8763,-2.7961,-2.8258,0.0,0.0,0.0,0.0,0.0,0.0,0.0,0.0,0.0,0.0,0.0,0.0,-2.8053,-2.6525,-2.5208,0.0,0.0,0.0,0.0,0.0,-2.129,-2.117,-2.0784,-1.9899,-1.9542,-1.9266,-1.8999,0.0,0.0,0.0,0.0,0.0,0.0,0.0,0.0,0.0,0.0,0.0,0.0,0.0,0.0,0.0,0.0,0.0,0.0,0.0,0.0,0.0,0.0,0.0,0.0,0.0,-2.8757,-2.8757,-2.8664,-2.8664,-2.8943,-3.0408,-3.1443,-3.1922,-3.2574,-3.2648,-3.2276,-3.2179,-3.1797,-3.1308,0.0,-3.1515,-3.1318,-3.1695,-3.1732,-3.1575,-3.2067,-3.2251,-3.2421,-3.3259,-3.4121,-3.5087,0.0,0.0,0.0,0.0,0.0,0.0,0.0,0.0,0.0,0.0,0.0,0.0,0.0,0.0,0.0,0.0,0.0,0.0,0.0,0.0,-2.595,-2.5274,-2.6313,-2.6562,-2.5872,-2.5766,-2.6374,-2.7655,-2.6949,-2.7175,-2.8316,-2.8597,-2.8874,-2.9166,-2.9436,-2.9214,-2.8652,-2.9191,-2.9038,-2.8457,0.0,0.0,0.0,0.0,0.0,0.0,0.0,0.0,0.0,0.0,0.0,0.0,0.0,0.0,0.0,-2.1771,-2.1697,-2.2028,-2.2769,-2.2291,-2.1701,-2.2165,0.0,0.0,0.0,0.0,0.0,0.0,0.0,0.0,0.0,0.0,0.0,0.0,0.0,0.0,0.0,0.0,0.0,0.0,0.0,0.0,0.0,0.0,0.0,0.0,0.0,0.0,0.0,0.0,-2.8757,-2.8757,-2.8473,-2.8233,-2.8129,-2.9648,-3.0695,-3.1359,-3.2351,-3.2437,-3.1831,-3.17,-3.1198,-3.0459,-3.0699,-3.0753,-3.0577,-3.1145,-3.1195,-3.0968,-3.1984,-3.2344,-3.2394,-3.4048,-3.5006,-3.5548,0.0,0.0,0.0,0.0,0.0,0.0,0.0,0.0,0.0,0.0,0.0,0.0,0.0,0.0,0.0,0.0,0.0,0.0,0.0,0.0,-2.5452,-2.4005,-2.5087,-2.5714,-2.5726,-2.6136,-2.6454,-2.6703,-2.6631,-2.7083,-2.8037,-2.8129,-2.8386,-2.8749,-2.9016,-2.9175,-2.924,-2.9355,-2.9332,-2.9209,-2.898,0.0,0.0,0.0,0.0,0.0,0.0,0.0,0.0,0.0,0.0,0.0,0.0,0.0,-2.2773,-2.2197,-2.262,-2.3502,-2.4597,-2.381,-2.2861,-2.3575,-2.1699,0.0,-2.5402,-2.439,0.0,-2.7046,0.0,0.0,0.0,0.0,0.0,0.0,0.0,0.0,0.0,0.0,0.0,0.0,0.0,0.0,0.0,0.0,0.0,0.0,0.0,0.0,0.0,0.0,0.0,-2.8757,-2.8137,-2.7624,-2.743,-2.9048,-3.0178,-3.0633,-3.2251,-3.2536,-3.1601,-3.1761,-3.1357,-3.0457,-3.0881,-3.1034,-3.1096,-3.1855,-3.1851,-3.1499,-3.2591,-3.3018,-3.3177,-3.4897,-3.5534,-3.5855,0.0,0.0,0.0,0.0,0.0,0.0,0.0,0.0,0.0,0.0,0.0,0.0,0.0,0.0,0.0,0.0,0.0,0.0,0.0,0.0,-2.6414,-2.6,-2.6929,-2.7174,-2.6521,-2.6096,-2.6475,-2.7648,-2.6905,-2.6885,-2.7487,-2.7619,-2.7851,-2.8264,-2.9314,-2.949,-2.9034,-2.9739,-2.9621,-2.8966,-2.859,-2.8316,0.0,0.0,0.0,0.0,0.0,0.0,0.0,0.0,-2.728,-2.5888,-2.435,-2.3657,-2.329,-2.2701,-2.3356,-2.4466,-2.5255,-2.561,-2.554,-2.4684,-2.3315,0.0,0.0,-2.7217,-2.7285,-2.8103,-2.891,0.0,0.0,0.0,0.0,0.0,0.0,0.0,0.0,0.0,0.0,0.0,0.0,0.0,0.0,0.0,0.0,0.0,0.0,0.0,0.0,0.0,0.0,-2.8309,-2.759,-2.7252,-2.7151,-2.8615,-2.9404,-2.959,-3.1418,-3.1754,-3.0606,-3.0604,-3.0181,-2.9411,-2.9819,-3.0069,-3.0065,-3.0528,-3.0583,-3.047,-3.1248,-3.1951,-3.2731,-3.4047,-3.4774,-3.5203,0.0,0.0,0.0,0.0,0.0,0.0,0.0,0.0,0.0,0.0,0.0,0.0,0.0,0.0,0.0,0.0,0.0,0.0,-2.7096,-2.704,-2.71,-2.7359,-2.8057,-2.8091,-2.7382,-2.6301,-2.6303,-2.7538,-2.6602,-2.6419,-2.6956,-2.7066,-2.7348,-2.78,-2.9321,-2.9521,-2.8834,-3.0075,-2.9966,-2.8978,-2.8764,-2.837,0.0,0.0,0.0,0.0,0.0,0.0,0.0,0.0,-2.6974,-2.5678,-2.4406,-2.4002,-2.3955,-2.3567,-2.4684,-2.6068,-2.638,-2.6398,-2.6241,-2.5663,0.0,0.0,-2.8451,-2.928,-2.9803,-3.1833,-3.2064,0.0,0.0,0.0,0.0,0.0,0.0,0.0,0.0,0.0,0.0,0.0,0.0,0.0,0.0,0.0,0.0,0.0,0.0,0.0,0.0,0.0,0.0,0.0,-2.7015,-2.6855,-2.6943,-2.818,-2.8768,-2.8868,-3.0428,-3.0835,-3.0072,-3.0129,-2.9694,-2.9028,-2.9381,-2.9549,-2.9534,-2.9889,-3.0143,-3.0319,-3.0532,-3.1322,-3.2465,-3.3499,-3.4303,-3.4989,0.0,0.0,0.0,0.0,0.0,0.0,0.0,0.0,0.0,0.0,0.0,0.0,0.0,0.0,0.0,0.0,0.0,0.0,-2.6376,-2.6904,-2.7289,-2.7474,-2.7879,-2.8116,-2.8201,-2.6735,-2.5957,-2.5897,-2.5567,-2.5738,-2.6418,-2.6488,-2.6839,-2.7444,-2.8895,-2.917,-2.871,-3.0331,-3.0405,-2.9418,-2.9628,-2.9119,-2.8297,0.0,0.0,0.0,0.0,0.0,0.0,0.0,-2.5848,-2.5108,-2.3977,-2.4115,-2.4726,-2.4866,-2.6634,-2.8498,-2.8168,-2.6056,-2.445,-2.6565,0.0,0.0,-3.1247,-3.0358,-3.0509,-3.918,0.0,-3.1462,-3.1127,0.0,0.0,0.0,0.0,0.0,0.0,0.0,0.0,0.0,0.0,0.0,0.0,0.0,0.0,0.0,0.0,0.0,0.0,0.0,0.0,0.0,-2.6442,-2.6519,-2.6926,-2.7813,-2.8386,-2.8542,-2.9365,-2.9977,-3.0276,-3.0503,-3.0158,-2.9406,-2.9702,-2.9792,-2.9829,-3.0382,-3.0909,-3.1323,-3.0809,-3.1388,-3.2712,-3.3571,-3.4321,-3.5212,0.0,0.0,0.0,0.0,0.0,0.0,0.0,0.0,0.0,0.0,0.0,0.0,0.0,0.0,0.0,0.0,0.0,0.0,-2.7992,-2.7002,-2.652,-2.6927,-2.7282,-2.7165,-2.6539,-2.5655,-2.5346,-2.5546,-2.5454,-2.568,-2.6274,-2.7042,-2.7368,-2.7376,-2.9982,-3.0381,-2.9287,-3.0944,-3.0939,-2.9792,-2.9569,-2.9058,-2.8424,0.0,0.0,0.0,0.0,0.0,0.0,0.0,0.0,0.0,-2.5162,-2.4538,-2.4158,-2.4684,-2.5541,-2.6507,-2.7158,-2.7815,0.0,-2.764,0.0,0.0,0.0,-3.3513,0.0,0.0,-3.7119,-3.3328,0.0,0.0,0.0,0.0,0.0,0.0,0.0,0.0,0.0,0.0,0.0,0.0,0.0,0.0,0.0,0.0,0.0,0.0,0.0,0.0,0.0,0.0,-2.6705,-2.6786,-2.6941,-2.7532,-2.8167,-2.87,-2.8332,-2.8486,-2.9108,-2.9337,-2.9213,-2.8872,-2.9332,-2.9596,-2.9804,-2.9786,-2.9845,-2.997,-2.982,-3.0173,-3.0851,-3.1575,-3.235,-3.32,0.0,0.0,0.0,0.0,0.0,0.0,0.0,0.0,0.0,0.0,0.0,0.0,0.0,0.0,0.0,0.0,0.0,0.0,0.0,-2.6885,-2.6199,-2.6636,-2.6717,-2.641,-2.5698,-2.5513,-2.5352,-2.5204,-2.483,-2.5072,-2.5826,-2.6453,-2.7114,-2.7811,-3.0101,-3.0624,-2.9875,-3.1734,-3.1815,-3.0749,-3.0988,-3.0311,-2.9161,0.0,0.0,0.0,0.0,0.0,0.0,0.0,0.0,0.0,-2.5473,-2.4652,-2.4226,-2.5394,-2.5766,-2.6363,-2.9097,-2.9959,0.0,-3.1512,-3.2231,-3.3396,-3.6275,0.0,0.0,0.0,0.0,0.0,0.0,0.0,0.0,0.0,0.0,0.0,0.0,0.0,0.0,0.0,0.0,0.0,0.0,0.0,0.0,0.0,0.0,0.0,0.0,0.0,0.0,0.0,-2.6351,-2.6676,-2.6951,-2.734,-2.805,-2.9197,-2.794,-2.7668,-2.8276,-2.83,-2.8424,-2.8496,-2.9024,-2.9337,-2.9534,-2.9365,-2.9275,-2.9275,-2.9275,-2.963,-3.0206,-3.0888,-3.1729,-3.2543,0.0,0.0,0.0,0.0,0.0,0.0,0.0,0.0,0.0,0.0,0.0,0.0,0.0,0.0,0.0,0.0,0.0,0.0,0.0,0.0,-2.6146,-2.641,-2.6081,-2.5791,-2.5544,-2.5963,-2.5754,-2.4818,-2.4143,-2.4275,-2.5196,-2.543,-2.6605,-2.8516,-2.9709,-3.0321,-3.0529,-3.2476,-3.2804,-3.2001,-3.3117,-3.2312,-3.0422,-3.0314,0.0,0.0,0.0,0.0,0.0,0.0,0.0,0.0,-2.5346,-2.4657,-2.4649,-2.6381,-2.6612,-2.7426,-3.2368,-3.2035,-3.1562,-3.687,-3.6862,0.0,-3.9786,-4.1769,-4.2437,-4.0656,0.0,0.0,0.0,0.0,0.0,0.0,0.0,0.0,0.0,0.0,0.0,0.0,0.0,0.0,0.0,0.0,0.0,0.0,0.0,0.0,0.0,0.0,0.0,0.0,-2.5713,-2.6337,-2.7013,-2.7067,-2.7926,0.0,-2.7826,-2.7182,-2.7704,-2.7503,-2.7705,-2.8268,-2.8848,-2.8978,-2.8978,-2.8929,-2.8905,-2.8905,-2.8905,-2.9347,-3.01,-3.1031,-3.1769,-3.2704,0.0,0.0,0.0,0.0,0.0,0.0,0.0,0.0,0.0,0.0,0.0,0.0,0.0,0.0,0.0,0.0,0.0,0.0,0.0,0.0,-2.5939,-2.5074,-2.4671,-2.4917,-2.5874,-2.5529,-2.4948,-2.4132,-2.509,-2.5415,-2.5177,-2.7209,-2.8184,-2.8185,-3.0386,-3.1268,-3.1158,-3.2389,-3.2843,-3.2698,-3.3237,-3.2933,-3.2062,-3.1099,-3.0403,0.0,0.0,0.0,0.0,0.0,0.0,0.0,-2.6963,-2.572,-2.4425,-2.4541,-2.5524,-2.702,-2.9264,-3.1565,0.0,0.0,-4.0615,-4.2346,-4.284,-4.3092,-4.3005,0.0,0.0,0.0,0.0,0.0,0.0,0.0,0.0,0.0,0.0,0.0,0.0,0.0,0.0,0.0,0.0,0.0,0.0,0.0,0.0,0.0,0.0,0.0,0.0,-2.5306,-2.5899,-2.6287,-2.6469,-2.6649,-2.7249,0.0,-2.7051,-2.6751,-2.7145,-2.693,-2.7333,-2.8053,-2.8353,-2.8415,-2.8212,-2.7797,-2.7627,-2.7627,-2.7627,-2.7627,-2.7812,-2.9351,-3.0274,-3.0884,0.0,0.0,0.0,0.0,0.0,0.0,0.0,0.0,0.0,0.0,0.0,0.0,0.0,0.0,0.0,0.0,0.0,0.0,0.0,0.0,0.0,-2.4242,-2.4666,-2.5059,-2.5417,-2.5772,-2.5346,-2.4154,-2.5362,-2.5598,-2.4957,-2.6728,-2.7904,-2.8561,-3.0131,-3.1168,-3.1732,-3.2415,-3.2942,-3.3417,-3.3874,-3.3673,-3.2961,-3.2183,-3.1326,-3.0382,-2.9024,0.0,0.0,0.0,0.0,0.0,0.0,0.0,-2.5979,-2.6778,-2.6499,-2.6949,-3.1557,0.0,0.0,-4.0008,0.0,-4.52,-4.3914,-4.4105,-4.4247,0.0,0.0,0.0,0.0,0.0,0.0,0.0,0.0,0.0,0.0,0.0,0.0,0.0,0.0,0.0,0.0,0.0,0.0,0.0,0.0,0.0,0.0,-2.5644,-2.5441,-2.5509,-2.5578,-2.5861,-2.6349,-2.6164,-2.653,-2.7627,-2.6584,-2.637,-2.6726,-2.6485,-2.6699,-2.7136,-2.7439,-2.756,-2.746,-2.7182,-2.7061,-2.7061,-2.7061,-2.7073,-2.7233,-2.8659,-2.9666,-3.0467,0.0,0.0,0.0,0.0,0.0,0.0,0.0,0.0,0.0,0.0,0.0,0.0,0.0,0.0,0.0,0.0,0.0,0.0,0.0,0.0,0.0,-2.4166,-2.5179,-2.553,-2.5167,-2.6281,-2.616,-2.4718,-2.547,-2.5567,0.0,-2.5897,-2.7254,-2.8949,-2.9592,-3.0613,-3.1933,-3.2243,-3.2899,-3.3754,-3.4409,-3.4151,-3.3387,-3.3016,-3.2058,-3.0705,-2.9373,-2.8703,-2.8248,-2.7595,0.0,0.0,0.0,0.0,-2.7661,-2.9391,-2.8181,-2.7769,-3.4585,0.0,-3.708,-4.189,-4.4951,0.0,-4.4145,-4.4747,0.0,0.0,0.0,0.0,0.0,0.0,0.0,0.0,0.0,0.0,0.0,0.0,0.0,0.0,0.0,0.0,0.0,0.0,0.0,0.0,0.0,0.0,-2.6795,-2.5791,-2.5351,-2.5588,-2.5082,-2.5199,-2.6037,-2.5524,-2.5816,-2.7007,-2.613,-2.5931,-2.6371,-2.6125,-2.6022,-2.6202,-2.6586,-2.6791,-2.6779,-2.6695,-2.6659,-2.6659,-2.6659,-2.6721,-2.7004,-2.8325,-2.9272,-3.0178,0.0,0.0,0.0,0.0,0.0,0.0,0.0,0.0,0.0,0.0,0.0,0.0,0.0,0.0,0.0,0.0,0.0,0.0,0.0,0.0,0.0,-2.56,-2.5243,-2.552,-2.6614,-2.6639,-2.6439,-2.605,-2.6112,0.0,0.0,0.0,0.0,-2.8595,-2.9324,-3.0245,-3.123,-3.1518,-3.2171,-3.3019,-3.3786,-3.382,-3.332,-3.2713,-3.2073,-3.1217,-2.9349,-2.8269,-2.7773,-2.7686,-2.7389,0.0,0.0,0.0,-2.7403,-2.7784,-2.925,-3.1052,-3.2507,0.0,-4.1412,0.0,-4.4551,-4.5912,0.0,0.0,0.0,0.0,0.0,0.0,0.0,0.0,0.0,0.0,0.0,0.0,0.0,0.0,0.0,0.0,0.0,0.0,0.0,0.0,0.0,0.0,0.0,0.0,-2.5291,-2.5455,-2.5337,-2.468,-2.4591,-2.458,-2.4719,-2.492,-2.5111,-2.5313,-2.5181,-2.5517,-2.622,-2.566,-2.5853,-2.6565,-2.6336,-2.6214,-2.6178,-2.5721,-2.5528,-2.5528,-2.5528,-2.5516,-2.5768,-2.7553,-2.8313,-2.874,0.0,0.0,0.0,0.0,0.0,0.0,0.0,0.0,0.0,0.0,0.0,0.0,0.0,0.0,0.0,0.0,0.0,0.0,0.0,0.0,0.0,-2.5109,-2.5146,-2.5407,-2.5925,-2.6289,-2.618,-2.5725,0.0,0.0,0.0,-2.7195,-2.7921,0.0,0.0,-3.0042,-3.1109,-3.1517,-3.1959,-3.2492,-3.3388,-3.4101,-3.4487,-3.3693,-3.363,-3.364,-3.1055,-2.9746,-2.9074,-2.8139,-2.7911,-2.8064,-2.845,0.0,0.0,0.0,-3.0104,-3.1217,-3.3455,-3.7551,-4.1368,0.0,-4.3905,-4.506,-4.3903,0.0,0.0,0.0,0.0,0.0,0.0,0.0,0.0,0.0,0.0,0.0,0.0,0.0,0.0,0.0,0.0,0.0,0.0,0.0,0.0,0.0,0.0,-2.6174,-2.5574,-2.5298,-2.4997,-2.4761,-2.4338,-2.4326,-2.4749,-2.4606,-2.4671,-2.5004,-2.4803,-2.5308,-2.6496,-2.592,-2.589,-2.6267,-2.6029,-2.5887,-2.5636,-2.5408,-2.5382,-2.5465,-2.5465,-2.5717,-2.6177,-2.7198,-2.8237,-2.9365,0.0,0.0,0.0,0.0,0.0,0.0,0.0,0.0,0.0,0.0,0.0,0.0,0.0,0.0,0.0,0.0,0.0,0.0,0.0,0.0,0.0,-2.5031,-2.5429,-2.5612,-2.5634,-2.61,-2.6129,0.0,0.0,0.0,-2.6674,-2.741,-2.8166,0.0,-2.9113,-2.9788,0.0,0.0,0.0,-3.208,-3.3167,-3.4194,-3.4975,-3.4617,-3.4958,-3.5326,-3.2819,-3.1558,-3.0821,-2.9245,-2.8952,-2.9291,-2.9387,-2.9954,0.0,0.0,0.0,-3.1429,0.0,0.0,-3.9665,-4.0959,-4.2581,-4.363,0.0,0.0,0.0,0.0,0.0,0.0,0.0,0.0,0.0,0.0,0.0,0.0,0.0,0.0,0.0,0.0,0.0,0.0,0.0,0.0,0.0,0.0,0.0,-2.6136,-2.6029,-2.5224,-2.4778,-2.474,-2.4237,-2.4214,-2.4728,-2.4299,-2.4322,-2.4731,-2.4327,-2.4826,-2.6126,-2.589,-2.5803,-2.5898,-2.5968,-2.5816,-2.5453,-2.5453,-2.5608,-2.5812,-2.5812,-2.6212,-2.6907,-2.7285,-2.8371,-2.9727,0.0,0.0,0.0,0.0,0.0,0.0,0.0,0.0,0.0,0.0,0.0,0.0,0.0,0.0,-3.1347,-3.1859,0.0,0.0,0.0,0.0,0.0,-2.6501,-2.6351,0.0,-2.6784,-2.6582,0.0,0.0,0.0,0.0,-2.7472,-2.8051,-2.9088,-3.0366,-2.9415,-2.9351,-2.9913,0.0,0.0,0.0,0.0,0.0,0.0,0.0,0.0,0.0,0.0,-3.3336,-3.2546,-3.1073,-3.0389,-3.023,-3.0831,-3.1233,-3.1573,0.0,0.0,0.0,0.0,-3.5853,0.0,-3.8247,-4.0068,0.0,0.0,0.0,0.0,0.0,0.0,0.0,0.0,0.0,0.0,0.0,0.0,0.0,0.0,0.0,0.0,0.0,0.0,0.0,0.0,0.0,0.0,0.0,0.0,-2.6281,-2.573,-2.5283,-2.4743,-2.4258,-2.42,-2.42,-2.4235,-2.4055,-2.3897,-2.3959,-2.3565,-2.3772,-2.4552,-2.5083,-2.5526,-2.5931,-2.622,-2.6151,-2.584,-2.584,-2.6064,-2.636,-2.636,-2.6688,-2.7223,-2.7758,-2.8251,-2.873,0.0,0.0,0.0,0.0,0.0,0.0,0.0,0.0,0.0,0.0,0.0,0.0,0.0,-3.1679,-3.1624,-3.1732,-3.1207,0.0,0.0,0.0,0.0,-2.6801,-2.6085,-2.5936,-2.6467,-2.5974,0.0,0.0,0.0,-2.7449,-2.7642,-2.8683,-2.9333,-2.9588,-2.9425,-3.0029,-3.1142,-3.1468,0.0,0.0,0.0,0.0,0.0,0.0,0.0,0.0,0.0,0.0,0.0,-3.3095,-3.2161,-3.1418,-3.1887,-3.2023,-3.2164,-3.2682,-3.2972,-3.3408,0.0,0.0,0.0,-3.6852,-3.8355,-3.9615,0.0,0.0,0.0,0.0,0.0,0.0,0.0,0.0,0.0,0.0,0.0,0.0,0.0,0.0,0.0,0.0,0.0,0.0,0.0,0.0,0.0,0.0,0.0,0.0,-2.5273,-2.5138,-2.4765,-2.4004,-2.4116,-2.4345,-2.4562,-2.449,-2.449,-2.449,-2.392,-2.4043,-2.4779,-2.5037,-2.5469,-2.6057,-2.6701,-2.6714,-2.6233,-2.5968,-2.6079,-2.6276,-2.649,-2.681,-2.7308,-2.835,-2.9389,-3.0394,0.0,0.0,0.0,0.0,0.0,0.0,0.0,0.0,0.0,0.0,0.0,0.0,0.0,0.0,-3.2068,-3.1862,-3.1844,-3.127,-3.0006,-2.9509,-2.8922,-2.8194,-2.7129,-2.6736,-2.7035,0.0,0.0,0.0,0.0,0.0,0.0,-2.932,-2.9867,-3.0024,-2.9964,-3.0411,0.0,0.0,0.0,-3.2788,0.0,0.0,-3.7572,0.0,0.0,0.0,0.0,0.0,0.0,0.0,0.0,0.0,0.0,-3.377,-3.351,-3.4299,-3.4193,0.0,-3.4713,0.0,0.0,0.0,0.0,-3.7665,0.0,0.0,0.0,0.0,0.0,0.0,0.0,0.0,0.0,0.0,0.0,0.0,0.0,0.0,0.0,0.0,0.0,0.0,0.0,0.0,0.0,0.0,0.0,0.0,-2.5116,-2.5138,-2.4842,-2.4223,-2.4345,-2.4502,-2.479,-2.4718,-2.4718,-2.4718,-2.4185,-2.4162,-2.4587,-2.498,-2.5402,-2.5779,-2.6837,-2.6985,-2.6496,-2.6302,-2.6445,-2.6748,-2.6976,-2.7446,-2.8086,-2.8973,-3.0035,-3.0951,0.0,0.0,0.0,0.0,0.0,0.0,0.0,0.0,0.0,0.0,0.0,0.0,0.0,0.0,0.0,-3.2458,-3.293,-3.3017,-3.2457,-3.2216,-3.1709,-3.0736,0.0,0.0,0.0,0.0,0.0,0.0,0.0,0.0,0.0,0.0,-3.087,-3.1801,-3.1088,-3.053,-3.0145,0.0,-3.1741,-3.3215,0.0,-3.6553,-3.7531,0.0,0.0,0.0,-4.0266,-3.9923,0.0,-3.8569,0.0,0.0,0.0,0.0,0.0,-3.6507,0.0,0.0,0.0,0.0,0.0,0.0,0.0,0.0,0.0,0.0,0.0,0.0,0.0,0.0,0.0,0.0,0.0,0.0,0.0,0.0,0.0,0.0,0.0,0.0,0.0,0.0,0.0,0.0,0.0,0.0,0.0,-2.5853,-2.5139,-2.5194,-2.5123,-2.4825,-2.479,-2.479,-2.479,-2.4634,-2.449,-2.449,-2.4345,-2.4043,-2.3666,-2.4969,-2.5382,-2.5075,-2.6633,-2.7053,-2.6714,-2.6905,-2.7278,-2.7766,-2.7779,-2.8543,-2.9545,-2.9582,-2.9864,-3.0241,0.0,0.0,0.0,0.0,0.0,0.0,-3.5055,-3.4219,-3.3502,0.0,0.0,0.0,0.0,0.0,-3.3835,-3.3853,-3.399,-3.3869,-3.3362,-3.289,-3.2191,-3.1179,-2.9909,-2.9327,0.0,0.0,0.0,0.0,0.0,0.0,0.0,0.0,0.0,0.0,-3.2882,-3.2933,-3.3269,-3.2731,0.0,0.0,-3.7026,-3.8165,0.0,0.0,0.0,0.0,0.0,-4.0996,-3.989,0.0,-3.9564,-3.7636,0.0,0.0,0.0,0.0,0.0,0.0,-3.5781,0.0,0.0,0.0,0.0,0.0,0.0,0.0,0.0,0.0,0.0,0.0,0.0,0.0,0.0,0.0,0.0,0.0,0.0,0.0,0.0,0.0,0.0,0.0,0.0,0.0,0.0,0.0,-2.5672,-2.5271,-2.4848,-2.4464,-2.4402,-2.4801,-2.479,-2.4921,-2.5182,-2.5111,-2.5111,-2.5111,-2.4778,-2.4574,-2.449,-2.4683,-2.4957,-2.5229,-2.6057,-2.6633,-2.6943,-2.6985,-2.7107,-2.7363,-2.7703,-2.7937,-2.8325,-2.9234,-3.0642,-3.1944,0.0,0.0,0.0,0.0,0.0,-3.6111,-3.5948,-3.5048,-3.4292,0.0,0.0,0.0,0.0,0.0,-3.4233,-3.4384,-3.4644,-3.4644,-3.4346,-3.4169,-3.3691,-3.2766,-3.1975,-3.1531,-3.1479,0.0,0.0,0.0,0.0,0.0,0.0,0.0,0.0,0.0,0.0,0.0,0.0,0.0,0.0,0.0,-3.8456,0.0,0.0,-4.1526,-4.1684,0.0,0.0,0.0,-4.1174,-4.2006,-4.0872,0.0,0.0,0.0,0.0,0.0,0.0,0.0,0.0,0.0,0.0,0.0,0.0,0.0,-3.354,-3.374,0.0,0.0,0.0,0.0,0.0,0.0,0.0,0.0,0.0,0.0,0.0,0.0,0.0,0.0,0.0,0.0,0.0,0.0,0.0,-2.6278,-2.5775,-2.5407,-2.5083,-2.443,-2.4334,-2.4992,-2.4779,-2.4897,-2.5312,-2.5083,-2.5083,-2.5312,-2.5123,-2.4849,-2.4574,-2.4897,-2.5099,-2.5229,-2.607,-2.6714,-2.7146,-2.7188,-2.7447,-2.7788,-2.8136,-2.8396,-2.8712,-2.9549,-3.0842,-3.2184,0.0,0.0,-3.8146,-3.8892,-3.8302,-3.7644,-3.7394,-3.6447,-3.5643,0.0,0.0,0.0,0.0,0.0,0.0,0.0,-3.5342,-3.5624,-3.557,-3.5866,-3.5744,-3.5062,-3.4935,-3.467,-3.4227,-3.3909,0.0,0.0,0.0,0.0,0.0,0.0,0.0,0.0,0.0,0.0,0.0,0.0,0.0,-3.8089,-3.9704,-4.0799,0.0,0.0,-4.2579,-4.2176,-4.3024,-4.3113,-4.2775,-4.2569,-4.2005,0.0,0.0,0.0,0.0,0.0,-3.9519,0.0,0.0,0.0,0.0,0.0,0.0,0.0,-3.3036,-3.2686,-3.2823,0.0,0.0,0.0,0.0,0.0,0.0,0.0,0.0,0.0,0.0,0.0,0.0,0.0,0.0,0.0,0.0,-2.8534,-2.7498,-2.6747,-2.6114,-2.5713,-2.5424,-2.4682,-2.4611,-2.5312,-2.4855,-2.4831,-2.53,-2.4843,-2.4843,-2.5312,-2.5241,-2.4897,-2.4273,-2.5336,-2.5535,-2.5158,-2.6371,-2.7105,-2.7372,-2.7626,-2.8045,-2.863,-2.8785,-2.9245,-2.991,-2.9987,-3.0704,-3.1655,-3.7891,0.0,-3.8968,-3.9669,-3.9496,-3.9195,-3.8979,-3.8003,-3.7202,0.0,0.0,0.0,0.0,0.0,0.0,0.0,-3.7914,-3.7895,-3.7762,-3.7337,-3.7103,-3.713,-3.6438,-3.6274,-3.6782,-3.603,-3.6014,0.0,0.0,0.0,0.0,0.0,0.0,0.0,0.0,0.0,0.0,0.0,0.0,-4.1591,-4.1493,0.0,-4.2881,-4.3477,-4.3509,-4.3347,-4.388,-4.4082,-4.3975,-4.3545,-4.361,-4.367,0.0,0.0,0.0,0.0,0.0,0.0,0.0,0.0,0.0,0.0,0.0,0.0,-3.2281,-3.1528,-3.1031,0.0,0.0,0.0,0.0,0.0,0.0,0.0,0.0,0.0,0.0,0.0,0.0,0.0,0.0,0.0,0.0,-2.9415,-2.802,-2.7516,-2.608,-2.4948,-2.45,-2.4641,-2.4849,-2.5312,-2.5204,-2.5204,-2.5312,-2.5204,-2.5204,-2.5312,-2.5052,-2.4801,-2.4681,-2.4826,-2.5158,-2.5535,-2.622,-2.6955,-2.776,-2.8599,-2.884,-2.8592,-2.8258,-2.8884,-2.9873,-2.9576,-3.1016,-3.2914,-3.8339,-3.8691,-3.905,-3.9717,-4.0079,-4.0203,-3.9947,-3.9337,0.0,0.0,0.0,0.0,0.0,0.0,0.0,0.0,0.0,0.0,0.0,-3.8824,-3.8808,-3.8486,-3.8422,-3.838,-3.8566,-3.8075,-3.8199,-3.8926,0.0,0.0,0.0,0.0,0.0,0.0,0.0,0.0,0.0,0.0,-4.5037,-4.4833,-4.3954,0.0,-4.3656,-4.3826,-4.3658,-4.3423,-4.3883,-4.3935,-4.3733,-4.3759,-4.37,0.0,0.0,-4.2446,-4.2059,0.0,-4.0196,-3.8763,0.0,0.0,0.0,-3.5401,0.0,0.0,0.0,-3.2153,-3.1511,0.0,0.0,0.0,0.0,0.0,0.0,0.0,0.0,0.0,0.0,0.0,0.0,0.0,0.0,0.0,0.0,-3.0858,-2.9197,-2.7035,-2.5576,-2.4657,-2.4396,-2.4372,-2.4622,-2.517,-2.4931,-2.4977,-2.5312,-2.4837,-2.4813,-2.5075,-2.4743,-2.449,-2.42,-2.4957,-2.5515,-2.5887,-2.6483,-2.7334,-2.8408,-2.862,-2.8873,-2.9186,-2.8924,-2.9424,-3.0128,-2.984,-3.1063,-3.2808,-3.9095,-3.913,-3.9287,-3.9812,-4.0675,-4.1265,-4.1125,-4.0919,0.0,0.0,0.0,0.0,0.0,0.0,0.0,0.0,0.0,0.0,0.0,0.0,-4.0553,-3.983,-4.0475,-4.0591,-3.9998,-4.0084,-4.0398,-4.0901,0.0,0.0,0.0,0.0,0.0,0.0,0.0,0.0,0.0,0.0,0.0,-4.695,0.0,-4.5317,-4.4758,-4.449,-4.4106,-4.3723,-4.392,-4.3626,-4.3269,-4.397,0.0,-4.3199,-4.3439,-4.3093,0.0,0.0,0.0,0.0,0.0,0.0,0.0,0.0,0.0,-3.4613,0.0,0.0,0.0,0.0,0.0,0.0,0.0,0.0,0.0,0.0,0.0,0.0,0.0,0.0,0.0,0.0,0.0,0.0,0.0,-3.1627,-2.9682,-2.6526,-2.5025,-2.4436,-2.4691,-2.4255,-2.4334,-2.4909,-2.4566,-2.4542,-2.5099,-2.4402,-2.4296,-2.4767,-2.4443,-2.4116,-2.374,-2.5278,-2.597,-2.6178,-2.7044,-2.8074,-2.906,-2.8582,-2.8983,-2.9938,-2.9732,-3.0043,-3.0623,-3.0333,-3.1144,-3.2319,-4.0369,-4.0349,-4.0653,-4.0696,-4.176,-4.2902,-4.3588,-4.3404,0.0,0.0,0.0,0.0,0.0,0.0,0.0,0.0,0.0,0.0,-4.437,0.0,0.0,-4.1632,-4.2543,-4.2515,-4.1295,-4.1938,-4.2545,-4.3065,0.0,0.0,0.0,0.0,0.0,0.0,-4.4822,0.0,0.0,0.0,-4.6446,0.0,-4.6704,-4.6981,0.0,-4.6468,-4.605,-4.5753,-4.4989,-4.4129,-4.3593,0.0,-4.5133,-4.4824,0.0,-4.4471,-4.3782,0.0,0.0,0.0,0.0,0.0,0.0,0.0,-3.5489,0.0,0.0,0.0,0.0,0.0,0.0,0.0,0.0,0.0,0.0,0.0,0.0,0.0,0.0,0.0,0.0,0.0,0.0,0.0,0.0,0.0,-2.8235,-2.7035,-2.4891,-2.4105,-2.5147,-2.4684,-2.4418,-2.4261,-2.4432,-2.4432,-2.4334,-2.4204,-2.4299,-2.4548,-2.3993,-2.3785,-2.3948,-2.537,-2.607,-2.6215,-2.8007,-2.9027,-2.9433,-2.9369,-2.9702,-3.0303,-2.9717,-3.0188,-3.1148,-3.0799,-3.156,-3.2746,-4.1899,-4.1919,-4.2298,-4.2176,-4.3124,-4.4069,-4.4714,-4.4898,0.0,0.0,0.0,0.0,0.0,0.0,0.0,0.0,0.0,-4.4503,0.0,0.0,0.0,0.0,-4.4677,-4.4605,-4.3916,-4.4063,-4.4437,-4.4964,-4.4248,0.0,0.0,0.0,0.0,0.0,-4.5589,0.0,-4.6096,0.0,0.0,0.0,0.0,0.0,0.0,-4.5766,-4.4665,-4.4162,-4.3779,-4.3249,-4.2994,0.0,-4.4683,0.0,0.0,0.0,0.0,0.0,0.0,0.0,0.0,0.0,0.0,0.0,0.0,0.0,-3.6163,0.0,-3.4547,0.0,0.0,0.0,0.0,0.0,0.0,0.0,0.0,0.0,0.0,0.0,0.0,0.0,0.0,0.0,0.0,0.0,0.0,0.0,0.0,-2.5611,-2.4883,-2.4588,-2.4303,-2.4093,-2.3971,-2.4043,-2.42,-2.397,-2.392,-2.4123,-2.37,-2.3835,-2.4585,-2.5767,-2.6663,-2.7346,-2.8359,-2.9155,-2.967,-2.9523,-2.9943,-3.0583,-3.0413,-3.0933,-3.1643,-3.1223,-3.1959,-3.3066,-4.3848,-4.3701,-4.3889,-4.3561,-4.4273,-4.5056,-4.5606,0.0,0.0,0.0,0.0,0.0,-4.5264,-4.5211,0.0,0.0,-4.6748,-4.7055,0.0,0.0,-4.7316,0.0,0.0,0.0,-4.5385,-4.5593,-4.5807,-4.5955,-4.5419,0.0,0.0,0.0,0.0,0.0,0.0,-4.6548,-4.6132,0.0,0.0,-4.7765,-4.7144,-4.707,-4.7132,-4.5041,-4.3649,-4.2846,-4.2802,-4.276,-4.2886,-4.4082,-4.4389,0.0,-4.5612,0.0,0.0,0.0,0.0,0.0,-4.0117,0.0,0.0,0.0,0.0,0.0,0.0,0.0,0.0,0.0,0.0,0.0,0.0,0.0,0.0,0.0,0.0,0.0,0.0,0.0,0.0,0.0,0.0,0.0,0.0,0.0,0.0,0.0,0.0,0.0,-2.495,-2.4868,-2.448,-2.3829,-2.3768,-2.3812,-2.397,-2.3677,-2.3604,-2.3785,-2.3593,-2.405,-2.5124,-2.6287,-2.7309,-2.8132,-2.8758,-2.9297,-2.9744,-2.9523,-2.9943,-3.0622,-3.1005,-3.1641,-3.2201,-3.1563,-3.2034,-3.3054,-4.6376,-4.5809,0.0,0.0,0.0,0.0,0.0,0.0,0.0,0.0,0.0,0.0,0.0,0.0,0.0,0.0,0.0,-5.0062,-5.1593,0.0,-4.8729,0.0,0.0,-4.7511,0.0,-4.6146,-4.6383,-4.5483,-4.5563,-4.6116,0.0,0.0,0.0,0.0,-4.7327,-4.7291,-4.7686,-4.6845,-4.6447,-4.6323,-4.5946,-4.527,-4.458,0.0,-4.4222,-4.288,-4.2811,0.0,0.0,-4.4433,-4.4991,0.0,0.0,0.0,0.0,0.0,0.0,0.0,0.0,0.0,0.0,-3.9424,0.0,0.0,0.0,0.0,-3.697,0.0,0.0,0.0,0.0,0.0,0.0,0.0,0.0,0.0,0.0,0.0,0.0,0.0,0.0,0.0,0.0,0.0,0.0,0.0,0.0,0.0,-2.5926,-2.5898,-2.5107,-2.3405,-2.3774,-2.3785,-2.3309,-2.3298,-2.3372,-2.3593,-2.3913,-2.4469,-2.537,-2.7201,-2.8034,-2.8157,-2.9314,-2.9658,-2.9535,-2.9535,-2.9856,-3.0496,-3.119,-3.2104,-3.2812,-3.1604,-3.1681,-3.2408,-4.9619,0.0,0.0,0.0,0.0,0.0,0.0,-4.8442,0.0,0.0,0.0,0.0,0.0,-5.2552,-5.3163,0.0,0.0,-5.3265,-5.3626,-5.2712,0.0,0.0,0.0,-4.9771,0.0,-4.9089,-4.9011,-4.896,-4.8496,-4.8544,0.0,0.0,0.0,0.0,0.0,-4.7864,0.0,0.0,0.0,0.0,0.0,-4.5678,-4.5385,0.0,0.0,-4.3099,-4.2796,-4.3126,0.0,-4.4364,-4.4917,-4.5373,-4.5449,-4.4849,-4.391,-4.2891,-4.2167,0.0,0.0,0.0,-4.0515,-4.0674,0.0,0.0,0.0,0.0,0.0,0.0,0.0,0.0,0.0,0.0,0.0,0.0,0.0,0.0,0.0,0.0,0.0,0.0,0.0,0.0,0.0,0.0,0.0,0.0,0.0,0.0,0.0,-2.7586,-2.7126,-2.606,-2.5855,-2.5391,-2.4437,-2.4895,-2.4796,-2.4143,-2.5016,-2.6029,-2.7189,-2.7826,-2.8435,-2.9061,-2.9426,-2.9452,-2.9372,-2.9854,-3.0277,-3.0711,-3.1593,-3.2092,-3.2367,-3.2412,-3.3205,-3.4285,-5.1306,0.0,0.0,0.0,0.0,0.0,0.0,0.0,0.0,0.0,-5.2937,0.0,-5.4854,0.0,-5.6093,0.0,-5.6525,-5.6212,-5.4873,-5.5147,0.0,-5.2993,-5.2681,0.0,0.0,-5.1498,-5.094,-5.0483,-5.0091,-5.0149,0.0,0.0,0.0,0.0,0.0,-4.839,-4.7173,0.0,-4.5881,0.0,0.0,-4.5489,0.0,0.0,-4.4163,-4.3822,0.0,-4.3499,-4.4169,-4.4707,-4.5093,-4.5438,-4.5462,-4.4595,-4.3362,-4.2749,-4.1903,-4.1166,-4.0992,-4.0853,0.0,-4.1152,-4.0998,0.0,-4.0251,0.0,0.0,0.0,0.0,0.0,0.0,0.0,0.0,0.0,0.0,0.0,0.0,-3.1972,0.0,0.0,0.0,0.0,0.0,0.0,0.0,0.0,-3.0309,0.0,0.0,0.0,-2.8184,-2.7275,-2.6745,-2.6106,-2.509,-2.5757,-2.5749,-2.5062,-2.608,-2.7201,-2.8422,-2.8654,-2.9117,-2.9744,-2.9749,-2.9611,-2.9457,-3.0272,-3.0794,-3.1169,-3.2082,-3.2618,-3.2888,-3.3046,-3.3817,-3.4961,-5.167,0.0,0.0,0.0,-5.0864,0.0,0.0,0.0,-5.1238,0.0,-5.4164,-5.5158,-5.773,-5.8403,-5.858,-5.8461,-5.9378,-5.8797,-5.593,-5.7579,0.0,0.0,-5.5371,-5.5278,-5.3376,0.0,0.0,0.0,-5.0507,0.0,0.0,0.0,0.0,0.0,-5.0379,0.0,-4.6636,-4.6981,-4.6181,-4.4719,-4.4846,-4.4766,-4.4586,-4.4967,-4.511,-4.4988,-4.4161,-4.4378,-4.5102,-4.5462,-4.5577,-4.57,-4.628,-4.5152,-4.3628,-4.3475,-4.2627,-4.1561,-4.0849,-4.0872,-4.1045,-4.0934,0.0,0.0,0.0,0.0,-3.8523,0.0,0.0,0.0,0.0,0.0,0.0,0.0,0.0,0.0,0.0,0.0,0.0,0.0,0.0,0.0,0.0,0.0,-2.8561,-3.0315,-3.0446,-3.0169,0.0,0.0,-2.8306,-2.7298,-2.6743,-2.6142,-2.5432,-2.5958,-2.6246,-2.6239,-2.7001,-2.7923,-2.9074,-2.968,-3.0012,-3.0051,-3.0038,-2.9939,-2.9839,-3.069,-3.1336,-3.1885,-3.277,-3.3591,-3.4283,-3.3548,-3.3768,-3.4461,-5.3559,-5.3543,-5.3456,0.0,-5.1915,-5.093,0.0,0.0,0.0,0.0,-5.8201,-6.0064,-6.103,-6.1456,-6.1729,-6.1824,-6.1551,0.0,0.0,0.0,0.0,-5.8689,-5.8053,-5.7397,-5.6815,-5.6139,-5.5231,-5.4106,0.0,0.0,-5.3265,0.0,0.0,0.0,0.0,0.0,-4.8347,-4.7438,-4.614,-4.4707,-4.4783,-4.5487,0.0,0.0,-4.5733,-4.6473,-4.528,-4.5276,-4.5857,-4.5695,-4.5579,-4.5462,-4.463,-4.3558,-4.2402,-4.1564,-4.0929,-4.0527,-4.0409,-4.0375,-4.0476,-4.0922,-4.0829,-4.0701,0.0,0.0,0.0,0.0,0.0,0.0,0.0,0.0,0.0,0.0,0.0,0.0,0.0,0.0,0.0,0.0,0.0,0.0,0.0,0.0,-2.9772,-3.0701,-3.0556,-3.1057,0.0,0.0,0.0,-3.1116,-3.0374,-2.9055,-2.7148,-2.8009,-2.783,-2.6795,-2.7716,-2.8492,-2.9246,-2.8983,-2.8924,-2.9037,-2.9224,-2.934,-2.9482,-3.0962,-3.1672,-3.1962,-3.3393,-3.4505,-3.5177,-3.5016,-3.5001,-3.5213,-5.4144,0.0,0.0,-5.4,0.0,0.0,-5.2889,0.0,0.0,-5.6993,-5.8875,0.0,-6.2072,-6.2743,-6.3283,-6.3782,-6.3505,0.0,-6.186,0.0,0.0,-6.0283,-6.009,-5.962,-5.8644,-5.764,0.0,-5.5836,0.0,0.0,-5.4884,0.0,0.0,0.0,0.0,-5.1557,0.0,-4.8462,-4.7024,-4.6157,-4.5396,0.0,0.0,-4.6193,-4.6324,-4.6845,-4.6392,-4.614,-4.605,-4.6104,-4.5658,-4.5036,-4.4442,-4.3168,-4.1747,-4.1243,-4.0643,-4.0188,-4.0188,-4.0188,-4.0273,-4.0578,-4.054,-4.0394,-4.0367,-3.9943,-3.9557,0.0,0.0,0.0,0.0,0.0,0.0,0.0,0.0,0.0,0.0,0.0,0.0,0.0,0.0,0.0,0.0,0.0,-2.9973,-3.1196,-3.0211,-3.0426,0.0,0.0,0.0,-3.1701,-3.1664,-3.0807,-2.8959,-3.0072,-2.9966,-2.8613,-2.9235,-2.9731,-3.003,-2.9673,-2.9732,-3.009,-3.0236,-3.0557,-3.0959,-3.2272,-3.2986,-3.3466,-3.5067,-3.5792,-3.5953,-3.6229,-3.5989,-3.5549,-5.4055,0.0,0.0,0.0,0.0,0.0,0.0,-5.4166,0.0,-5.7931,0.0,-5.9622,-6.2109,-6.3044,-6.3806,-6.4623,0.0,-6.4222,-6.2217,-6.391,-6.3714,-6.0776,-6.1804,-6.1535,-5.9684,-5.852,-5.7511,0.0,0.0,0.0,0.0,0.0,0.0,0.0,0.0,0.0,0.0,-4.9341,-4.8041,0.0,-4.63,-4.6034,-4.6543,-4.6912,-4.6882,-4.6675,-4.7258,-4.6845,-4.6052,-4.6611,-4.579,-4.4564,-4.4839,-4.3293,-4.1429,-4.1584,-4.0998,-4.0238,-4.0121,-4.0188,-4.0238,-4.0155,-4.0171,-4.0104,-3.947,-3.9343,-3.9345,-3.9351,-3.9082,-3.9119,0.0,0.0,0.0,0.0,0.0,0.0,0.0,0.0,0.0,0.0,0.0,0.0,0.0,0.0,-2.998,-3.1611,-2.9896,-2.9481,0.0,0.0,0.0,-3.1249,-3.2155,0.0,-3.0896,0.0,-3.1965,-3.102,-3.0909,-3.0943,-3.0973,-3.0963,-3.1154,-3.1662,-3.2046,-3.255,-3.3143,-3.4013,-3.4877,-3.5722,-3.6895,-3.7088,-3.6656,-3.7286,-3.6745,-3.5714,0.0,0.0,0.0,0.0,0.0,-5.5769,-5.7077,-5.8605,-5.9869,-6.0622,-6.2137,-6.3331,-6.3862,-6.3656,-6.3825,-6.4642,-6.4735,0.0,0.0,0.0,0.0,-6.3593,-6.3166,-6.2459,-6.1393,-6.0296,-5.9312,0.0,0.0,0.0,0.0,0.0,0.0,0.0,0.0,0.0,-4.891,-4.8312,0.0,-4.6102,-4.6609,-4.6949,-4.7166,-4.7276,-4.7213,-4.7088,-4.7232,-4.716,-4.699,-4.688,-4.581,-4.4485,-4.4009,-4.2643,-4.1169,-4.0834,-4.044,-4.0138,-4.0138,-4.0138,-4.0155,-4.0222,-4.0189,-4.0121,-4.0138,-4.002,-3.9935,-3.9952,-3.9918,-3.985,-3.9764,0.0,0.0,0.0,0.0,0.0,0.0,0.0,0.0,0.0,0.0,0.0,0.0,0.0,0.0,0.0,0.0,0.0,0.0,0.0,0.0,0.0,-3.4401,0.0,0.0,0.0,-3.2426,-3.269,-3.1062,-3.0517,-3.1022,-3.0686,-3.0548,-3.072,-3.2345,-3.318,-3.3396,-3.5179,-3.6377,-3.7039,-3.7273,-3.7375,-3.733,-3.7943,-3.7389,-3.6364,0.0,0.0,0.0,0.0,0.0,0.0,0.0,-6.0898,0.0,-6.1199,-6.1941,-6.2697,-6.3126,-6.3617,-6.4214,-6.5036,-6.4719,-6.4476,-6.4494,-6.3952,-6.3456,-6.3008,-6.2611,0.0,-6.1203,-5.9836,-5.9115,-5.9233,0.0,0.0,0.0,0.0,0.0,0.0,0.0,-5.2611,0.0,0.0,0.0,-4.7448,-4.7479,-4.7783,-4.824,-4.8085,-4.7996,-4.7933,-4.7834,-4.7856,-4.7702,-4.6552,-4.5364,-4.42,-4.3355,-4.2131,-4.0913,-4.0614,-4.032,-4.007,-4.007,-4.007,-4.0121,-4.0271,-4.0171,-4.0121,-4.0337,-4.0238,-4.0138,-4.0188,-4.0188,-4.0138,-3.9935,-3.9142,0.0,0.0,0.0,0.0,0.0,0.0,0.0,0.0,0.0,0.0,0.0,0.0,0.0,0.0,0.0,0.0,0.0,0.0,0.0,0.0,0.0,0.0,0.0,0.0,0.0,-3.4119,-3.3033,-3.2556,-3.2516,-3.2151,-3.2513,-3.3424,-3.418,-3.4845,-3.5457,-3.6828,-3.7594,-3.7949,-3.8266,-3.8227,-3.7958,-3.8312,-3.7749,-3.6956,0.0,-5.7211,0.0,0.0,-5.8952,0.0,-6.0521,-6.177,-6.2339,-6.1459,-6.1515,-6.1794,-6.2253,-6.3495,-6.4397,-6.4697,-6.4453,-6.4134,-6.3777,-6.3174,-6.2518,-6.1806,-6.1786,-6.1409,-6.0621,-5.9103,-5.8529,0.0,0.0,0.0,0.0,0.0,0.0,0.0,0.0,0.0,0.0,0.0,-4.9126,-4.8882,-4.8348,-4.8497,-4.8986,-4.8783,-4.8605,-4.8495,-4.8365,-4.8365,-4.8047,-4.6212,-4.5088,-4.4272,-4.3155,-4.1967,-4.0955,-4.0659,-4.0336,-4.0121,-4.0121,-4.007,-4.0104,-4.0235,-4.0203,-4.0154,-4.037,-4.0271,-4.0138,-4.0255,-4.0238,-4.0188,-4.0087,-3.9547,0.0,0.0,0.0,0.0,0.0,0.0,0.0,0.0,0.0,0.0,0.0,0.0,0.0,0.0,0.0,0.0,0.0,0.0,0.0,0.0,0.0,-3.6625,-3.6316,0.0,-3.672,0.0,-3.5327,-3.4807,-3.4385,-3.4239,-3.4915,-3.6214,-3.6232,-3.6817,-3.7723,-3.8377,-3.862,-3.8746,-3.929,-3.9152,-3.8672,-3.8807,-3.8469,-3.7941,0.0,0.0,0.0,0.0,0.0,0.0,0.0,-6.1117,-6.2549,-6.2857,-6.355,-6.3756,-6.3078,-6.3756,-6.3702,-6.2257,-6.3458,-6.3646,-6.2125,-6.1956,-6.1881,-6.1788,-6.1787,-6.1431,-6.0623,-5.9609,-5.8412,0.0,0.0,0.0,0.0,0.0,0.0,0.0,0.0,0.0,0.0,-4.8936,-4.879,-4.8194,-4.8933,-4.908,-4.885,-4.8937,-4.864,-4.8233,-4.8174,-4.8153,-4.7876,-4.6166,-4.5621,-4.5386,-4.3899,-4.2685,-4.1637,-4.0983,-4.0525,-4.0254,-4.0121,-4.007,-4.0121,-4.0121,-4.0086,-4.0102,-4.0154,-4.0138,-4.0121,-4.0138,-4.0138,-4.0087,-3.9918,-3.9935,-3.9935,0.0,0.0,0.0,0.0,0.0,0.0,0.0,0.0,0.0,0.0,0.0,0.0,0.0,0.0,0.0,0.0,0.0,0.0,-3.5414,0.0,-3.8112,-3.7987,-3.8167,0.0,-3.8326,-3.6577,-3.5841,-3.6085,-3.6266,-3.6365,-3.6597,-3.7863,-3.8747,-3.9188,-3.9305,-3.9418,-3.9571,-3.9636,-3.9651,-3.9662,-4.0232,-4.0044,-3.9575,0.0,0.0,0.0,0.0,0.0,0.0,0.0,-6.2002,-6.2506,-6.2769,-6.3802,-6.4142,-6.3078,-6.3343,-6.3101,-6.19,-6.1975,-6.1768,-6.0998,-6.0509,-6.019,-6.0115,-6.0598,-6.0447,-5.9645,-5.8782,-5.8074,0.0,0.0,0.0,0.0,0.0,0.0,0.0,0.0,-5.0003,-4.8586,-4.8439,-4.8187,-4.7956,-4.8939,-4.9225,-4.9042,-4.9141,-4.9042,-4.8783,-4.8767,-4.8767,-4.8581,-4.7435,-4.6341,-4.52,-4.3602,-4.2659,-4.2149,-4.1797,-4.1328,-4.0961,-4.1251,-4.0754,-4.0305,-4.0706,-4.0474,-4.012,-4.032,-4.0238,-4.0138,-4.0188,-4.0138,-4.0087,-4.0054,-4.0037,-4.0087,0.0,0.0,0.0,0.0,0.0,0.0,0.0,0.0,0.0,0.0,0.0,0.0,0.0,0.0,0.0,0.0,0.0,0.0,-3.5743,0.0,-3.7682,-3.7942,-3.8357,-3.8359,-3.8062,-3.7434,-3.7244,-3.7416,-3.6882,-3.685,-3.7291,-3.8127,-3.9107,-4.0103,-4.0194,-4.0639,-4.111,-4.1256,-4.1323,-4.1302,-4.115,-4.1199,-4.1263,-6.0061,0.0,-6.1392,0.0,-6.1602,-6.1402,-6.2098,-6.227,-6.2285,-6.2148,-6.3318,-6.3811,-6.29,-6.2786,-6.2334,-6.1206,-6.0773,-6.0359,-6.0022,-5.9495,-5.9157,-5.9005,-6.0028,0.0,-5.9003,-5.8404,-5.7813,-5.7193,-5.7454,0.0,0.0,0.0,0.0,0.0,-4.9877,-4.8992,-4.8655,-4.806,-4.7965,-4.8245,-4.8987,-4.9244,-4.923,-4.9244,-4.9244,-4.9197,-4.9164,-4.9164,-4.9015,-4.7919,-4.6715,-4.5425,-4.3908,-4.3104,-4.2641,-4.2468,-4.2015,-4.1651,-4.2002,-4.1376,-4.073,-4.113,-4.0711,-4.0221,-4.0387,-4.0238,-4.0138,-4.0238,-4.0188,-4.007,-4.007,-4.007,-4.007,-4.007,0.0,0.0,0.0,0.0,0.0,0.0,-3.817,-3.7452,-3.5712,0.0,0.0,0.0,0.0,0.0,0.0,0.0,0.0,0.0,0.0,0.0,0.0,-3.8589,-3.8743,-3.8068,-3.8189,-3.8248,-3.8302,-3.7616,-3.7788,-3.8763,-3.8998,-3.9839,-4.1096,-4.1287,-4.1707,-4.2212,-4.2405,-4.252,-4.2483,-4.2178,-4.237,-4.2647,-6.0453,-6.0406,-6.0414,-6.0753,-6.0819,-6.0685,-6.0387,-6.1339,-6.1831,-6.1107,-6.2132,-6.2834,-6.2642,-6.2243,-6.1334,-5.9656,-6.0041,-6.002,-5.9101,-5.914,-5.9137,0.0,0.0,-6.0703,-5.9022,-5.8942,-5.767,-5.523,0.0,0.0,-5.187,0.0,-5.1692,-5.057,-4.9691,-4.8715,-4.772,-4.7802,-4.83,-4.9083,-4.9164,-4.9197,-4.9197,-4.9197,-4.9197,-4.9197,-4.9116,-4.9101,-4.8859,-4.7103,-4.6559,-4.6373,-4.5253,-4.4186,-4.3263,-4.2741,-4.2464,-4.2246,-4.2139,-4.1782,-4.1432,-4.1165,-4.0784,-4.0436,-4.0171,-4.007,-4.007,-4.007,-4.007,-4.007,-4.007,-4.007,-4.007,-4.007,0.0,0.0,0.0,0.0,0.0,0.0,-3.9362,-3.8841,-3.6787,0.0,0.0,0.0,0.0,0.0,0.0,0.0,0.0,-3.7092,-3.8539,0.0,-3.7406,-3.9213,-3.9724,-3.8963,-3.8726,-3.8602,-3.8687,-3.8689,-3.9573,-4.1174,-4.0944,-4.1427,-4.2376,-4.2364,-4.2492,-4.2715,-4.2684,-4.2698,-4.2782,-4.3512,-4.3748,-4.3773,-6.0685,-6.0685,-6.0858,-6.157,-6.1185,-6.095,-6.1453,-6.1848,-6.2021,-6.1785,-6.2113,-6.2337,-6.2273,-6.1819,-6.1069,0.0,-6.0075,-6.0013,0.0,-5.9643,-5.987,-6.033,-6.0079,-5.9698,-5.9235,-5.7832,-5.6434,-5.5059,0.0,0.0,0.0,-5.3921,-5.2491,-5.0287,-4.9418,-4.8842,-4.8519,-4.8553,-4.8386,-4.8159,-4.8207,-4.8207,-4.8193,-4.824,-4.8561,-4.8978,-4.8978,-4.8962,-4.8795,-4.7683,-4.6973,-4.6378,-4.5477,-4.461,-4.3892,-4.3634,-4.3262,-4.2996,-4.3324,-4.2739,-4.2095,-4.2214,-4.1558,-4.0845,-4.0642,-4.0353,-4.007,-4.007,-4.007,-4.007,-4.007,-4.007,-4.007,-4.007,-4.007,0.0,0.0,0.0,0.0,0.0,-3.9059,-3.8422,0.0,-3.7391,0.0,0.0,0.0,0.0,0.0,0.0,0.0,0.0,-3.8639,0.0,-3.8615,-3.9718,-3.9959,-3.9438,-3.9735,-3.9932,-3.9917,-3.9929,-4.0409,-4.1304,-4.1245,-4.1986,-4.3148,-4.3362,-4.3773,-4.4281,-4.446,-4.4517,-4.4563,-4.4708,-4.4763,-4.4763,-6.0734,-6.0757,-6.093,-6.1512,-6.1146,-6.0973,-6.1531,-6.1608,-6.1608,-6.1608,-6.1608,-6.1612,-6.1662,-6.1352,0.0,-6.0266,-6.011,-6.0,-5.9861,-5.9899,-5.9963,-6.0069,-5.9613,-5.9102,-5.8519,0.0,0.0,-5.5212,-5.5214,-5.4972,-5.4455,-5.3308,-5.1821,-5.0116,-4.921,-4.8653,-4.8463,-4.8428,-4.7964,-4.7256,-4.7303,-4.727,-4.7274,-4.7638,-4.7847,-4.8091,-4.8686,-4.8519,-4.7924,-4.7423,-4.6717,-4.59,-4.5064,-4.4482,-4.4104,-4.4005,-4.3751,-4.3584,-4.3912,-4.3367,-4.2751,-4.285,-4.2199,-4.1367,-4.0908,-4.058,-4.0303,-4.0121,-4.007,-4.007,-4.007,-4.007,-4.007,-4.007,-4.007,-4.007,-4.007,0.0,0.0,0.0,0.0,0.0,0.0,-3.7795,0.0,0.0,0.0,0.0,0.0,0.0,0.0,-3.8935,-3.921,0.0,-3.9693,-4.0236,-4.043,-4.0392,-4.0719,-4.095,-4.1236,-4.0925,-4.1377,-4.2347,-4.2335,-4.3044,-4.4249,-4.4386,-4.4749,-4.5198,-4.5319,-4.5423,-4.5371,-4.53,-4.53,-4.5247,-6.0633,-6.0671,0.0,0.0,-6.08,0.0,-6.08,-6.08,-6.08,-6.08,-6.08,-6.0823,-6.0888,-6.0901,-6.0757,-6.0456,0.0,0.0,0.0,-5.987,-5.9501,-5.8691,-5.9241,-5.8821,-5.7291,-5.6804,-5.6192,-5.5441,-5.3644,-5.2716,-5.2605,-5.0934,-5.01,-5.0079,-4.9066,-4.827,-4.7701,-4.7617,-4.7151,-4.642,-4.642,-4.642,-4.6494,-4.7256,-4.7107,-4.6698,-4.8203,-4.7776,-4.6494,-4.6438,-4.5918,-4.5138,-4.4265,-4.4005,-4.4005,-4.4005,-4.4005,-4.4005,-4.4005,-4.3732,-4.3384,-4.3137,-4.2641,-4.199,-4.1065,-4.0802,-4.0676,-4.0271,-4.0138,-4.0087,-4.0155,-4.0104,-4.0087,-4.0155,-4.0121,-4.007,-4.007,0.0,0.0,0.0,0.0,0.0,0.0,-3.8774,-3.8237,0.0,0.0,0.0,0.0,0.0,-3.9868,-4.0155,-4.007,-4.0206,-4.0644,-4.0815,-4.1238,-4.1814,-4.1558,-4.1836,-4.2459,-4.1811,-4.2396,-4.3913,-4.3989,-4.4524,-4.5423,-4.5371,-4.5371,-4.5423,-4.5423,-4.5423,-4.5423,-4.5371,-4.5371,-4.5371,0.0,0.0,-6.0777,-6.08,-6.08,-6.08,-6.08,-6.08,-6.08,-6.08,-6.08,-6.0819,-6.0881,-6.0834,-6.0817,-6.0762,-6.0099,-5.996,-6.0599,-5.9989,-5.9785,-6.0252,-5.8964,-5.8054,-5.7654,-5.6076,-5.5177,-5.4969,-5.4478,-5.3828,-5.2941,-5.193,-5.099,-5.006,-4.9227,-4.841,-4.7701,-4.7667,-4.6851,-4.5565,-4.5565,-4.5565,-4.5602,-4.5788,-4.6122,-4.655,-4.6921,-4.6828,-4.6401,-4.5788,-4.5454,-4.5138,-4.4265,-4.4005,-4.4005,-4.4005,-4.4005,-4.4005,-4.4005,-4.3931,-4.3799,-4.3649,-4.2995,-4.2244,-4.1481,-4.1065,-4.0754,-4.0676,-4.0254,-4.0137,-4.0673,-4.0306,-4.0155,-4.0673,-4.0408,-4.007,-4.007,-4.007,0.0,0.0,-3.9969,-3.9564,-3.8707,-3.8723,-3.8589,0.0,0.0,0.0,0.0,-3.9716,-4.0171,-4.0932,-4.0932,-4.1253,-4.1999,-4.2299,-4.2651,-4.3057,-4.2475,-4.2474,-4.3072,-4.2795,-4.324,-4.4253,-4.4565,-4.5008,-4.5371,-4.5284,-4.5302,-4.5423,-4.5423,-4.5423,-4.5371,-4.53,-4.5247,-4.5247,-5.8908,-5.9604,-6.0089,-5.9723,-5.9954,-6.0089,-5.9704,-5.9665,-5.9665,-5.9665,-5.9992,-6.0219,-6.0319,-6.0635,-6.0872,-6.0955,-6.0445,-6.0346,-6.0808,-5.9996,-5.955,-5.9646,-5.8242,-5.7243,-5.686,-5.5649,-5.4762,-5.4219,-5.4219,-5.3505,-5.2133,-5.165,-5.0917,-4.9915,-4.9008,-4.8109,-4.7298,-4.6893,-4.5922,-4.4711,-4.4711,-4.4711,-4.4748,-4.5138,-4.5324,-4.5454,-4.6215,-4.6011,-4.5342,-4.5305,-4.5026,-4.4618,-4.4153,-4.4005,-4.4005,-4.4005,-4.4005,-4.4005,-4.4005,-4.4005,-4.3961,-4.3822,-4.3444,-4.294,-4.2226,-4.181,-4.1525,-4.1303,-4.0879,-4.0637,-4.0798,-4.0697,-4.0697,-4.0978,-4.1066,-4.0967,-4.0646,-4.0646,0.0,-4.0172,-4.0037,-3.9817,-3.9329,-3.9379,-3.9194,-3.8724,0.0,0.0,-3.9497,-3.9817,-4.0189,-4.0662,-4.0995,-4.162,-4.2458,-4.3463,-4.3872,-4.3793,-4.344,-4.3394,-4.3659,-4.3613,-4.3952,-4.471,-4.4972,-4.523,-4.536,-4.5335,-4.5319,-4.5423,-4.5423,-4.5423,-4.5371,-4.53,-4.53,-4.5247,-5.7973,-5.8716,-5.9085,-5.8393,-5.8877,-5.9088,-5.8396,-5.83,-5.83,-5.8296,-5.9008,-5.9504,-5.9585,-6.0377,-6.0846,-6.0781,-6.0676,-6.0608,-6.0631,-5.98,-5.895,-5.8135,-5.7393,-5.6588,-5.5722,-5.5346,-5.4683,-5.3632,-5.3518,-5.2617,-5.1071,-5.1035,-5.0553,-4.9746,-4.872,-4.7768,-4.6911,-4.594,-4.4939,-4.4048,-4.4036,-4.4005,-4.4079,-4.4822,-4.4636,-4.4191,-4.5602,-4.5212,-4.4116,-4.4841,-4.4599,-4.4005,-4.4005,-4.4005,-4.4005,-4.4005,-4.4005,-4.4005,-4.4005,-4.4005,-4.3974,-4.3818,-4.3786,-4.3615,-4.3014,-4.2678,-4.2386,-4.1979,-4.163,-4.13,-4.0922,-4.1231,-4.1478,-4.1322,-4.1796,-4.1914,-4.134,0.0,-4.0934,-4.0206,-4.0153,-4.0153,-4.007,-4.0154,-3.99,-3.9208,-3.9732,-3.9817,0.0,-3.9732,-4.007,-4.007,-4.0925,-4.1816,-4.285,-4.4363,-4.4801,-4.4092,-4.4043,-4.3975,-4.3752,-4.3718,-4.4146,-4.4898,-4.4953,-4.5138,-4.5397,-4.5402,-4.5353,-4.5406,-4.5285,-4.532,-4.5389,-4.5165,-4.5181,-4.5353,-5.7023,-5.7762,-5.8366,-5.8227,-5.837,-5.8434,-5.8319,-5.8296,-5.8296,-5.83,-5.9008,-5.9484,-5.9504,-6.0277,-6.0512,-5.9804,-5.9704,-5.9727,-5.9771,-5.8976,-5.8107,-5.7239,-5.7069,-5.6588,-5.5722,-5.4987,-5.4543,-5.4345,-5.3615,-5.2602,-5.1419,-5.1395,-5.0837,-4.9765,-4.8867,-4.8007,-4.7167,-4.6045,-4.5106,-4.4318,-4.4109,-4.4005,-4.4005,-4.4153,-4.4116,-4.4023,-4.4283,-4.4228,-4.4023,-4.4153,-4.4116,-4.4005,-4.4005,-4.4005,-4.4005,-4.4005,-4.4005,-4.4005,-4.4005,-4.4005,-4.3974,-4.3818,-4.3701,-4.3563,-4.3284,-4.2847,-4.2444,-4.232,-4.181,-4.1488,-4.1893,-4.1819,-4.19,-4.2652,-4.1989,-4.1426,-4.1495,0.0,-4.0256,-4.0138,-4.0461,-4.0469,-3.9952,-4.038,-4.0408,-3.9817,-3.9969,-4.002,-3.9918,-4.002,-4.007,-4.007,-4.1405,-4.2895,-4.4406,-4.4708,-4.4548,-4.3922,-4.3271,-4.2671,-4.2169,-4.2038,-4.2535,-4.3512,-4.3919,-4.4588,-4.5404,-4.5302,-4.5302,-4.5354,-4.4699,-4.4854,-4.5268,-4.3992,-4.4268,-4.5161,-5.622,-5.6975,-5.7459,-5.6977,-5.722,-5.7328,-5.6867,-5.6813,-5.7011,-5.7475,-5.7918,-5.8511,-5.9412,-5.9469,-5.9473,-5.9492,-5.9108,-5.8454,-5.7555,-5.7572,-5.7434,-5.7027,-5.6145,-5.5241,-5.4376,-5.3991,-5.3568,-5.3106,-5.2702,-5.2007,-5.1078,-5.1078,-5.0782,-5.021,-4.8892,-4.8003,-4.7405,-4.5992,-4.5092,-4.4599,-4.4318,-4.4221,-4.4248,-4.4569,-4.4692,-4.4692,-4.4692,-4.4692,-4.4618,-4.4153,-4.4005,-4.4005,-4.4005,-4.4005,-4.4098,-4.4562,-4.4376,-4.4098,-4.4562,-4.4358,-4.4085,-4.4503,-4.4564,-4.448,-4.4413,-4.4433,-4.4455,-4.4286,-4.3858,-4.3333,-4.2758,-4.3092,-4.3305,-4.2642,-4.2821,0.0,0.0,-4.1705,-4.1329,-4.084,-4.103,-4.1059,-4.0784,-4.1424,-4.1696,-4.1436,-4.1881,-4.1933,-4.1423,-4.1388,-4.1023,-4.0303,-4.1612,-4.2881,-4.4016,-4.4126,-4.3659,-4.2535,-4.2329,-4.2227,-4.2261,-4.2295,-4.3014,-4.4285,-4.4093,-4.4423,-4.5037,-4.4555,-4.4674,-4.5037,-4.4674,-4.4796,-4.5022,-4.4111,-4.4158,-4.4611,-5.569,-5.6269,-5.654,-5.5825,-5.614,-5.6261,-5.5589,-5.5542,-5.589,-5.6758,-5.7107,-5.7739,-5.9014,-5.8619,-5.8354,-5.8566,-5.7854,-5.6739,-5.5201,-5.572,-5.6063,-5.6121,-5.5066,-5.4087,-5.3201,-5.3182,-5.2759,-5.1873,-5.1681,-5.1258,-5.0643,-5.0452,-5.0471,-5.0567,-4.8645,-4.7779,-4.7652,-4.5906,-4.5049,-4.4862,-4.4565,-4.4457,-4.4513,-4.4909,-4.5177,-4.5357,-4.5095,-4.5119,-4.5106,-4.4271,-4.3974,-4.4011,-4.4165,-4.422,-4.4419,-4.5259,-4.5036,-4.4665,-4.5398,-4.5082,-4.4748,-4.5398,-4.5533,-4.55,-4.55,-4.583,-4.6046,-4.581,-4.5585,-4.4975,-4.3708,-4.4226,-4.439,-4.2964,0.0,0.0,0.0,-4.2573,-4.2416,-4.1768,-4.2016,-4.2166,-4.2088,-4.2705,-4.3102,-4.2966,-4.3575,-4.3465,-4.2555,-4.2503,-4.2096,-4.1143,-4.1886,-4.2642,-4.3389,-4.3529,-4.2873,-4.1374,-4.1748,-4.2022,-4.2159,-4.2689,-4.3632,-4.482,-4.4251,-4.4379,-4.4882,-4.4143,-4.4143,-4.4653,-4.4443,-4.4666,-4.4931,-4.4042,-4.4067,-4.4367,-5.563,-5.5728,-5.5724,-5.5461,-5.5523,-5.557,-5.5512,-5.5489,-5.5811,-5.6688,-5.7508,-5.8069,-5.8196,-5.816,-5.752,-5.6019,-5.509,-5.4227,-5.3349,-5.3286,-5.3363,-5.3464,-5.4145,-5.4068,-5.314,-5.3121,-5.2675,-5.1806,-5.1001,-5.0579,-5.0502,-4.9697,-4.9735,-5.0406,-4.7893,-4.7241,-4.7853,-4.5919,-4.5103,-4.5061,-4.4796,-4.4681,-4.4669,-4.4449,-4.488,-4.5442,-4.4463,-4.4517,-4.499,-4.4175,-4.3897,-4.4045,-4.4705,-4.4961,-4.5175,-4.5925,-4.6094,-4.6091,-4.6349,-4.6364,-4.6327,-4.6401,-4.6249,-4.6147,-4.6147,-4.6044,-4.581,-4.549,-4.5508,-4.543,-4.4952,-4.4675,-4.4563,-4.4578,0.0,0.0,-4.29,-4.2714,-4.2554,-4.2615,-4.3654,-4.4192,-4.3761,-4.4165,-4.4307,-4.3821,-4.3874,-4.3465,-4.2555,-4.2503,-4.2742,-4.3266,-4.2499,-4.2513,-4.3403,-4.342,-4.2675,-4.1239,-4.2073,-4.1767,-4.0509,-4.2211,-4.3269,-4.379,-4.3755,-4.4378,-4.5386,-4.4518,-4.4214,-4.4142,-4.3424,-4.4044,-4.512,-4.2878,-4.3375,-4.4918,-5.4899,-5.4997,-5.5114,-5.5465,-5.548,-5.5446,-5.5446,-5.544,-5.5746,-5.6607,-5.6588,-5.6684,-5.7238,-5.6386,-5.5489,-5.486,-5.4012,-5.3149,-5.2346,-5.2267,-5.2286,-5.2327,-5.2639,-5.2408,-5.1521,-5.1502,-5.1327,-5.0979,-5.0653,-5.05,-5.0481,-5.0155,-4.9886,-4.9618,-4.8161,-4.7394,-4.7106,-4.5838,-4.5606,-4.6025,-4.5247,-4.5271,-4.5664,-4.5383,-4.5509,-4.581,-4.5885,-4.5653,-4.5307,-4.5562,-4.5162,-4.4705,-4.5503,-4.5762,-4.5944,-4.681,-4.7437,-4.7877,-4.7964,-4.7203,-4.652,-4.7107,-4.7154,-4.7085,-4.7085,-4.7331,-4.7445,-4.7101,-4.6983,-4.6717,-4.5894,-4.5986,-4.5899,-4.506,0.0,-4.4644,-4.4275,-4.4199,-4.4163,-4.4228,-4.4695,-4.4939,-4.4785,-4.5378,-4.5726,-4.5538,-4.5986,-4.5871,-4.4936,-4.35,-4.3092,-4.3801,-4.3288,-4.313,-4.3525,-4.3592,-4.3155,-4.2116,-4.2558,-4.2992,-4.3496,-4.4275,-4.4681,-4.4764,-4.4318,-4.4219,-4.4242,-4.3419,-4.3657,-4.4484,-4.4188,-4.4781,-4.565,-4.3924,-4.3859,-4.4453,-5.4211,-5.4297,-5.4407,-5.4744,-5.4748,-5.4785,-5.4957,-5.5014,-5.5422,-5.6524,-5.6205,-5.5995,-5.6332,-5.5088,-5.4039,-5.3526,-5.2909,-5.2219,-5.1418,-5.1338,-5.136,-5.1382,-5.165,-5.1382,-5.0498,-5.0747,-5.0725,-5.0457,-5.0457,-5.0457,-5.0438,-5.0189,-4.9882,-4.9499,-4.8426,-4.7754,-4.7371,-4.6222,-4.6241,-4.6969,-4.5938,-4.6046,-4.6767,-4.6506,-4.6573,-4.6838,-4.7068,-4.6779,-4.6368,-4.6582,-4.6132,-4.5605,-4.6264,-4.6671,-4.7019,-4.7385,-4.8138,-4.8765,-4.8524,-4.7731,-4.7178,-4.7874,-4.7988,-4.7972,-4.7901,-4.8236,-4.8458,-4.8014,-4.7893,-4.7606,-4.6765,-4.678,-4.6636,-4.5624,-4.5714,-4.5714,-4.5155,-4.5346,-4.5549,-4.5608,-4.5861,-4.6065,-4.6051,-4.6323,-4.6613,-4.6866,-4.7156,-4.7042,-4.6338,-4.4555,-4.389,-4.4671,-4.4467,-4.4375,-4.4463,-4.4278,-4.3799,-4.3072,-4.3454,-4.4114,-4.4997,-4.5364,-4.545,-4.5262,-4.4503,-4.4007,-4.3746,-4.2897,-4.3185,-4.4168,-4.442,-4.491,-4.5378,-4.4478,-4.4219,-4.4069,-5.3635,-5.3579,-5.3499,-5.3167,-5.3149,-5.3391,-5.3989,-5.4148,-5.4766,-5.6346,-5.6582,-5.625,-5.546,-5.4612,-5.3432,-5.1848,-5.1625,-5.1262,-5.0447,-5.0344,-5.0367,-5.05,-5.1335,-5.1346,-5.0432,-5.1255,-5.1232,-5.0302,-5.0302,-5.0302,-5.0264,-4.9461,-4.9519,-5.0206,-4.8544,-4.8277,-4.8965,-4.7245,-4.7016,-4.7742,-4.6863,-4.7057,-4.7862,-4.7619,-4.8041,-4.8631,-4.7583,-4.7692,-4.8115,-4.7006,-4.6619,-4.6652,-4.7003,-4.7776,-4.8347,-4.7537,-4.7923,-4.8421,-4.7627,-4.7978,-4.8623,-4.8787,-4.8787,-4.8751,-4.855,-4.8513,-4.8381,-4.7875,-4.7893,-4.7911,-4.7554,-4.6964,-4.6504,-4.6504,-4.5789,-4.5242,-4.5327,-4.5897,-4.6344,-4.649,-4.7192,-4.7717,-4.7717,-4.6975,-4.683,-4.7645,-4.6957,-4.6445,-4.632,-4.5473,-4.5351,-4.6169,-4.6236,-4.632,-4.6302,-4.546,-4.4636,-4.3927,-4.4794,-4.4845,-4.4148,-4.5035,-4.5212,-4.4856,-4.4007,-4.3881,-4.4213,-4.3264,-4.2882,-4.2971,-4.3768,-4.4119,-4.4108,-4.4083,-4.4108,-4.3969,-5.2613,-5.2686,-5.2809,-5.3179,-5.3251,-5.3307,-5.3379,-5.3427,-5.355,-5.3899,-5.3937,-5.3626,-5.2824,-5.2499,-5.216,-5.1663,-5.1601,-5.1505,-5.1262,-5.1204,-5.096,-5.0367,-5.0593,-5.0631,-5.0344,-5.0574,-5.0593,-5.0302,-5.0302,-5.0015,-4.9442,-4.9213,-4.8888,-4.8525,-4.8028,-4.7952,-4.8162,-4.7627,-4.7914,-4.864,-4.7761,-4.7933,-4.8662,-4.7983,-4.7884,-4.8132,-4.8424,-4.8144,-4.7791,-4.857,-4.8303,-4.7784,-4.8431,-4.888,-4.9132,-4.8692,-4.8751,-4.89,-4.8558,-4.8583,-4.8768,-4.8839,-4.875,-4.8697,-4.8715,-4.8606,-4.8419,-4.819,-4.8169,-4.809,-4.7974,-4.7652,-4.7466,-4.7525,-4.722,-4.6951,-4.6993,-4.715,-4.7295,-4.7337,-4.7452,-4.7554,-4.7554,-4.6832,-4.6452,-4.6705,-4.6065,-4.5866,-4.626,-4.5491,-4.5376,-4.617,-4.6101,-4.618,-4.632,-4.6133,-4.5946,-4.5731,-4.6002,-4.6043,-4.5917,-4.6187,-4.5616,-4.444,-4.4219,-4.3785,-4.3282,-4.3029,-4.3226,-4.3769,-4.4023,-4.4455,-4.4867,-4.4315,-4.4082,-4.3975,-5.1823,-5.191,-5.2022,-5.2366,-5.244,-5.251,-5.2685,-5.2723,-5.2801,-5.29,-5.3196,-5.2928,-5.1716,-5.1888,-5.1945,-5.1639,-5.1888,-5.2231,-5.2575,-5.1969,-5.1381,-5.0837,-5.0474,-5.0302,-5.0302,-5.0302,-5.0302,-5.0302,-5.0302,-5.0054,-4.9576,-4.9576,-4.9289,-4.8793,-4.8793,-4.8621,-4.8315,-4.8315,-4.8621,-4.9041,-4.8525,-4.8812,-4.9519,-4.9003,-4.8793,-4.8869,-4.9385,-4.912,-4.8669,-4.9535,-4.9249,-4.8675,-4.9213,-4.9431,-4.9394,-4.8933,-4.9034,-4.919,-4.8781,-4.8898,-4.9141,-4.9174,-4.894,-4.8714,-4.8732,-4.8606,-4.8475,-4.8419,-4.8304,-4.8187,-4.8172,-4.8093,-4.8014,-4.8111,-4.797,-4.7806,-4.7806,-4.7741,-4.7717,-4.7717,-4.7572,-4.7511,-4.7486,-4.6765,-4.6254,-4.6254,-4.592,-4.5848,-4.6236,-4.5767,-4.5737,-4.623,-4.6493,-4.669,-4.6832,-4.6933,-4.6975,-4.6975,-4.6672,-4.6558,-4.6698,-4.5979,-4.5152,-4.4269,-4.3922,-4.3429,-4.2882,-4.2882,-4.3172,-4.3681,-4.3957,-4.4191,-4.4328,-4.4157,-4.3904,-4.3576,-5.13,-5.13,-5.1256,-5.1139,-5.1162,-5.1385,-5.192,-5.2053,-5.2282,-5.2833,-5.3509,-5.3356,-5.1691,-5.216,-5.2308,-5.1658,-5.2346,-5.3168,-5.4046,-5.2523,-5.1587,-5.1601,-5.0779,-5.0302,-5.0302,-5.0302,-5.0302,-5.0302,-5.0302,-5.0264,-5.0187,-5.0187,-5.0187,-5.0187,-5.0187,-4.9824,-4.9213,-4.9213,-4.9213,-4.9213,-4.9213,-4.9652,-5.0302,-5.0302,-5.0302,-5.0302,-5.0302,-5.0302,-5.0236,-4.9955,-4.9646,-4.9424,-4.9539,-4.9569,-4.9437,-4.8654,-4.9003,-4.9428,-4.8654,-4.8974,-4.9598,-4.9598,-4.9252,-4.889,-4.8695,-4.8587,-4.855,-4.8532,-4.8381,-4.8265,-4.8344,-4.8344,-4.8344,-4.8344,-4.8151,-4.7992,-4.7992,-4.7824,-4.7717,-4.7717,-4.7554,-4.7468,-4.7486,-4.6697,-4.6169,-4.6097,-4.6173,-4.6173,-4.6187,-4.6254,-4.6296,-4.6368,-4.7089,-4.7554,-4.7657,-4.7657,-4.7699,-4.7699,-4.6884,-4.6545,-4.6531,-4.4867,-4.4129,-4.4142,-4.3284,-4.2882,-4.2882,-4.2882,-4.2882,-4.2992,-4.3703,-4.3557,-4.301,-4.3703,-4.3539,-4.2882,-5.13,-5.13,-5.1292,-5.1256,-5.1265,-5.1284,-5.1307,-5.1344,-5.1328,-5.13,-5.1352,-5.1241,-5.0854,-5.0837,-5.1047,-5.1563,-5.2346,-5.3168,-5.4046,-5.2518,-5.1601,-5.1601,-5.0779,-5.0302,-5.0302,-5.0302,-5.0302,-5.0302,-5.0302,-4.9977,-4.9347,-4.9347,-4.9347,-4.9347,-4.9347,-4.9614,-5.0034,-5.0034,-5.0034,-5.0034,-5.0034,-5.0149,-5.0302,-5.0302,-5.0302,-5.0302,-5.0302,-5.0302,-5.0302,-5.0212,-5.0144,-5.0095,-5.012,-5.0139,-5.0057,-4.9732,-4.9709,-4.9683,-4.9419,-4.9408,-4.9539,-4.9569,-4.9427,-4.9193,-4.916,-4.8943,-4.8751,-4.8804,-4.8751,-4.8679,-4.8768,-4.8642,-4.8514,-4.8514,-4.821,-4.7992,-4.7992,-4.7824,-4.7717,-4.7717,-4.7511,-4.7363,-4.7363,-4.6532,-4.5832,-4.5306,-4.5281,-4.5552,-4.6169,-4.6126,-4.6396,-4.7075,-4.7204,-4.7356,-4.7554,-4.7554,-4.7615,-4.7699,-4.6884,-4.6178,-4.5544,-4.4556,-4.3782,-4.3174,-4.301,-4.2882,-4.2882,-4.2882,-4.2882,-4.29,-4.3083,-4.3047,-4.29,-4.3101,-4.3047,-4.2882,-5.1222,-5.13,-5.13,-5.13,-5.13,-5.1281,-5.1203,-5.1201,-5.1128,-5.0966,-5.1227,-5.1233,-5.0759,-5.0881,-5.1181,-5.1582,-5.2346,-5.2977,-5.3454,-5.2308,-5.1601,-5.1601,-5.0779,-5.0302,-5.0302,-5.0302,-5.0302,-5.0302,-5.0302,-5.0073,-4.9671,-4.9671,-4.9671,-4.9671,-4.9671,-4.9691,-4.9748,-5.0149,-5.0073,-4.9767,-5.0149,-5.0302,-5.0302,-5.0302,-5.0302,-5.0302,-5.0302,-5.0302,-5.0302,-5.0302,-5.0302,-5.0302,-5.0302,-5.0302,-5.0278,-5.0163,-5.0095,-5.0025,-4.9948,-4.9922,-4.9922,-4.9922,-4.9805,-4.9607,-4.9352,-4.8993,-4.8732,-4.8874,-4.8804,-4.8714,-4.8874,-4.882,-4.875,-4.875,-4.8364,-4.8053,-4.8053,-4.7747,-4.7511,-4.7511,-4.7407,-4.7276,-4.7249,-4.6784,-4.6346,-4.5978,-4.5652,-4.5616,-4.5978,-4.5996,-4.6219,-4.6675,-4.7052,-4.7338,-4.7511,-4.7554,-4.7615,-4.7699,-4.6504,-4.5906,-4.5838,-4.4256,-4.3534,-4.3429,-4.3065,-4.2882,-4.2882,-4.2882,-4.2882,-4.2882,-4.2882,-4.2882,-4.2882,-4.2882,-4.2882,-4.2882,-5.0735,-5.0989,-5.1086,-5.1086,-5.1203,-5.1292,-5.1292,-5.1292,-5.1249,-5.1152,-5.1684,-5.1756,-5.0924,-5.1333,-5.1629,-5.162,-5.2126,-5.2528,-5.2766,-5.1907,-5.1372,-5.1348,-5.0527,-5.0068,-5.0068,-5.0068,-5.0168,-5.0302,-5.0302,-5.0225,-5.0092,-5.0245,-5.0225,-5.0092,-5.0245,-4.992,-4.9347,-5.0015,-4.9901,-4.9347,-5.0034,-5.0302,-5.0302,-5.0302,-5.0206,-5.0096,-5.0096,-5.0096,-5.0134,-5.0245,-5.0302,-5.0302,-5.0302,-5.0302,-5.0302,-5.0302,-5.0302,-5.0302,-5.0302,-5.0325,-5.0367,-5.0302,-5.0182,-4.9978,-4.9537,-4.909,-4.8818,-4.8993,-4.8906,-4.8818,-4.8974,-4.9027,-4.9027,-4.8959,-4.8569,-4.8214,-4.8009,-4.7661,-4.7335,-4.7209,-4.7248,-4.733,-4.7214,-4.7178,-4.7132,-4.7033,-4.6621,-4.6288,-4.5998,-4.6262,-4.6306,-4.6149,-4.6978,-4.7407,-4.7425,-4.7615,-4.7699,-4.7765,-4.6255,-4.5856,-4.6422,-4.4152,-4.3483,-4.4087,-4.3373,-4.3099,-4.3099,-4.3099,-4.3099,-4.3081,-4.2936,-4.2882,-4.2882,-4.2882,-4.2882,-4.2882,-4.9118,-4.9703,-5.019,-5.019,-5.0797,-5.1287,-5.1297,-5.1249,-5.122,-5.1269,-5.121,-5.1159,-5.1081,-5.0999,-5.1162,-5.171,-5.1231,-5.1444,-5.2733,-5.1334,-5.045,-5.0403,-4.962,-4.9182,-4.9182,-4.9182,-4.9549,-5.0302,-5.0302,-4.9939,-4.927,-4.9977,-4.992,-4.9293,-4.9977,-5.0245,-5.0149,-5.0245,-5.0245,-5.0149,-5.0264,-5.0302,-5.0302,-5.0302,-4.9866,-4.9242,-4.9242,-4.9242,-4.9376,-5.0077,-5.0302,-5.0302,-5.0302,-5.0302,-5.0302,-5.0302,-5.0302,-5.0302,-5.0302,-5.0302,-5.0302,-5.0302,-5.0158,-4.9986,-4.9906,-4.9674,-4.948,-4.948,-4.948,-4.948,-4.948,-4.951,-4.9439,-4.9289,-4.9042,-4.8558,-4.7609,-4.7732,-4.7597,-4.6785,-4.7162,-4.742,-4.7303,-4.7517,-4.7553,-4.7275,-4.7626,-4.7524,-4.6882,-4.7511,-4.7593,-4.6882,-4.7421,-4.756,-4.7223,-4.7425,-4.7705,-4.8017,-4.6862,-4.6382,-4.6448,-4.4711,-4.4007,-4.4068,-4.3969,-4.393,-4.3932,-4.3932,-4.3932,-4.386,-4.3154,-4.2882,-4.2882,-4.2882,-4.2882,-4.2882,-4.869,-4.9099,-4.9469,-4.9917,-4.9948,-5.0057,-5.0505,-5.0547,-5.0538,-5.0566,-5.0491,-5.045,-5.0487,-5.0343,-5.0317,-5.0506,-5.0529,-5.0833,-5.1475,-5.0707,-5.0021,-4.9539,-4.9177,-4.8757,-4.8215,-4.8691,-4.9134,-4.9568,-5.0049,-4.9882,-4.9117,-4.992,-4.9862,-4.914,-4.9939,-5.0302,-5.0302,-5.0302,-5.0302,-5.0302,-5.0302,-5.0302,-5.0302,-5.0302,-5.0096,-4.9717,-4.9242,-4.9111,-4.9149,-4.9529,-4.9924,-5.0302,-5.0302,-5.0302,-5.0302,-5.0302,-5.0302,-5.0302,-5.0302,-5.0302,-5.0302,-5.0302,-5.0231,-5.0182,-5.0182,-5.0089,-4.9922,-4.9655,-4.9598,-4.9598,-4.9598,-4.9598,-4.9569,-4.9469,-4.9259,-4.8931,-4.8431,-4.8412,-4.8291,-4.7922,-4.8066,-4.8163,-4.8135,-4.8239,-4.8236,-4.8075,-4.8289,-4.829,-4.7965,-4.8292,-4.8052,-4.7128,-4.7685,-4.7682,-4.692,-4.7301,-4.7639,-4.787,-4.7525,-4.7411,-4.7443,-4.5146,-4.4605,-4.5376,-4.4476,-4.4364,-4.4765,-4.4765,-4.4787,-4.4678,-4.3899,-4.3281,-4.2882,-4.2882,-4.2882,-4.2882]}]]